[[{"header":{"parameterUnit":"m.s-1","parameterCategory":1,"la1":30.6,"la2":29.2853,"lo1":-89.7004,"lo2":-87.6739,"dy":0.0162,"dx":0.0183,"nx":112,"ny":82,"refTime":"2023-11-13T06:00:00:Z","depth":0,"parameterNumber":2,"parameterNumberName":"U-component_of_WINDS"},"data":[0.0,0.0,0.0,0.0,0.0,0.0,0.0,0.0,0.0,0.0,0.0,0.0,0.0,0.0,0.0,0.0,0.0,0.0,0.0,0.0,0.0,0.0,0.0,0.0,0.0,0.0,0.0,0.0,0.0,0.0,0.0,0.0,0.0,0.0,0.0,0.0,0.0,0.0,0.0,0.0,0.0,0.0,0.0,0.0,0.0,0.0,0.0,0.0,0.0,0.0,0.0,0.0,0.0,0.0,0.0,0.0,0.0,0.0,0.0,0.0,0.0,0.0,0.0,0.0,0.0,0.0,0.0,0.0,0.0,0.0,0.0,0.0,0.0,0.0,0.0,0.0,0.0,0.0,0.0,0.0,0.0,0.0,0.0,0.0,0.0,0.0,0.0,0.0,0.0,0.0,3.7621,3.9002,4.2342,4.3658,4.1733,4.0655,3.8757,3.5621,0.0,0.0,0.0,0.0,0.0,0.0,0.0,0.0,0.0,0.0,0.0,0.0,0.0,0.0,0.0,0.0,0.0,0.0,0.0,0.0,0.0,0.0,0.0,0.0,0.0,0.0,0.0,0.0,0.0,0.0,0.0,0.0,0.0,0.0,0.0,0.0,0.0,0.0,0.0,0.0,0.0,0.0,0.0,0.0,0.0,0.0,0.0,0.0,0.0,0.0,0.0,0.0,0.0,0.0,0.0,0.0,0.0,0.0,0.0,0.0,0.0,0.0,0.0,0.0,0.0,0.0,0.0,0.0,0.0,0.0,0.0,0.0,0.0,0.0,0.0,0.0,0.0,0.0,0.0,0.0,0.0,0.0,0.0,0.0,0.0,0.0,0.0,0.0,0.0,0.0,0.0,0.0,0.0,0.0,0.0,0.0,0.0,0.0,0.0,0.0,0.0,0.0,0.0,0.0,3.7537,4.2053,4.4107,4.4367,4.241,4.0056,3.7658,3.5229,0.0,0.0,0.0,0.0,0.0,0.0,0.0,0.0,0.0,0.0,0.0,0.0,0.0,0.0,0.0,0.0,0.0,0.0,0.0,0.0,0.0,0.0,0.0,0.0,0.0,0.0,0.0,0.0,0.0,0.0,0.0,0.0,0.0,0.0,0.0,0.0,0.0,0.0,0.0,0.0,0.0,0.0,0.0,0.0,0.0,0.0,0.0,0.0,0.0,0.0,0.0,0.0,0.0,0.0,0.0,0.0,0.0,0.0,0.0,0.0,0.0,0.0,0.0,0.0,0.0,0.0,0.0,0.0,0.0,0.0,0.0,0.0,0.0,0.0,0.0,0.0,0.0,0.0,0.0,0.0,0.0,0.0,0.0,0.0,0.0,0.0,0.0,0.0,0.0,0.0,0.0,0.0,0.0,0.0,0.0,0.0,0.0,0.0,0.0,0.0,0.0,0.0,0.0,3.7399,3.8865,4.3408,4.3567,4.2704,4.1183,3.8399,3.6131,3.4774,3.2128,0.0,0.0,0.0,0.0,0.0,0.0,0.0,0.0,0.0,0.0,0.0,0.0,0.0,0.0,0.0,0.0,0.0,0.0,0.0,0.0,0.0,0.0,0.0,0.0,0.0,0.0,0.0,0.0,0.0,0.0,0.0,0.0,0.0,0.0,0.0,0.0,0.0,0.0,0.0,0.0,0.0,0.0,0.0,0.0,0.0,0.0,0.0,0.0,0.0,0.0,0.0,0.0,0.0,0.0,0.0,0.0,0.0,0.0,0.0,0.0,0.0,0.0,0.0,0.0,0.0,0.0,0.0,0.0,0.0,0.0,0.0,0.0,0.0,0.0,0.0,0.0,0.0,0.0,0.0,0.0,0.0,0.0,0.0,0.0,0.0,0.0,0.0,0.0,0.0,0.0,0.0,0.0,0.0,0.0,0.0,0.0,0.0,0.0,0.0,0.0,0.0,0.0,3.96,4.0347,4.3804,4.2698,4.1211,3.9996,3.6867,3.4699,3.4123,3.036,0.0,0.0,0.0,0.0,0.0,0.0,0.0,0.0,0.0,0.0,0.0,0.0,0.0,0.0,0.0,0.0,0.0,0.0,0.0,0.0,0.0,0.0,0.0,0.0,0.0,0.0,0.0,0.0,0.0,0.0,0.0,0.0,0.0,0.0,0.0,0.0,0.0,0.0,0.0,0.0,0.0,0.0,0.0,0.0,0.0,0.0,0.0,0.0,0.0,0.0,0.0,0.0,0.0,0.0,0.0,0.0,0.0,0.0,0.0,0.0,0.0,0.0,0.0,0.0,0.0,0.0,0.0,0.0,0.0,0.0,0.0,0.0,0.0,0.0,0.0,0.0,0.0,0.0,0.0,0.0,0.0,0.0,0.0,0.0,0.0,0.0,0.0,0.0,0.0,0.0,0.0,0.0,0.0,0.0,0.0,0.0,0.0,0.0,0.0,0.0,0.0,0.0,3.9246,4.1306,4.3345,4.2445,4.1211,3.9996,3.6211,3.3669,3.3143,2.9378,0.0,0.0,0.0,0.0,0.0,0.0,0.0,0.0,0.0,0.0,0.0,0.0,0.0,0.0,0.0,0.0,0.0,0.0,0.0,0.0,0.0,0.0,0.0,0.0,0.0,0.0,0.0,0.0,0.0,0.0,0.0,0.0,0.0,0.0,0.0,0.0,0.0,0.0,0.0,0.0,0.0,0.0,0.0,0.0,0.0,0.0,0.0,0.0,0.0,0.0,0.0,0.0,0.0,0.0,0.0,0.0,0.0,0.0,0.0,0.0,0.0,0.0,0.0,0.0,0.0,0.0,0.0,0.0,0.0,0.0,0.0,0.0,0.0,0.0,0.0,0.0,0.0,0.0,0.0,0.0,0.0,0.0,0.0,0.0,0.0,0.0,0.0,0.0,0.0,0.0,0.0,0.0,0.0,0.0,0.0,0.0,0.0,0.0,0.0,0.0,0.0,0.0,3.8152,3.9776,4.2062,4.0535,3.8799,3.7286,3.4465,3.2422,3.1567,0.0,0.0,0.0,0.0,0.0,0.0,0.0,0.0,0.0,0.0,0.0,0.0,0.0,0.0,0.0,0.0,0.0,0.0,0.0,0.0,0.0,0.0,0.0,0.0,0.0,0.0,0.0,0.0,0.0,0.0,0.0,0.0,0.0,0.0,0.0,0.0,0.0,0.0,0.0,0.0,0.0,0.0,0.0,0.0,0.0,0.0,0.0,0.0,0.0,0.0,0.0,0.0,0.0,0.0,0.0,0.0,0.0,0.0,0.0,0.0,0.0,0.0,0.0,0.0,0.0,0.0,0.0,0.0,0.0,0.0,0.0,0.0,0.0,0.0,0.0,0.0,0.0,0.0,0.0,0.0,0.0,0.0,0.0,0.0,0.0,0.0,0.0,0.0,0.0,0.0,0.0,0.0,0.0,0.0,0.0,0.0,0.0,0.0,0.0,0.0,0.0,0.0,3.6067,3.7228,3.8672,4.0787,3.9192,3.7412,3.5907,3.3097,3.1286,3.0884,0.0,0.0,0.0,0.0,0.0,0.0,0.0,0.0,0.0,0.0,0.0,0.0,0.0,0.0,0.0,0.0,0.0,0.0,0.0,0.0,0.0,0.0,0.0,0.0,0.0,0.0,0.0,0.0,0.0,0.0,0.0,0.0,0.0,0.0,0.0,0.0,0.0,0.0,0.0,0.0,0.0,0.0,0.0,0.0,0.0,0.0,0.0,0.0,0.0,0.0,0.0,0.0,0.0,0.0,0.0,0.0,0.0,0.0,0.0,0.0,0.0,0.0,0.0,0.0,0.0,0.0,0.0,0.0,0.0,0.0,0.0,0.0,0.0,0.0,0.0,0.0,0.0,0.0,0.0,0.0,0.0,0.0,0.0,0.0,0.0,0.0,0.0,0.0,0.0,0.0,0.0,0.0,0.0,0.0,0.0,0.0,0.0,0.0,0.0,0.0,0.0,0.0,3.4477,3.661,3.8442,3.9572,3.8668,3.7538,3.6457,3.2336,3.0256,0.0,0.0,0.0,0.0,0.0,0.0,0.0,0.0,0.0,0.0,0.0,0.0,0.0,0.0,0.0,0.0,0.0,0.0,0.0,0.0,0.0,0.0,0.0,0.0,0.0,0.0,0.0,0.0,0.0,0.0,0.0,0.0,0.0,0.0,0.0,0.0,0.0,0.0,0.0,0.0,0.0,0.0,0.0,0.0,0.0,0.0,0.0,0.0,0.0,0.0,0.0,0.0,0.0,0.0,0.0,0.0,0.0,0.0,0.0,0.0,0.0,0.0,0.0,0.0,0.0,0.0,0.0,0.0,0.0,0.0,0.0,0.0,0.0,0.0,0.0,0.0,0.0,0.0,0.0,0.0,0.0,0.0,0.0,0.0,0.0,0.0,0.0,0.0,0.0,0.0,0.0,0.0,0.0,0.0,0.0,0.0,0.0,0.0,0.0,0.0,0.0,0.0,0.0,3.4527,3.661,3.8291,3.9044,3.814,3.6659,3.4823,3.2014,3.0331,3.0281,0.0,0.0,0.0,0.0,0.0,0.0,0.0,0.0,0.0,0.0,0.0,0.0,0.0,0.0,0.0,0.0,0.0,0.0,0.0,0.0,0.0,0.0,0.0,0.0,0.0,0.0,0.0,0.0,0.0,0.0,0.0,0.0,0.0,0.0,0.0,0.0,0.0,0.0,0.0,0.0,0.0,0.0,0.0,0.0,0.0,0.0,0.0,0.0,0.0,0.0,0.0,0.0,0.0,0.0,0.0,0.0,0.0,0.0,0.0,0.0,0.0,0.0,0.0,0.0,0.0,0.0,0.0,0.0,0.0,0.0,0.0,0.0,0.0,0.0,0.0,0.0,0.0,0.0,0.0,0.0,0.0,0.0,0.0,0.0,0.0,0.0,0.0,0.0,0.0,0.0,0.0,0.0,0.0,0.0,0.0,0.0,0.0,0.0,0.0,0.0,0.0,0.0,3.4552,3.661,3.8241,3.8843,3.7889,3.6383,3.4399,3.1993,3.0262,2.9503,0.0,0.0,0.0,0.0,0.0,0.0,0.0,0.0,0.0,0.0,0.0,0.0,0.0,0.0,0.0,0.0,0.0,0.0,0.0,0.0,0.0,0.0,0.0,0.0,0.0,0.0,0.0,0.0,0.0,0.0,0.0,0.0,0.0,0.0,0.0,0.0,0.0,0.0,0.0,0.0,0.0,0.0,0.0,0.0,0.0,0.0,0.0,0.0,0.0,0.0,0.0,0.0,0.0,0.0,0.0,0.0,0.0,0.0,0.0,0.0,0.0,0.0,0.0,0.0,0.0,0.0,0.0,0.0,0.0,0.0,0.0,0.0,0.0,0.0,0.0,0.0,0.0,0.0,0.0,0.0,0.0,0.0,0.0,0.0,0.0,0.0,0.0,0.0,0.0,0.0,0.0,0.0,0.0,0.0,0.0,0.0,0.0,0.0,0.0,0.0,0.0,0.0,3.4552,3.661,3.8216,3.8768,3.7813,3.6431,3.4703,3.2118,3.0111,2.8982,0.0,0.0,0.0,0.0,0.0,0.0,0.0,0.0,0.0,0.0,0.0,0.0,0.0,0.0,0.0,0.0,0.0,0.0,0.0,0.0,0.0,0.0,0.0,0.0,0.0,0.0,0.0,0.0,0.0,0.0,0.0,0.0,0.0,0.0,0.0,0.0,0.0,0.0,0.0,0.0,0.0,0.0,0.0,0.0,0.0,0.0,0.0,0.0,0.0,0.0,0.0,0.0,0.0,0.0,0.0,0.0,0.0,0.0,0.0,0.0,3.7298,3.7092,0.0,0.0,0.0,0.0,0.0,0.0,0.0,0.0,0.0,0.0,0.0,0.0,0.0,0.0,0.0,0.0,0.0,0.0,0.0,0.0,0.0,0.0,0.0,0.0,0.0,0.0,0.0,0.0,0.0,0.0,0.0,0.0,0.0,0.0,0.0,0.0,0.0,0.0,0.0,0.0,3.4552,3.661,3.804,3.8191,3.721,3.5703,3.3617,3.1712,3.0111,2.8982,2.8405,0.0,0.0,0.0,0.0,0.0,0.0,0.0,0.0,0.0,0.0,0.0,0.0,0.0,0.0,0.0,0.0,0.0,0.0,0.0,0.0,0.0,0.0,0.0,0.0,0.0,0.0,0.0,0.0,0.0,0.0,0.0,0.0,0.0,0.0,0.0,0.0,0.0,0.0,0.0,0.0,0.0,0.0,0.0,0.0,0.0,0.0,0.0,0.0,0.0,0.0,0.0,0.0,0.0,0.0,0.0,0.0,0.0,0.0,0.0,3.9705,3.8434,0.0,0.0,0.0,0.0,0.0,0.0,0.0,0.0,0.0,0.0,0.0,0.0,0.0,0.0,0.0,0.0,0.0,0.0,0.0,0.0,0.0,0.0,0.0,0.0,0.0,0.0,0.0,0.0,0.0,0.0,0.0,0.0,0.0,0.0,0.0,0.0,0.0,0.0,0.0,0.0,3.4929,3.6786,3.8015,3.8015,3.7036,3.5627,3.3668,3.1712,3.0111,2.8982,2.8405,0.0,0.0,0.0,0.0,0.0,0.0,0.0,0.0,0.0,0.0,0.0,0.0,0.0,0.0,0.0,0.0,0.0,0.0,0.0,0.0,0.0,0.0,0.0,0.0,0.0,0.0,0.0,0.0,0.0,0.0,0.0,0.0,0.0,0.0,0.0,0.0,0.0,0.0,0.0,0.0,0.0,0.0,0.0,0.0,0.0,0.0,0.0,0.0,0.0,0.0,0.0,0.0,0.0,4.5292,4.6024,4.6753,4.6753,4.6225,4.5175,4.2883,4.0628,3.8612,3.9013,0.0,0.0,0.0,0.0,0.0,0.0,0.0,0.0,0.0,0.0,0.0,0.0,0.0,0.0,0.0,0.0,0.0,0.0,0.0,0.0,0.0,0.0,3.7471,3.8135,3.7262,3.5729,3.384,0.0,0.0,0.0,0.0,0.0,0.0,0.0,0.0,0.0,0.0,0.0,3.5182,3.6986,3.8115,3.8015,3.7136,3.583,3.4048,3.2043,3.0362,2.9132,2.853,2.8247,0.0,0.0,0.0,0.0,0.0,0.0,0.0,0.0,0.0,0.0,0.0,0.0,0.0,0.0,0.0,0.0,0.0,0.0,0.0,0.0,0.0,0.0,0.0,0.0,0.0,0.0,0.0,0.0,0.0,0.0,0.0,0.0,3.5807,3.6835,0.0,0.0,0.0,0.0,0.0,0.0,0.0,0.0,0.0,0.0,0.0,0.0,0.0,4.4715,4.612,4.7305,4.8014,4.8165,4.9163,4.9238,4.8492,4.8492,4.8391,4.819,4.7313,0.0,4.1549,4.0715,0.0,0.0,0.0,0.0,0.0,0.0,0.0,0.0,0.0,0.0,0.0,0.0,0.0,0.0,0.0,0.0,0.0,0.0,0.0,0.0,0.0,0.0,3.7021,3.6141,3.5798,3.5529,3.5236,3.4793,3.4173,3.309,3.221,3.1582,0.0,0.0,0.0,0.0,0.0,0.0,3.4778,3.7136,3.8592,3.8065,3.7462,3.623,3.4073,3.2742,3.1336,2.9779,2.9107,2.8787,2.8787,2.8731,0.0,0.0,0.0,0.0,0.0,0.0,0.0,0.0,0.0,0.0,0.0,0.0,0.0,0.0,0.0,0.0,0.0,0.0,0.0,0.0,0.0,0.0,0.0,0.0,0.0,0.0,0.0,0.0,0.0,3.8165,3.9195,3.7814,3.9521,4.0526,0.0,0.0,0.0,0.0,0.0,0.0,0.0,0.0,0.0,4.623,4.7606,4.8711,4.9464,5.0845,5.1883,5.2537,5.3306,5.3582,5.3406,5.3406,5.308,5.2486,5.19,5.0024,4.7065,4.4079,4.2471,4.176,0.0,0.0,0.0,0.0,4.1517,4.2224,4.2295,4.2492,4.2476,4.0967,0.0,0.0,0.0,0.0,0.0,0.0,0.0,3.869,3.8464,3.8508,3.8542,3.8366,3.8542,3.8693,3.8392,3.7663,3.6433,3.4399,3.4098,3.3919,3.2989,3.2014,0.0,0.0,0.0,3.47,3.5956,3.7738,3.8668,3.8065,3.7513,3.6431,3.4525,3.3345,3.2114,3.0783,2.988,2.9428,2.9428,2.9082,2.9183,0.0,0.0,0.0,0.0,0.0,0.0,0.0,0.0,0.0,0.0,0.0,0.0,0.0,0.0,0.0,0.0,0.0,0.0,0.0,0.0,0.0,0.0,0.0,0.0,0.0,0.0,0.0,0.0,4.0325,4.163,3.9145,4.1681,4.2961,0.0,0.0,0.0,0.0,0.0,0.0,4.6677,4.8309,4.9515,5.0275,5.1783,5.2754,5.3181,5.4386,5.5541,5.6646,5.7072,5.7437,5.7838,5.7688,5.7148,5.6194,5.5376,5.4094,5.2201,4.7581,4.502,4.389,4.2384,4.1882,4.2116,4.3168,4.4036,4.4661,4.4479,4.44,4.4004,4.1399,3.9672,3.8591,3.8209,0.0,0.0,0.0,0.0,3.8577,3.9833,4.0134,4.0249,4.0802,4.1327,4.1628,4.1229,4.0501,3.9095,3.6108,3.5881,3.5828,3.4748,3.337,0.0,3.4101,3.4675,3.5479,3.7009,3.8316,3.8894,3.8291,3.7739,3.6734,3.5054,3.3922,3.2763,3.1461,3.0507,2.993,2.9804,2.9377,2.9333,2.9779,0.0,0.0,0.0,0.0,0.0,0.0,0.0,0.0,0.0,0.0,0.0,0.0,0.0,0.0,0.0,0.0,0.0,0.0,0.0,0.0,0.0,0.0,0.0,0.0,0.0,0.0,0.0,0.0,0.0,4.1152,4.3639,0.0,0.0,0.0,0.0,4.5974,4.7587,4.8994,5.0085,5.1741,5.3155,5.427,5.5365,5.6721,5.829,5.839,5.9006,6.006,6.0111,6.0136,6.0136,5.9608,5.9081,5.8415,5.6821,5.6068,5.5566,5.0594,4.7908,4.6772,4.5673,4.5547,4.5899,4.4903,4.5234,4.5888,4.3803,4.3101,4.3073,4.2889,4.1706,4.0375,4.0352,4.0387,0.0,0.0,3.9589,4.0859,3.9373,4.0101,4.1378,4.1959,4.2512,4.2914,4.2889,4.2838,4.1808,3.8492,3.6585,3.5707,3.618,0.0,3.5307,3.5408,3.6761,3.7638,3.7236,3.8642,3.9446,3.8919,3.8316,3.7262,3.5608,3.4477,3.3144,3.1486,3.0884,3.0331,2.9804,2.9754,2.9754,2.9804,2.9804,0.0,0.0,0.0,0.0,0.0,0.0,0.0,0.0,0.0,0.0,0.0,0.0,0.0,0.0,0.0,0.0,0.0,0.0,0.0,0.0,0.0,0.0,0.0,0.0,0.0,0.0,0.0,0.0,4.6602,4.9088,0.0,4.8517,4.8335,4.893,5.0436,5.2101,5.3833,5.563,5.7349,5.8755,5.9859,6.0261,6.0939,6.1918,6.1502,6.1527,6.1903,6.1903,6.1743,6.1391,6.119,6.0412,5.9182,5.8579,5.7725,5.6533,5.4436,5.2076,4.959,4.7405,4.6647,4.6798,4.6753,4.723,4.7863,4.738,4.7034,4.6331,4.3818,4.2108,4.0876,4.0199,4.0259,4.0465,4.0203,4.0993,4.1943,4.2043,4.2484,4.3162,4.412,4.4166,4.4242,4.497,4.4543,4.379,4.2986,4.0601,3.8668,3.8567,3.7437,3.686,3.7588,3.8191,3.8743,3.927,3.9848,4.0023,3.9471,3.8567,3.7313,3.5633,3.4502,3.3169,3.1507,3.0909,3.0357,2.9804,2.9804,2.9804,2.9804,2.9804,3.0131,0.0,0.0,0.0,0.0,0.0,0.0,0.0,0.0,0.0,0.0,0.0,0.0,0.0,0.0,0.0,0.0,0.0,0.0,0.0,0.0,0.0,0.0,0.0,0.0,0.0,4.7606,5.0444,5.1197,5.3557,5.4536,5.308,5.2955,5.3632,5.5254,5.6972,5.8704,6.0563,6.1868,6.2822,6.3375,6.3375,6.3576,6.3952,6.3576,6.3299,6.3124,6.3124,6.2822,6.227,6.2094,6.1391,6.0311,5.9734,5.888,5.7763,5.6835,5.5189,5.298,5.0569,4.964,4.9665,4.9816,5.0117,5.0451,5.0218,4.9597,4.8341,4.5577,4.379,4.2607,4.2082,4.2057,4.2308,4.2833,4.3288,4.3743,4.4468,4.4644,4.4844,4.5598,4.5623,4.5643,4.6396,4.612,4.5819,4.6225,4.3765,4.1505,4.1128,3.9998,3.9421,4.0175,4.0125,4.0276,4.0978,4.0752,4.0349,3.9998,3.8969,3.7638,3.5958,3.5152,3.3793,3.1537,3.1235,3.0758,2.9829,2.998,3.008,3.008,3.008,3.0407,3.1135,0.0,0.0,0.0,0.0,0.0,0.0,0.0,0.0,0.0,0.0,0.0,0.0,0.0,0.0,0.0,0.0,0.0,0.0,0.0,0.0,0.0,0.0,0.0,4.6451,5.0285,5.3507,5.4723,5.6771,5.77,5.662,5.7524,5.883,6.0412,6.2029,6.3475,6.4572,6.5107,6.5157,6.4672,6.4622,6.4597,6.4597,6.4547,6.427,6.3726,6.3701,6.34,6.2807,6.2295,6.2019,6.1918,6.0286,5.9558,5.9408,5.7738,5.7085,5.691,5.5275,5.4622,5.4522,5.3909,5.3683,5.3457,5.185,5.0275,4.8818,4.8184,4.6928,4.5748,4.625,4.605,4.5723,4.6276,4.6401,4.6401,4.6401,4.6401,4.6401,4.6401,4.6772,4.7124,4.7174,4.755,4.7908,4.7933,4.5773,4.3915,4.389,4.3413,4.309,4.3065,4.2587,0.0,4.2263,4.1229,4.0524,4.0549,3.9597,3.8266,3.6609,3.6381,3.4924,3.1612,3.1863,3.1436,2.9854,3.0306,3.0563,3.0563,3.0613,3.0613,3.0613,0.0,0.0,0.0,0.0,0.0,0.0,0.0,0.0,0.0,0.0,0.0,0.0,0.0,0.0,0.0,0.0,0.0,0.0,0.0,0.0,0.0,4.8805,5.0913,5.1063,5.4235,5.7524,6.0236,6.2144,6.3299,6.3375,6.4053,6.4655,6.5107,6.6312,6.7122,6.7467,6.7618,6.7819,6.807,6.6915,6.633,6.633,6.5459,6.4781,6.4295,6.3877,6.3601,6.3425,6.2873,6.2395,6.1969,6.1517,6.109,6.0613,5.9332,5.8805,5.8579,5.6118,5.4949,5.4522,5.3909,5.3457,5.2995,5.2176,5.1574,5.1021,5.0042,4.9414,4.9012,4.8761,4.8586,4.8485,4.8661,4.8686,4.8686,4.8686,4.8385,4.8209,4.8586,4.8184,4.7933,4.8736,4.8385,4.8033,4.8492,4.7581,4.6527,4.5748,4.5171,4.4644,4.4242,4.3689,4.3338,4.3338,4.2032,4.1227,4.1683,4.0401,3.8944,3.7688,3.6107,3.4274,3.2114,3.1035,3.0256,2.9804,2.993,3.0005,3.0005,3.0783,3.1185,0.0,0.0,0.0,0.0,0.0,0.0,0.0,0.0,0.0,0.0,0.0,0.0,0.0,0.0,0.0,0.0,0.0,0.0,0.0,0.0,0.0,0.0,5.3306,5.6244,5.7876,5.9382,6.1466,6.4555,6.5961,6.689,6.7398,6.7819,6.8095,6.8366,6.8949,6.93,6.93,6.91,6.908,6.9381,6.807,6.7317,6.7317,6.6438,6.5609,6.4848,6.4505,6.4128,6.3676,6.335,6.2873,6.2345,6.2094,6.1818,6.1441,6.0311,5.9834,5.9608,0.0,0.0,0.0,0.0,5.3708,5.3146,5.2628,5.2302,5.2,5.1348,5.0971,5.072,5.0393,5.0293,5.0293,5.0293,5.0293,5.0293,5.0293,5.0067,4.9924,5.0218,4.9791,4.9515,5.0167,4.9791,4.9414,4.9798,4.9364,0.0,4.6788,4.5736,4.5005,4.4656,4.3747,4.308,4.308,4.2041,4.1428,4.1781,4.0551,3.9145,3.7789,3.6483,0.0,0.0,0.0,3.106,3.0809,3.0809,0.0,0.0,0.0,3.1612,3.1406,3.2311,0.0,0.0,3.211,3.211,0.0,0.0,0.0,0.0,0.0,0.0,0.0,0.0,0.0,0.0,0.0,0.0,0.0,0.0,0.0,0.0,5.8077,6.1492,6.5409,6.5183,6.5509,6.7894,6.8723,6.9255,6.9807,6.9933,7.0134,7.0652,7.0677,7.0652,7.0577,6.9953,0.0,0.0,0.0,6.802,6.807,6.7467,6.6589,6.5484,6.5409,6.4856,6.3877,6.3751,6.3425,6.2857,6.2345,6.2094,6.2019,6.0939,6.0437,6.0161,5.8529,5.7549,5.6809,5.5239,5.4285,5.3733,5.3206,0.0,0.0,5.2201,5.1875,5.1473,5.1473,5.1473,5.144,5.1214,5.1146,5.1113,5.0852,5.0769,5.0753,5.1013,5.0997,5.0947,5.0947,5.1139,5.1172,5.0712,5.0365,4.9339,4.6989,4.5536,4.4611,4.4317,4.3108,4.2173,4.2125,4.1752,4.1478,4.1403,4.0501,0.0,3.7637,3.7311,3.5881,3.2771,3.2842,3.2717,3.2139,3.2093,3.2093,3.2093,3.224,3.2064,3.1587,3.219,3.2792,3.3366,3.3241,3.3266,0.0,0.0,0.0,0.0,0.0,0.0,0.0,0.0,0.0,0.0,0.0,0.0,0.0,0.0,0.0,5.9834,6.2596,6.5534,6.9426,7.0179,7.0355,7.043,7.1334,7.2163,7.274,7.3192,7.3318,7.2966,7.2941,7.274,7.2288,7.1309,7.1184,7.2015,7.0108,6.9351,6.9823,6.8798,6.7744,6.6682,6.6187,0.0,6.4957,6.4078,6.3626,6.35,6.2923,6.2631,6.2581,6.1943,6.114,6.0161,5.8529,5.7549,5.686,5.5666,5.4924,5.4346,5.3758,5.3206,5.2744,5.2744,5.2669,5.2569,5.2569,5.2569,0.0,5.0683,5.0263,4.9887,4.8241,4.7512,4.757,4.9173,4.9208,4.8872,4.8872,5.0158,5.0351,4.7179,4.7451,4.7549,4.5461,4.5176,4.4583,4.2649,4.2583,4.2576,4.2149,4.2418,4.2512,4.206,4.1404,4.0499,3.932,3.7989,3.6533,3.4956,3.3298,3.2139,3.1562,3.1537,3.1537,3.1537,3.2462,3.2864,3.2763,3.3746,3.4502,3.5029,3.4148,3.4223,0.0,0.0,0.0,0.0,0.0,0.0,0.0,0.0,0.0,0.0,0.0,5.1423,5.3381,0.0,6.0713,6.4329,6.699,6.9476,7.1987,7.3042,7.3167,7.2037,7.2891,7.3694,7.3971,7.4247,7.4297,7.4021,7.3996,7.377,7.3192,7.2364,7.2163,7.2668,7.1133,7.0255,7.03,6.9451,6.8346,6.7009,6.6689,6.6112,6.5283,6.4731,6.4203,6.3676,6.34,6.3099,6.2731,6.1943,6.109,6.0211,5.9131,5.8353,5.7713,5.662,5.5867,5.5315,5.4737,5.4009,5.3306,5.3306,5.2481,5.1443,5.1443,5.0752,4.9748,4.8758,4.8506,4.8289,4.7248,4.6813,4.6852,4.7826,4.7834,4.7649,4.7649,4.8439,4.8545,4.66,4.6416,4.602,4.4058,4.3363,4.2549,4.115,4.1524,4.166,4.09,4.2098,4.2788,4.2263,4.143,4.0575,3.9772,3.7914,3.6433,3.5558,3.4226,3.3323,3.3068,3.3068,3.3068,3.3068,3.385,3.4276,3.4276,3.5403,3.6107,3.6334,3.6081,3.6107,0.0,0.0,0.0,0.0,0.0,0.0,0.0,4.9715,5.0703,5.2251,5.4034,5.6244,5.9282,6.2471,6.5559,6.8321,7.0706,7.2615,7.3745,7.4625,7.47,7.3345,7.4121,7.4724,7.4724,7.4724,7.4724,7.4724,7.4623,7.4372,7.3946,7.3268,7.2891,7.2891,7.1811,7.1033,7.0627,6.9928,6.8874,6.7442,6.7241,6.6614,6.5609,6.5383,6.4831,6.4002,6.3776,6.3375,6.2706,6.1743,6.1065,6.0588,5.991,5.9408,5.8867,5.7738,5.691,5.6294,5.5742,5.4538,5.3247,5.3182,5.1519,4.9544,4.945,4.8289,4.6919,4.6514,4.6441,4.633,4.5982,4.5871,4.5982,4.633,4.6441,4.6441,4.6441,4.6735,4.6772,4.6019,4.55,4.4561,4.257,4.1244,4.0234,3.9765,4.0526,4.082,3.9895,4.1838,4.3065,4.2411,4.143,4.0526,3.9747,3.7964,3.6582,3.5859,3.5431,3.5152,3.5052,3.5052,3.5052,3.5052,3.5556,3.5832,3.5832,3.6571,3.7022,3.7221,3.7367,3.7319,4.8485,4.7732,4.7475,5.0594,5.0419,5.0268,0.0,5.4637,5.5717,5.6897,5.9257,6.1642,6.3516,6.6137,6.8929,7.1689,7.2866,7.3795,7.4851,7.5102,7.5127,7.4926,7.5502,7.5928,7.5928,7.5928,7.5928,7.5928,7.5427,7.5077,7.5002,7.4071,7.3494,7.3494,7.2414,7.1786,7.1736,7.0681,6.9828,6.9105,6.817,6.7392,6.6808,6.5735,6.5233,6.5057,6.4103,6.3375,6.2731,6.2169,6.1868,6.1718,6.0638,6.0147,6.001,5.8892,5.7813,5.6835,5.6319,5.4156,5.1595,5.1237,4.9683,4.787,4.7457,4.7175,4.6625,4.4902,4.4414,4.4021,4.2311,4.183,4.2273,4.4021,4.4414,4.4414,4.4414,4.5775,4.5982,4.2542,4.2816,4.2918,4.0636,3.9749,3.9099,3.8291,4.018,4.1499,4.0909,4.2939,4.4041,4.3014,4.2361,4.1381,3.9823,3.9044,3.8165,3.7061,3.6935,3.6708,3.623,3.6205,3.6205,3.6205,3.6758,3.701,3.701,3.6303,3.6415,3.7265,3.601,3.5891,4.6075,4.7908,5.0042,5.0142,5.1574,5.3683,5.6369,5.8077,5.9608,6.1366,6.3927,6.6363,6.802,7.033,7.259,7.4372,7.5126,7.5678,7.613,7.6205,7.5728,7.4423,7.505,7.5703,7.6079,7.6104,7.6104,7.6104,7.5854,7.5578,7.5202,7.4751,7.4397,7.4071,7.3293,7.2715,7.2389,7.161,7.0782,6.9903,6.9125,6.8296,6.7417,6.6639,6.5911,6.5233,6.4153,6.355,6.3249,6.237,6.1994,6.1893,6.0763,5.9514,5.8414,5.8968,5.7704,5.5602,5.5383,5.3025,5.0024,4.9855,4.8251,4.6337,4.6143,4.5108,4.379,4.2983,4.2608,4.2234,4.1385,4.1211,4.1385,4.2234,4.2406,4.2406,4.2406,4.3037,4.3113,4.1502,4.1473,4.1399,4.0425,3.9668,3.9082,3.8711,4.0932,4.2269,4.1132,4.3689,4.492,4.319,4.2788,4.1984,4.0325,3.9973,3.9346,3.8266,3.819,3.7939,3.7337,3.7336,3.7071,3.6473,3.6982,3.6956,3.6326,3.6298,3.6484,3.6891,3.6516,3.6112,4.6301,4.8912,5.1774,5.1431,5.3808,5.6997,5.9709,6.1718,6.3626,6.5878,6.8145,7.0255,7.1937,7.3544,7.5,7.6154,7.6657,7.6883,7.6883,7.6482,7.5502,7.3569,7.3669,7.4146,7.4898,7.5477,7.5928,7.6104,7.6104,7.5928,7.5477,7.5477,7.5201,7.4674,7.4121,7.3544,7.2966,7.2263,7.1435,7.0526,6.9777,6.8829,6.7769,6.7066,6.6212,6.5233,6.4304,6.3827,6.3626,6.2647,6.183,6.1177,6.0172,5.8403,5.6573,5.7662,5.6342,5.3998,5.3998,5.1728,4.8815,4.8684,4.6965,4.4894,4.481,4.3458,4.1973,4.1973,4.1758,4.1484,4.1387,4.1387,4.1348,4.125,4.1211,4.1211,4.1211,4.1211,4.1211,4.1211,4.0918,4.0664,4.0508,3.9902,3.9355,3.9219,4.1205,4.2412,4.1513,4.4144,4.5397,4.3614,4.319,4.2512,4.1304,4.0901,4.04,3.9597,3.9546,3.9371,3.8944,3.8488,3.7916,3.7175,3.7235,3.6842,3.5953,3.6222,3.6326,3.6326,3.6332,3.5903,5.1423,5.1574,5.2361,5.657,5.8127,5.9608,6.3466,6.6011,6.8221,7.043,7.1811,7.3069,7.4751,7.5127,7.5528,7.6682,7.6858,7.6883,7.6883,7.5502,7.4071,7.2891,7.1359,7.0878,7.1937,7.3996,7.5477,7.6079,7.6104,7.6104,7.6079,7.6079,7.5778,7.5177,7.4674,7.4121,7.3569,7.2464,7.161,7.1033,6.9908,6.8829,6.7769,6.6639,6.5835,6.5258,6.4722,6.4195,6.3651,6.3048,6.1449,5.9319,5.8772,5.7112,5.5005,5.4512,5.3414,5.2159,5.2159,5.0401,4.8064,4.7664,4.582,4.3676,4.3306,4.2794,4.2362,4.2362,4.2362,4.2245,4.1894,4.1777,4.168,4.1308,4.1211,4.1211,4.1211,4.1211,4.1211,4.1211,4.1211,4.1016,4.0586,4.0156,3.9726,3.9277,4.0421,4.1577,4.2271,4.4202,4.5271,4.4614,4.3614,4.2989,4.2939,4.1904,4.1277,4.1227,4.1227,4.1227,4.1202,3.9694,3.8872,3.8817,3.7753,3.7019,3.6573,3.5926,3.5632,3.5622,3.4647,3.4622,5.2051,5.411,5.6821,5.9433,6.1868,6.4555,6.8045,7.0305,7.1861,7.259,7.2439,7.2138,7.1962,7.2238,7.2966,7.4448,7.5929,7.7009,7.736,7.726,7.5061,6.9443,7.097,7.0489,6.5377,6.9826,7.372,7.5377,7.5502,7.5678,7.6079,7.6104,7.6029,7.5778,7.5251,7.465,7.4146,7.3393,7.274,7.2163,7.0259,6.8829,6.7769,6.6639,6.6011,6.5785,6.4898,6.4396,6.417,6.3199,6.1432,5.9259,5.8694,5.6185,5.2732,5.2217,5.0773,4.9252,5.0125,4.8713,4.6441,4.6001,4.5257,4.4551,4.4414,4.4062,4.373,4.373,4.332,4.2832,4.2676,4.2441,4.2148,4.2031,4.1797,4.1582,4.1582,4.1367,4.1211,4.1211,4.1211,4.1172,4.0976,4.0605,4.0454,4.0988,4.1968,4.3038,4.4113,4.5601,4.6225,4.5296,4.4869,4.422,4.309,4.2961,4.266,4.1959,4.2233,4.1914,4.0773,3.9933,3.877,3.7213,3.651,3.5867,3.5341,3.5107,3.5171,3.5458,3.5388,3.5684,5.4235,5.7248,6.0713,6.2973,6.5735,6.8597,7.1359,7.2816,7.3418,7.2816,7.1661,7.033,6.9024,6.8793,6.9401,7.1485,7.3016,7.4548,7.6281,7.5979,7.3839,6.9196,7.0521,6.9971,6.5236,6.7881,7.0915,7.3355,7.4562,7.5477,7.6079,7.6104,7.6104,7.6104,7.5527,7.4926,7.4423,7.387,7.3092,7.2113,7.0058,6.8628,6.7769,6.684,6.6312,6.6061,6.4999,6.401,6.3168,6.2041,5.9667,5.6807,5.6445,5.4041,5.0674,5.0298,4.9297,4.8136,4.8692,4.7792,4.6308,4.6035,4.5742,4.5445,4.5445,4.5078,4.4629,4.4629,4.4219,4.373,4.3594,4.3223,4.2851,4.2695,4.2324,4.1992,4.1836,4.1582,4.1348,4.125,4.1211,4.1211,4.1211,4.0684,4.0454,4.0951,4.1898,4.3274,4.5243,4.6588,4.7099,4.6426,4.5999,4.5347,4.4267,4.4317,4.4091,4.3416,4.3243,4.2603,4.1336,3.9884,3.8396,3.6865,3.6125,3.5565,3.5176,3.5488,3.5703,3.5859,3.6426,3.6855,5.8102,6.1,6.3911,6.7241,6.9677,7.1661,7.3242,7.3519,7.2966,7.1234,6.9451,6.7668,6.5961,6.4931,6.5258,6.8045,6.8723,7.0255,7.4096,7.2339,7.1008,7.1771,7.0113,6.9436,7.0684,6.8355,6.7822,7.0399,7.3281,7.5255,7.6079,7.5956,7.5881,7.5881,7.5183,7.4535,7.4011,7.3557,7.2573,7.1058,6.9426,6.8371,6.7819,6.7154,6.649,6.5914,6.4636,6.286,6.0718,5.9565,5.6441,5.2431,5.2431,5.0964,4.8913,4.8913,4.8913,4.8796,4.793,4.7637,4.7617,4.7623,4.7031,4.6367,4.6367,4.5781,4.5074,4.5074,4.5098,4.4961,4.457,4.4121,4.3672,4.3242,4.2812,4.2383,4.1953,4.1836,4.168,4.1289,4.123,4.1211,4.1211,4.0488,3.9766,3.9316,4.0446,4.2418,4.5474,4.6976,4.7839,4.7877,4.7004,4.6316,4.62,4.5779,4.5449,4.531,4.4133,4.3254,4.2758,3.9611,3.7847,3.777,3.6629,3.6055,3.606,3.6934,3.7148,3.6832,3.7598,3.7972,6.1994,6.5333,6.8327,7.0811,7.2539,7.3569,7.3594,7.2615,7.1008,6.8592,6.5057,6.1818,5.9695,6.114,6.3525,6.6312,7.0229,7.3996,7.7059,7.6858,7.5111,7.1541,7.256,7.1754,6.7295,6.9841,7.1735,7.1747,7.1332,7.2568,7.593,7.4037,7.288,7.288,7.07,6.9294,6.8735,6.9457,7.0223,7.1058,6.9828,6.8904,6.8282,6.5482,6.4146,6.384,6.0572,5.88,5.8157,5.7199,5.5027,5.2431,5.2431,5.0964,4.8913,4.8913,4.8913,4.8874,4.8659,4.832,4.7988,4.7676,4.7441,4.7246,4.7246,4.6875,4.6401,4.6401,4.5996,4.5488,4.5371,4.5019,4.459,4.416,4.3711,4.3262,4.2851,4.2246,4.1758,4.166,4.1387,4.1211,4.1211,4.0723,4.0215,3.9785,4.0935,4.2372,4.3793,4.5451,4.685,4.7777,4.7657,4.678,4.5032,4.5131,4.4484,4.2696,4.2649,4.209,4.0723,3.9502,3.8416,3.747,3.6843,3.666,3.6973,3.75,3.7871,3.8141,3.8633,3.9062,6.566,6.8678,7.1263,7.2994,7.377,7.3644,7.2113,7.048,6.802,6.3525,6.0236,5.7386,5.4601,5.6846,6.0085,6.3073,6.7844,7.2464,7.6205,7.6733,7.6033,7.4115,7.5335,7.4937,7.1452,7.2461,7.3771,7.4866,7.2078,7.1545,7.4432,7.1626,6.9992,6.9992,6.8407,6.7231,6.6514,6.7671,6.8059,6.763,6.7915,6.7066,6.5168,6.2985,6.1831,6.1462,5.8752,5.7018,5.6001,5.5043,5.3244,5.1113,5.0909,5.0048,4.8913,4.8913,4.8913,4.8913,4.8913,4.8737,4.8457,4.8268,4.8008,4.7851,4.7851,4.7558,4.7168,4.6948,4.6582,4.6191,4.5996,4.5644,4.5254,4.5019,4.4609,4.4121,4.3496,4.2832,4.2187,4.1641,4.1328,4.1211,4.1211,4.082,4.0411,4.0215,4.0681,4.1514,4.2837,4.498,4.6308,4.6251,4.69,4.652,4.4364,4.4638,4.4365,4.2995,4.2654,4.1997,4.0885,3.976,3.8864,3.8161,3.791,3.8008,3.8437,3.8672,3.8906,3.916,3.959,3.9824,6.9055,7.1463,7.3245,7.4272,7.3946,7.2615,6.9732,6.7442,6.4103,5.7738,5.5365,5.3482,5.0486,5.2779,5.6294,6.0035,6.4329,6.9049,7.4322,7.5,7.5753,7.7888,7.8088,7.8239,7.8792,7.5849,7.5294,7.8613,7.388,7.1406,7.2722,6.9213,6.6946,6.6531,6.6411,6.6138,6.5543,6.6386,6.5619,6.3205,6.4966,6.408,6.0982,6.0161,5.9531,5.8949,5.7607,5.5905,5.3961,5.3015,5.1417,4.957,4.9121,4.8991,4.8991,4.8933,4.8913,4.8913,4.8913,4.8913,4.8913,4.8913,4.8594,4.8301,4.8301,4.8008,4.7578,4.7207,4.7006,4.6914,4.6504,4.6113,4.582,4.5746,4.5391,4.4883,4.4062,4.3457,4.2755,4.1543,4.125,4.1211,4.1211,4.0859,4.0586,4.0489,4.0215,4.0524,4.2055,4.4579,4.5743,4.4399,4.562,4.5756,4.3915,4.4083,4.4242,4.3995,4.2879,4.2069,4.1731,4.0144,3.9297,3.9297,3.9297,3.9492,3.9902,3.9961,3.998,3.998,4.041,4.041,7.1962,7.382,7.4801,7.5002,7.3644,7.1359,6.8145,6.3651,5.8905,5.4501,5.1272,4.8887,4.7851,5.0762,5.5304,6.1376,6.5735,7.0732,7.7561,7.8114,7.8465,8.0248,8.0047,7.9997,8.0497,7.9555,7.9403,8.0497,7.4072,7.1008,7.3109,6.7722,6.3421,6.0768,6.0262,6.0904,6.2635,6.17,6.185,6.3205,6.2723,6.2156,6.1426,5.855,5.7208,5.6915,5.3536,5.1813,5.1392,5.0897,5.0464,5.0019,4.957,4.9414,4.9375,4.905,4.8913,4.8913,4.8913,4.8913,4.8913,4.8913,4.8855,4.8796,4.8796,4.8437,4.8086,4.8008,4.7734,4.7363,4.6933,4.6714,4.6543,4.584,4.5668,4.543,4.4902,4.3887,4.2812,4.1875,4.1406,4.1211,4.1211,4.1152,4.0937,4.0586,4.043,4.0387,4.0354,4.211,4.381,4.5043,4.5467,4.4879,4.3003,4.2886,4.2314,4.081,4.0499,4.0332,4.029,3.9953,3.9766,3.9766,3.9766,3.9824,3.9902,4.0234,4.041,4.043,4.0859,4.1016,7.3619,7.505,7.5527,7.4901,7.2489,6.8949,6.4178,5.9257,5.4325,4.9558,4.7299,4.6095,4.5844,4.9457,5.3909,5.8252,6.2446,6.7593,7.4523,7.5753,7.731,8.1001,8.1729,8.1393,8.0055,7.9428,7.8414,7.6787,7.1662,6.9572,7.1828,6.5475,6.1087,5.9531,5.8831,5.8905,5.9781,6.0299,6.0091,5.9118,5.9991,5.947,5.7617,5.5786,5.4787,5.4454,5.2403,5.1348,5.1094,5.0683,5.0508,5.043,4.9785,4.9484,4.9473,4.907,4.8913,4.8913,4.8913,4.8913,4.8913,4.8913,4.8913,4.8913,4.8913,4.8757,4.8496,4.8281,4.8066,4.7812,4.7383,4.709,4.6772,4.6426,4.5996,4.5566,4.5117,4.416,4.3223,4.2598,4.1933,4.1504,4.1504,4.1348,4.1094,4.0898,4.0859,4.0781,4.0586,4.1347,4.2031,4.2501,4.358,4.3546,4.1681,4.1716,4.1499,4.0623,4.0605,4.0605,4.0605,4.0605,4.0605,4.0605,4.0605,4.0605,4.0566,4.0762,4.0859,4.0859,4.1113,4.1211,7.4403,7.5628,7.5777,7.4397,7.0958,6.6363,6.0487,5.5365,5.0436,4.5593,4.4313,4.4242,4.4719,4.8134,5.19,5.5039,5.878,6.3776,7.0907,7.3092,7.5632,8.0227,8.2407,8.2073,7.8377,7.8185,7.6796,7.3279,6.9531,6.7808,6.8717,6.3169,5.9865,5.9805,5.8929,5.832,5.7926,5.9522,5.867,5.5449,5.7483,5.6913,5.416,5.3711,5.3262,5.2832,5.2402,5.1973,5.1543,5.1211,5.1016,5.0859,5.0098,4.9805,4.9746,4.9199,4.905,4.9031,4.8933,4.8913,4.8913,4.8913,4.8913,4.8913,4.8913,4.8913,4.8835,4.8437,4.834,4.8242,4.7832,4.7461,4.7104,4.6928,4.6348,4.5683,4.5254,4.4551,4.3828,4.332,4.2598,4.2051,4.1953,4.166,4.1445,4.1445,4.1445,4.1445,4.1328,4.1387,4.1152,4.0391,4.1817,4.2261,4.0779,4.0976,4.1211,4.1211,4.1211,4.1211,4.1211,4.1289,4.1308,4.1211,4.1269,4.1308,4.1211,4.1211,4.1211,4.1211,4.1211,4.1211,7.4139,7.5628,7.5602,7.3418,6.92,6.4279,5.9207,5.303,4.7657,4.5116,4.3438,4.3039,4.5045,4.62,4.8887,5.5114,5.7725,6.1994,7.0681,7.3745,7.5655,7.7299,8.103,8.129,7.5728,7.7371,7.7474,7.4187,7.0012,6.6083,6.2707,6.1127,6.0215,5.9805,5.8929,5.832,5.7926,5.73,5.6633,5.5826,5.573,5.5318,5.4609,5.416,5.373,5.3331,5.2851,5.2402,5.2012,5.1992,5.1738,5.128,5.0859,5.0683,5.0586,4.9766,4.9426,4.9414,4.905,4.8913,4.8913,4.8913,4.8913,4.8913,4.8913,4.8913,4.8894,4.8855,4.8855,4.8737,4.8262,4.8125,4.7891,4.7065,4.6582,4.6133,4.5703,4.5234,4.4648,4.3808,4.3281,4.2832,4.2441,4.2304,4.2265,4.2265,4.2265,4.2168,4.1797,4.207,4.2129,4.168,4.1503,4.1326,4.1152,4.1191,4.1211,4.1211,4.1211,4.1211,4.1211,4.1543,4.1562,4.1211,4.1543,4.1562,4.1211,4.1211,4.1211,4.1211,4.1211,4.1211,7.2767,7.49,7.5025,7.2791,6.8246,6.2847,5.721,5.1247,4.6225,4.3693,4.2359,4.2333,4.4568,4.5422,4.6835,4.9962,5.1041,5.4119,6.1639,6.4005,6.7102,7.2938,7.6039,7.6301,7.2832,7.3506,7.2587,6.8844,6.622,6.4172,6.2598,6.1133,6.0314,6.0158,5.9355,5.8711,5.8262,5.7656,5.7012,5.6308,5.5625,5.5078,5.4668,5.4238,5.3789,5.339,5.3183,5.2851,5.2441,5.2187,5.1973,5.1758,5.1074,5.0801,5.0742,5.0137,4.9746,4.9492,4.9316,4.9082,4.8913,4.8913,4.8913,4.8913,4.8913,4.8913,4.8913,4.8913,4.8913,4.8855,4.8698,4.8223,4.7676,4.7026,4.6601,4.625,4.6094,4.5723,4.5312,4.4961,4.4336,4.3808,4.3652,4.3379,4.3183,4.3183,4.2988,4.2754,4.2598,4.248,4.2461,4.2558,4.2187,4.1816,4.1562,4.1543,4.1445,4.123,4.1211,4.1328,4.1543,4.1699,4.1836,4.1933,4.209,4.209,4.1933,4.1933,4.1933,4.1933,4.1933,4.1933,6.8287,7.0833,7.1468,7.0099,6.5791,6.0524,5.5471,5.0167,4.5573,4.2964,4.1957,4.2181,4.4213,4.5095,4.5726,4.6359,4.6997,4.9581,5.5784,5.7299,6.044,6.7578,7.0027,7.0274,6.8053,6.8653,6.7988,6.5123,6.3846,6.3164,6.3047,6.1582,6.0665,6.0372,5.9629,5.8945,5.848,5.8086,5.75,5.6758,5.6035,5.5469,5.5039,5.4609,5.4238,5.3977,5.3672,5.3379,5.3066,5.2637,5.2305,5.2031,5.1426,5.1113,5.0937,5.0527,5.0176,4.9863,4.9562,4.9316,4.9089,4.8952,4.8913,4.8913,4.8913,4.8913,4.8913,4.8913,4.8913,4.8913,4.8913,4.8366,4.7656,4.7226,4.6797,4.6445,4.6328,4.6074,4.582,4.5703,4.5195,4.4726,4.4609,4.4316,4.4101,4.4101,4.3848,4.3613,4.3476,4.3301,4.3262,4.3457,4.3301,4.291,4.2226,4.2051,4.1855,4.1562,4.1543,4.168,4.1973,4.2226,4.2441,4.2617,4.2871,4.2871,4.2617,4.2734,4.2635,4.2401,4.2655,4.2734,5.9806,6.2446,6.4013,6.4717,6.1173,5.6893,5.4276,4.9866,4.5673,4.3467,4.2562,4.2688,4.4288,4.5095,4.5602,4.5947,4.7729,5.0866,5.607,5.6814,5.8025,6.1205,6.3495,6.3652,6.076,6.3223,6.4961,6.488,6.414,6.3496,6.3047,6.2168,6.1308,6.0449,5.9629,5.8945,5.848,5.8086,5.7637,5.7207,5.6777,5.6348,5.5845,5.5488,5.5293,5.5234,5.4394,5.3972,5.3984,5.3535,5.2901,5.209,5.207,5.1797,5.1319,5.0957,5.0801,5.0664,4.9824,4.9531,4.9453,4.905,4.8913,4.8913,4.8913,4.8913,4.8913,4.8913,4.8913,4.8913,4.8913,4.8535,4.8086,4.7676,4.7246,4.6772,4.6387,4.6289,4.6172,4.5805,4.5664,4.5527,4.5098,4.4977,4.4977,4.4977,4.4957,4.4863,4.4433,4.4746,4.4801,4.4433,4.4746,4.4473,4.3183,4.2676,4.2382,4.2382,4.2382,4.2382,4.2382,4.3242,4.3496,4.3127,4.3926,4.3945,4.3066,4.3496,4.3262,4.2401,4.3301,4.3476,5.4884,5.8653,6.1438,5.9041,5.7242,5.5065,5.1206,4.8234,4.5573,4.2989,4.2338,4.2562,4.3815,4.4518,4.5349,4.6798,4.7861,4.9392,5.1823,5.4063,5.6374,5.8917,6.3328,6.5882,6.491,6.5176,6.5234,6.4941,6.3846,6.3047,6.2598,6.1777,6.1015,6.0449,5.9865,5.9414,5.9004,5.8262,5.7847,5.7637,5.6621,5.5918,5.5508,5.5371,5.498,5.4433,5.4473,5.4316,5.3914,5.3223,5.2754,5.2461,5.1855,5.1514,5.1358,5.1289,5.1055,5.0723,5.0176,4.9785,4.9406,4.905,4.8913,4.8913,4.8913,4.8913,4.8913,4.8913,4.8913,4.8913,4.8913,4.8535,4.8164,4.8047,4.7676,4.7344,4.7207,4.7168,4.7129,4.7012,4.6973,4.6836,4.6406,4.6562,4.668,4.6367,4.6031,4.5859,4.5723,4.5312,4.5078,4.5254,4.5117,4.4746,4.4043,4.3848,4.3633,4.332,4.3301,4.3437,4.3769,4.4043,4.4258,4.4414,4.4687,4.4687,4.4414,4.4551,4.4473,4.4177,4.4473,4.4375,4.9878,5.307,5.5839,5.4368,5.3385,5.2087,4.9429,4.733,4.5321,4.2989,4.2019,4.2044,4.3526,4.3266,4.3529,4.5663,4.6456,4.7713,5.0313,5.1975,5.3876,5.6325,6.099,6.4101,6.4433,6.4726,6.4824,6.4646,6.3612,6.2812,6.2422,6.1719,6.1035,6.0449,6.0039,5.959,5.918,5.832,5.7926,5.7906,5.6719,5.5957,5.5547,5.539,5.5019,5.4512,5.4453,5.4375,0.0,5.3496,5.3008,5.2656,5.2129,5.167,5.1377,5.1377,5.1221,5.0976,5.0566,5.0234,4.9902,4.9316,4.905,4.8913,4.8913,4.8913,4.8913,4.8913,4.8913,4.8913,4.8913,4.8698,4.8418,4.8242,4.8008,4.7773,4.7617,4.7578,4.7578,4.7578,4.7578,4.75,4.7226,4.7402,4.748,4.7207,4.6953,4.6777,4.6777,4.6172,4.5918,4.6348,4.6016,4.5703,4.5605,4.5,4.4512,4.4219,4.4199,4.4336,4.4629,4.4785,4.5,4.5273,4.543,4.543,4.5273,4.5117,4.5153,4.5508,4.5133,4.498,0.0,4.6441,4.8294,5.029,4.9473,4.8236,4.8416,4.6858,0.0,4.3341,4.1765,4.1316,4.3508,4.1775,4.0876,4.3608,4.4358,4.6252,5.0979,5.0835,5.1286,5.4129,5.748,5.9824,6.049,6.2461,6.3848,6.4199,6.3437,6.2812,6.2363,6.1894,6.1251,6.0449,6.0039,5.959,5.918,5.8375,5.791,5.7906,5.7031,5.6387,5.5865,5.5527,5.5312,5.5215,5.4414,5.4297,5.459,5.4121,5.3457,5.2695,5.2637,5.2129,5.1377,5.1377,5.1377,5.1319,5.0957,5.0801,5.0664,4.9758,4.9238,4.8952,4.8913,4.8913,4.8913,4.8913,4.8913,4.8913,4.8913,4.8913,4.8796,4.834,4.8262,4.8144,4.7754,4.7676,4.7676,4.7676,4.7676,4.7656,4.7637,4.7656,4.7656,4.7637,4.7617,4.7617,4.7617,4.7246,4.7129,4.7539,4.7226,4.7148,4.7539,4.6133,4.5153,4.5153,4.5153,4.5153,4.5153,4.5586,4.5844,4.5805,4.6113,4.6133,4.5762,4.5351,4.5566,4.6328,4.5527,4.5351,4.3516,0.0,4.5723,4.4135,4.4988,4.5957,0.0,4.4568,4.3966,4.3165,4.2008,4.1941,4.4611,4.2815,4.2773,4.8549,4.8459,4.8287,5.0026,5.2207,5.4899,5.8493,6.1368,6.293,6.2461,6.3143,6.3574,6.334,6.2812,6.2344,6.1894,6.1484,6.0976,6.0449,6.0039,5.959,5.918,5.8652,5.8203,5.7906,5.7324,5.666,5.5885,5.5787,5.543,5.4824,5.4609,5.4394,5.4121,5.334,5.2891,5.2637,5.1992,5.1553,5.1377,5.1377,5.1377,5.1319,5.0957,5.0801,5.0664,4.9758,4.9453,4.9297,4.9011,4.8913,4.8913,4.8913,4.8913,4.8913,4.8913,4.8913,4.8874,4.8776,4.8757,4.8718,4.862,4.86,4.86,4.86,4.86,4.8503,4.8125,4.834,4.8483,4.8105,4.8066,4.8066,4.8066,4.7695,4.7461,4.7578,4.748,4.7461,4.7578,4.7207,4.6973,4.6973,4.6973,4.6973,4.6973,4.707,4.6973,4.6641,4.6426,4.6406,4.6641,4.6479,4.6538,4.6733,4.6538,4.6367,4.3014,4.4245,4.5094,4.3325,4.418,4.5271,4.4367,4.3589,4.3065,4.3014,4.1706,4.1453,4.4227,4.2254,4.1888,4.7191,4.7226,4.7639,5.0631,5.3876,5.7081,6.0074,6.1836,6.2988,6.3281,6.3164,6.2988,6.2754,6.2305,6.1894,6.1426,6.1015,6.0548,6.0156,5.9746,5.9414,5.918,5.8555,5.8141,5.7906,5.7031,5.6289,5.5592,5.5592,5.5176,5.4394,5.459,5.4433,5.3933,5.3281,5.2891,5.2637,5.1992,5.1601,5.1377,5.1377,5.1377,5.1358,5.1172,5.084,5.0449,4.998,4.9551,4.918,4.8972,4.8913,4.8913,4.8913,4.8913,4.8913,4.8913,4.8913,4.8913,4.8913,4.8913,4.8913,4.8913,4.8913,4.8913,4.8913,4.8913,4.8835,4.8535,4.8757,4.8815,4.8535,4.8496,4.8496,4.8496,4.8125,4.7949,4.819,4.7988,4.7949,4.819,4.8209,4.8053,4.7643,4.7578,4.7578,4.7578,4.7578,4.7461,4.7226,4.7012,4.6992,4.7226,4.7226,4.7226,4.7226,4.7226,4.7109,4.3316,4.4547,4.5522,4.4593,4.4869,4.5171,4.4518,4.324,4.2336,4.2889,4.151,4.0942,4.3441,4.1452,4.0615,4.4137,4.4845,4.6844,5.2215,5.5448,5.8002,6.007,6.084,6.1719,6.3164,6.2715,6.2305,6.2305,6.1836,6.1484,6.1094,6.0625,6.0156,5.9805,5.9414,5.9196,5.9062,5.8375,5.791,5.7808,5.666,5.5879,5.539,5.5332,5.4883,5.4141,5.4453,5.4375,5.3933,5.3476,5.3047,5.2656,5.2168,5.1758,5.1377,5.1377,5.1377,5.1377,5.1377,5.0918,5.0273,5.0195,4.9676,4.8991,4.8933,4.8952,4.9011,4.9011,4.8952,4.8913,4.8913,4.8913,4.8913,4.8913,4.8913,4.8913,4.8913,4.8913,4.8913,4.8913,4.8913,4.8913,4.8913,4.8913,4.8913,4.8913,4.8913,4.8913,4.8913,4.8535,4.8457,4.8855,4.8535,4.8457,4.8874,4.8913,4.86,4.7858,4.7773,4.7773,4.7773,4.7715,4.7676,4.7676,4.7617,4.7617,4.7676,4.7676,4.7676,4.7676,4.7676,4.7637,4.4719,4.5974,4.6271,4.384,4.3991,4.4493,4.3463,4.2688,4.2336,4.2889,4.2396,4.2337,4.3979,4.2844,4.2794,4.6406,4.8032,5.0342,5.4586,5.5769,5.7054,5.959,6.0918,6.1601,6.1484,6.166,6.1836,6.1836,6.1426,6.1152,6.1094,6.0332,5.9863,5.9805,5.9414,5.9004,5.8597,5.8476,5.8011,5.7305,5.7109,5.6601,5.5767,5.5469,5.5039,5.457,5.4258,5.4082,5.3914,5.3144,5.2773,5.2637,5.1836,5.1436,5.1377,5.1377,5.1377,5.1377,5.1377,5.1113,5.0644,5.0293,4.9844,4.9355,4.9011,4.9121,4.9433,4.9433,4.916,4.8913,4.8913,4.8913,4.8913,4.8913,4.8913,4.8913,4.8913,4.8913,4.8913,4.8913,4.8913,4.8913,4.8913,4.8913,4.8913,4.8913,4.8913,4.8913,4.8913,4.8855,4.8835,4.8894,4.8855,4.8835,4.8894,4.8913,4.8855,4.8718,4.8698,4.8698,4.8698,4.8301,4.8105,4.8105,4.7754,4.7754,4.8105,4.8105,4.8105,4.8105,4.8105,4.793,4.3944,4.5171,4.5924,4.4669,4.4477,4.4151,4.2168,4.061,3.993,4.1158,4.1011,4.1235,4.3234,4.3769,4.5026,4.8404,4.9893,5.1497,5.4112,5.5274,5.6816,5.918,6.0215,6.0976,6.1719,6.1719,6.1601,6.1367,6.1191,6.0898,6.0449,6.0039,5.959,5.9121,5.8945,5.8496,5.7777,5.7777,5.7617,5.7207,5.6504,5.5976,5.5586,5.5156,5.4726,5.4316,5.407,5.3887,5.3594,5.2734,5.2383,5.2305,5.168,5.1377,5.1377,5.1377,5.1377,5.1377,5.1377,5.1016,5.0469,5.0508,5.0078,4.9484,4.9551,4.9551,4.9523,4.9805,4.9551,4.9219,4.9219,4.9043,4.8913,4.8913,4.8913,4.8913,4.8913,4.8913,4.8913,4.8913,4.8913,4.8913,4.8913,4.8913,4.8913,4.8913,4.8913,4.8913,4.8913,4.8913,4.8913,4.8913,4.8913,4.8913,4.8913,4.8913,4.8913,4.8913,4.8913,4.8913,4.8913,4.8718,4.86,4.86,4.8424,4.8405,4.86,4.86,4.86,4.86,4.86,4.8503,4.3693,4.4407,4.5147,4.5433,4.5176,4.4491,4.3029,4.0737,3.9462,4.1501,4.1196,4.111,4.276,4.4737,4.7063,4.9995,5.161,5.293,5.4289,5.582,5.7578,5.9531,6.0039,6.0801,6.2246,6.1953,6.1543,6.1133,6.0976,6.0625,5.9863,5.9707,5.9297,5.8535,5.848,5.807,5.7226,5.7109,5.707,5.7051,5.6074,5.5508,5.5293,5.498,5.4531,5.3972,5.3926,5.3672,5.3351,5.2441,5.209,5.2031,5.1601,5.1377,5.1377,5.1377,5.1377,5.1377,5.1377,5.0937,5.0371,5.0703,5.0293,4.9746,5.0078,5.0019,4.9902,5.0234,5.0078,4.9758,4.9707,4.9355,4.907,4.907,4.907,4.9031,4.8933,4.8913,4.8913,4.8913,4.8913,4.8913,4.8913,4.8913,4.8913,4.8913,4.8913,4.8913,4.8913,4.8913,4.8913,4.8913,4.8913,4.8913,4.8913,4.8913,4.8913,4.8913,4.8913,4.8913,4.8913,4.8913,4.8913,4.8913,4.8913,4.8913,4.8913,4.8913,4.8913,4.8913,4.8913,4.8913,4.5648,4.4957,4.4089,4.5241,4.5488,4.605,4.8402,4.6045,4.4103,4.6797,4.5777,4.4235,4.3581,4.5954,4.8718,5.0953,5.3703,5.6055,5.7417,5.8727,6.0039,6.1367,6.1543,6.1777,6.2363,6.1953,6.1543,6.1133,6.0723,6.0273,5.9824,5.9453,5.9004,5.8535,5.848,5.807,5.7226,5.6816,5.6621,5.6621,5.6543,5.6074,5.5312,5.5273,5.4824,5.3953,5.3594,5.3449,5.3351,5.2441,5.209,5.2031,5.1601,5.1377,5.1377,5.1377,5.1377,5.1377,5.1377,5.1133,5.0762,5.0801,5.0508,5.0137,5.0176,5.043,5.0723,5.0762,5.0742,5.0625,5.0234,4.9805,4.9473,4.9473,4.9473,4.9355,4.8991,4.8913,4.8913,4.8913,4.8913,4.8913,4.8913,4.8913,4.8913,4.8913,4.8913,4.8913,4.8913,4.8913,4.8913,4.8913,4.8913,4.8913,4.8913,4.8913,4.8913,4.8913,4.8913,4.8913,4.8913,4.8913,4.8913,4.8913,4.8913,4.8913,4.8913,4.8913,4.8913,4.8913,4.8913,4.8913,4.4568,4.5027,4.5588,4.6701,4.634,4.5947,4.6906,4.5064,4.3929,4.6528,4.5739,4.4926,4.6198,4.8277,5.0625,5.3066,5.5527,5.7598,5.8887,5.969,6.0431,6.125,6.1543,6.166,6.1621,6.1426,6.1035,6.0332,6.0156,5.9863,5.9453,5.9004,5.8594,5.8144,5.7851,5.7422,5.6836,5.6387,5.6172,5.6172,5.5644,5.5234,5.4902,5.4629,5.418,5.3594,5.3144,5.2949,5.2891,5.2031,5.1836,5.2031,5.1601,5.1377,5.1377,5.1377,5.1377,5.1377,5.1377,5.1152,5.0859,5.1113,5.0918,5.0625,5.0879,5.0879,5.0859,5.1113,5.082,5.0449,5.0547,5.0254,4.9941,4.9941,4.9941,4.9805,4.9375,4.9277,4.9199,4.8952,4.8913,4.8913,4.8913,4.8913,4.8913,4.8913,4.8913,4.8913,4.8913,4.8913,4.8913,4.8913,4.8913,4.8913,4.8913,4.8913,4.8913,4.8913,4.8913,4.8913,4.8913,4.8913,4.8913,4.8913,4.8913,4.8913,4.8913,4.8913,4.8913,4.8913,4.8913,4.8913,4.3901,4.4141,4.4622,4.6099,4.6212,4.6133,4.6932,4.5536,4.4967,4.8143,4.7417,4.6758,4.8516,5.0234,5.209,5.4141,5.6504,5.8535,5.9805,6.0099,6.0449,6.1035,6.1211,6.1191,6.0918,6.0898,6.0566,5.9863,5.9805,5.9629,5.9235,5.8769,5.832,5.7926,5.7305,5.6816,5.6387,5.582,5.5547,5.5527,5.4824,5.4551,5.4668,5.4375,5.3906,5.339,5.2891,5.2637,5.2461,5.1738,5.1601,5.1855,5.1543,5.1377,5.1377,5.1377,5.1377,5.1377,5.1377,5.125,5.1055,5.1299,5.1182,5.1055,5.1299,5.123,5.1055,5.1299,5.1016,5.0644,5.0937,5.0683,5.0371,5.0371,5.0371,5.0254,4.9824,4.9726,4.9648,4.9382,4.9324,4.9324,4.9324,4.9324,4.9324,4.9324,4.916,4.9062,4.9062,4.8991,4.8913,4.8913,4.8913,4.8913,4.8913,4.8913,4.8913,4.8913,4.8913,4.8913,4.8913,4.8913,4.8913,4.8913,4.8913,4.8913,4.8913,4.8913,4.8913,4.8913,4.8913,4.8913,4.4062,4.2311,4.0484,4.2818,4.4797,4.6949,4.9763,4.8573,4.8085,5.259,5.1738,5.0262,5.0262,5.1601,5.3027,5.3906,5.6509,5.8929,6.0197,6.0041,6.0098,6.0976,6.0683,6.0372,6.0372,6.0372,6.0216,5.9824,5.9805,5.9629,5.918,5.8769,5.832,5.7926,5.7031,5.6367,5.5885,5.5098,5.4668,5.4668,5.4219,5.4258,5.4668,5.4668,5.425,5.339,5.2891,5.2461,5.2051,5.1621,5.1397,5.1377,5.1377,5.1377,5.1377,5.1377,5.1377,5.1377,5.1377,5.1377,5.1377,5.1377,5.1377,5.1377,5.1377,5.1377,5.1377,5.1377,5.1377,5.1377,5.1377,5.1113,5.082,5.082,5.082,5.0703,5.0273,5.0243,5.0176,5.0176,5.0176,5.0176,5.0176,5.0176,5.0176,5.0176,4.9805,4.9484,4.9484,4.9141,4.8913,4.8913,4.8913,4.8913,4.8913,4.8913,4.8913,4.8913,4.8913,4.8913,4.8913,4.8913,4.8913,4.8913,4.8913,4.8913,4.8913,4.8913,4.8913,4.8913,4.8913,4.8913,4.3777,4.3061,4.3043,4.4323,4.49,4.624,5.0422,5.0348,5.0178,5.2872,5.3133,5.2891,5.2891,5.4023,5.5058,5.528,5.7094,5.8831,5.9863,5.9883,5.9982,6.0566,6.0508,6.0275,6.0039,5.998,5.9805,5.9414,5.9355,5.918,5.8714,5.832,5.7851,5.7422,5.6582,5.6055,5.5885,5.4785,5.4219,5.4219,5.3457,5.3496,5.4219,5.4219,5.373,5.2891,5.2754,5.2461,5.207,5.1933,5.1719,5.1377,5.1377,5.1377,5.1377,5.1377,5.1377,5.1377,5.1377,5.1377,5.1377,5.1377,5.1377,5.1377,5.1377,5.1377,5.1377,5.1377,5.1377,5.1377,5.1377,5.1299,5.125,5.125,5.125,5.1133,5.0703,5.0625,5.0527,5.0234,5.0176,5.0176,5.0176,5.0176,5.0176,5.0176,5.0058,4.9883,4.9523,4.9668,4.9597,4.8972,4.9141,4.9336,4.9336,4.9336,4.9453,4.9766,4.9785,4.9558,4.8933,4.8913,4.8913,4.8913,4.8913,4.8913,4.8913,4.8913,4.8913,4.8913,4.8913,4.8913,4.3215,4.2513,4.2301,4.4096,4.5477,4.7506,5.1535,5.2559,5.3157,5.5044,5.5215,5.5039,5.5039,5.5527,5.5943,5.6172,5.75,5.8828,5.9687,5.9648,5.9707,6.0099,6.0039,5.9807,5.959,5.957,5.9394,5.8945,5.8945,5.8711,5.8301,5.7695,5.7226,5.6973,5.5976,5.5351,5.5124,5.4238,5.3672,5.3496,5.2969,5.2988,5.3465,5.3465,5.3125,5.2461,5.2266,5.2051,5.1816,5.1816,5.166,5.1377,5.1377,5.1377,5.1377,5.1377,5.1377,5.1377,5.1377,5.1377,5.1377,5.1377,5.1377,5.1377,5.1377,5.1377,5.1377,5.1377,5.1377,5.1377,5.1377,5.1377,5.1377,5.1377,5.1377,5.1319,5.1113,5.1055,5.0976,5.0723,5.0683,5.0683,5.0683,5.0683,5.0683,5.0683,5.0527,5.0273,4.9844,5.0019,5.0028,4.948,4.9629,4.9785,4.9785,4.9785,4.9902,5.0156,5.0019,4.9766,4.9441,4.9265,4.9043,4.8913,4.8913,4.8913,4.8913,4.8913,4.8913,4.8913,4.9043,4.9023,4.2771,4.1482,4.0019,4.306,4.6784,5.0372,5.3083,5.4961,5.6548,5.807,5.7558,5.6816,5.6777,5.6465,5.6348,5.6699,5.7793,5.8831,5.9629,5.9414,5.9353,5.9707,5.9414,5.918,5.918,5.9177,5.8945,5.8519,5.8476,5.8262,5.7867,5.7031,5.6562,5.6523,5.5293,5.4433,5.3992,5.3516,5.3097,5.2656,5.2617,5.2598,5.2598,5.2676,5.248,5.2051,5.1621,5.1377,5.1377,5.1377,5.1377,5.1377,5.1377,5.1358,5.1319,5.1319,5.1299,5.1328,5.1319,5.1319,5.1338,5.1377,5.1377,5.1377,5.1377,5.1377,5.1377,5.1377,5.1377,5.1377,5.1377,5.1377,5.1377,5.1377,5.1377,5.1377,5.1377,5.1377,5.1377,5.1377,5.1377,5.1377,5.1377,5.1377,5.1377,5.1377,5.1113,5.0703,5.0293,5.0273,5.0273,5.0243,5.0215,5.0234,5.0234,5.0234,5.0254,5.0293,4.9922,4.9863,5.0215,4.9785,4.9336,4.8972,4.9011,4.9011,4.8972,4.9011,4.9031,4.9031,4.9394,4.9336,4.4066,4.3428,4.3673,4.5687,5.0092,5.4296,5.5613,5.6973,5.7836,5.7558,5.8086,5.8535,5.8128,5.832,5.8418,5.8144,5.8652,5.9121,5.9297,5.9238,5.9238,5.9297,5.9238,5.918,5.918,5.8887,5.8597,5.8535,5.8203,5.7847,5.7383,5.6855,5.6426,5.6074,5.4844,5.4121,5.3972,5.291,5.2305,5.2207,5.1875,5.165,5.167,5.2402,5.248,5.2051,5.1621,5.1377,5.1377,5.1377,5.1377,5.1377,5.1377,5.123,5.0937,5.0937,5.0723,5.0488,5.082,5.0937,5.0996,5.1328,5.1377,5.1377,5.1377,5.1377,5.1377,5.1377,5.1377,5.1377,5.1377,5.1377,5.1377,5.1377,5.1377,5.1377,5.1377,5.1377,5.1377,5.1377,5.1377,5.1377,5.1377,5.1377,5.1377,5.1377,5.1348,5.1152,5.0723,5.0957,5.0898,5.0254,5.0469,5.0664,5.0664,5.0664,5.082,5.1133,5.1026,5.0918,5.0683,4.9941,4.9492,4.9394,4.9726,4.9726,4.9375,4.9726,4.9902,4.9902,5.0,4.9805,4.2664,4.2967,4.4452,4.8638,5.2832,5.6152,5.7012,5.8027,5.8711,5.8262,5.8711,5.9121,5.8887,5.9023,5.9121,5.8887,5.9023,5.918,5.918,5.918,5.918,5.918,5.918,5.9121,5.8887,5.8652,5.8304,5.7894,5.7676,5.7265,5.664,5.6211,5.5683,5.4987,5.416,5.3516,5.3105,5.2422,5.1973,5.1777,5.1543,5.1377,5.1397,5.1845,5.1973,5.1758,5.1523,5.126,5.1133,5.1133,5.1133,5.1133,5.1133,5.1113,5.1074,5.0879,5.0801,5.0781,5.0801,5.0937,5.1133,5.1319,5.1377,5.1377,5.1377,5.1377,5.1377,5.1377,5.1377,5.1377,5.1377,5.1582,5.1699,5.1436,5.1377,5.1377,5.1377,5.1377,5.1377,5.1377,5.1377,5.1377,5.1377,5.1377,5.1377,5.1377,5.1377,5.1299,5.1133,5.124,5.1221,5.082,5.0976,5.1113,5.1113,5.1113,5.1191,5.1377,5.125,5.1133,5.1113,5.0488,5.0039,4.9844,5.0058,5.0058,4.9844,5.0058,5.0176,5.0176,5.0391,5.0137,4.0913,4.2443,4.5137,5.1289,5.4824,5.6992,5.775,5.8555,5.918,5.918,5.918,5.918,5.9062,5.9121,5.9121,5.902,5.9062,5.918,5.9062,5.9121,5.918,5.918,5.9121,5.8945,5.8538,5.8301,5.7836,5.7168,5.6973,5.6582,5.5806,5.5351,5.4765,5.3992,5.3457,5.2843,5.209,5.2012,5.1758,5.1328,5.1328,5.1328,5.1328,5.1358,5.1377,5.1377,5.1319,5.1133,5.0801,5.0723,5.0703,5.0703,5.0703,5.0859,5.1026,5.0801,5.0879,5.1026,5.0879,5.1035,5.128,5.1358,5.1377,5.1377,5.1377,5.1377,5.1397,5.1523,5.1543,5.1562,5.1592,5.1914,5.209,5.1641,5.1543,5.1523,5.1397,5.1377,5.1377,5.1377,5.1377,5.1377,5.1377,5.1377,5.1416,5.1523,5.1543,5.1543,5.1543,5.1543,5.1475,5.1397,5.1377,5.1377,5.1377,5.1377,5.1377,5.1377,5.1113,5.1074,5.1358,5.1094,5.0742,5.0391,5.0391,5.0351,5.0293,5.0351,5.0391,5.041,5.0762,5.0488,4.1552,4.5046,4.9336,5.248,5.556,5.7769,5.7851,5.8555,5.918,5.918,5.918,5.9062,5.8655,5.8945,5.8945,5.8219,5.8727,5.9062,5.8652,5.8945,5.918,5.918,5.8828,5.8594,5.8535,5.75,5.6797,5.668,5.5976,5.5508,5.539,5.4629,5.4089,5.3992,5.2871,5.2207,5.209,5.1719,5.1308,5.0898,5.0898,5.0898,5.0898,5.1221,5.1377,5.1358,5.1035,5.0859,5.0781,5.041,5.0273,5.0273,5.0273,5.0058,4.9824,5.0137,5.0058,4.9836,5.0566,5.084,5.0957,5.1308,5.1377,5.1377,5.1377,5.1377,5.1455,5.1894,5.1992,5.209,5.2441,5.2578,5.2519,5.209,5.1992,5.1894,5.1475,5.1377,5.1377,5.1377,5.1377,5.1377,5.1377,5.1377,5.1562,5.1933,5.1992,5.1992,5.1992,5.1992,5.1855,5.1416,5.1377,5.1377,5.1377,5.1377,5.1377,5.1377,5.1338,5.1319,5.1377,5.1338,5.128,5.1221,5.1221,5.1094,5.0723,5.1094,5.1221,5.1221,5.128,5.1094,4.3069,4.6148,4.9414,5.3437,5.5625,5.6973,5.775,5.8379,5.8769,5.8496,5.8493,5.8493,5.848,5.8476,5.8375,5.7984,5.8203,5.8379,5.8203,5.832,5.8493,5.8493,5.8262,5.7969,5.748,5.6914,5.6387,5.5898,5.5293,5.4844,5.4609,5.3984,5.3437,5.2949,5.2383,5.1855,5.1367,5.1172,5.0859,5.0449,5.0449,5.0449,5.0449,5.0644,5.0723,5.0742,5.1035,5.0742,5.0098,5.0156,5.0039,4.9805,4.9805,4.9844,4.9922,5.0098,5.0215,5.0293,5.0683,5.0957,5.1191,5.1319,5.1377,5.1377,5.1377,5.1377,5.1523,5.1953,5.209,5.2187,5.2598,5.2891,5.2969,5.2539,5.2441,5.2324,5.1894,5.1601,5.1377,5.1377,5.1377,5.1377,5.1377,5.1377,5.1455,5.168,5.1933,5.209,5.209,5.2285,5.2363,5.2168,5.1933,5.1797,5.1797,5.1582,5.1377,5.1377,5.1377,5.1377,5.1377,5.1377,5.1377,5.1377,5.1377,5.1299,5.1152,5.1299,5.1377,5.1377,5.1377,5.1211,4.3086,4.5547,4.791,5.2656,5.4648,5.5728,5.709,5.791,5.8262,5.7984,5.7926,5.7984,5.8144,5.8027,5.7847,5.7632,5.7769,5.7793,5.7613,5.7769,5.7867,5.7769,5.7652,5.7246,5.6504,5.6133,5.5625,5.4863,5.4414,5.4043,5.3711,5.3281,5.2784,5.2109,5.1973,5.1562,5.082,5.0586,5.0371,5.0176,5.0058,5.0019,5.0019,5.0137,5.0058,4.993,5.0625,5.0362,4.9504,4.9746,4.9648,4.9355,4.9355,4.9551,4.991,4.998,5.0215,5.0508,5.0723,5.1016,5.124,5.1358,5.1377,5.1377,5.1377,5.1455,5.168,5.2129,5.2324,5.25,5.293,5.3281,5.3418,5.2988,5.2871,5.2734,5.2187,5.1738,5.1416,5.1582,5.1455,5.1377,5.1377,5.1377,5.1416,5.1582,5.1875,5.2129,5.2226,5.2519,5.2676,5.2558,5.2266,5.209,5.209,5.168,5.1436,5.1582,5.1484,5.1377,5.1377,5.1377,5.1377,5.1377,5.1377,5.1377,5.1377,5.1377,5.1377,5.1377,5.1377,5.1221,4.0156,4.2637,4.541,4.8899,5.1943,5.4402,5.5689,5.6992,5.791,5.7926,5.7926,5.7734,5.7344,5.7598,5.7652,5.6777,5.7324,5.7632,5.6758,5.7398,5.7715,5.7285,5.6894,5.6465,5.5963,5.4811,5.3965,5.3546,5.3066,5.2793,5.2773,5.2383,5.2129,5.209,5.168,5.125,5.0801,5.0,4.9785,5.0176,4.9766,4.9523,4.9523,5.0,4.9773,4.8991,4.9433,4.9543,4.9445,4.9101,4.8952,4.8933,4.8933,4.8952,4.9031,4.9414,4.9523,4.9707,5.0527,5.082,5.0898,5.1308,5.1377,5.1377,5.1377,5.1719,5.2129,5.2558,5.2969,5.3449,5.3848,5.3933,5.3887,5.3488,5.3371,5.3155,5.2266,5.1738,5.1514,5.1973,5.1719,5.1377,5.1377,5.1377,5.1582,5.1992,5.207,5.2226,5.2617,5.2695,5.2558,5.2148,5.209,5.209,5.209,5.168,5.1601,5.2031,5.166,5.1377,5.1377,5.1377,5.1377,5.1377,5.1377,5.1377,5.1377,5.1377,5.1377,5.1377,5.1377,5.1377,4.043,4.2012,4.4101,4.8125,5.0351,5.2031,5.3867,5.5293,5.623,5.623,5.6445,5.6582,5.6426,5.6523,5.6523,5.6211,5.6191,5.6015,5.5449,5.5859,5.6055,5.5644,5.5703,5.5488,5.4733,5.4245,5.373,5.2988,5.2539,5.2305,5.2305,5.1894,5.1543,5.1269,5.1113,5.0683,5.0,4.9394,4.9226,4.9382,4.9226,4.9101,4.9101,4.9304,4.9206,4.8913,4.907,4.9101,4.9101,4.9238,4.9121,4.8913,4.8913,4.8913,4.8952,4.9355,4.9484,4.9601,5.0508,5.0801,5.0879,5.124,5.1377,5.1377,5.1377,5.1543,5.1405,5.0328,5.0104,5.0434,5.1103,5.1288,5.1589,5.3033,5.341,5.3331,5.3019,5.2129,5.1436,5.1641,5.1494,5.1377,5.1377,5.1377,5.1436,5.1641,5.1914,5.2129,5.2285,5.2539,5.2754,5.294,5.2656,5.248,5.248,5.209,5.1797,5.168,5.1475,5.1562,5.1836,5.1855,5.1855,5.1855,5.2109,5.2129,5.1855,5.1855,5.1992,5.2246,5.1973,5.1855,4.0018,4.082,4.2422,4.6914,4.8144,4.9101,5.2383,5.3594,5.418,5.4765,5.5332,5.5723,5.5723,5.5436,5.5338,5.5631,5.5488,5.5156,5.4746,5.4922,5.4941,5.4512,5.457,5.4375,5.3652,5.3457,5.3066,5.2344,5.2031,5.1855,5.1855,5.1445,5.1035,5.0605,5.0449,5.0098,4.9484,4.9082,4.8913,4.8913,4.8913,4.8913,4.8913,4.8913,4.8913,4.8913,4.8913,4.8913,4.8933,4.918,4.9121,4.8913,4.8913,4.8913,4.8933,4.9199,4.9297,4.9414,5.0137,5.0469,5.052,4.9971,4.9956,4.9904,4.8934,4.944,4.9802,4.7697,4.7862,4.8847,4.9618,5.0474,5.1575,5.3227,5.3527,5.341,5.341,5.2578,5.1855,5.1855,5.1738,5.1601,5.1416,5.1377,5.1377,5.1377,5.168,5.1973,5.2266,5.2539,5.2871,5.3371,5.3105,5.293,5.293,5.2402,5.2012,5.1875,5.1738,5.1777,5.207,5.2226,5.2285,5.2285,5.2558,5.2637,5.2569,5.2363,5.2441,5.2695,5.2422,5.2285,0.0,0.0,0.0,4.5,4.5234,4.5762,5.1211,5.1836,5.1728,5.3504,5.457,5.5176,5.5234,5.457,5.4226,5.5098,5.5234,5.5078,5.4668,5.4609,5.4473,5.3972,5.3594,5.3214,5.2734,5.2324,5.1894,5.1416,5.1377,5.1377,5.1358,5.0996,5.0586,5.0176,4.9746,4.9465,4.9465,4.9128,4.8913,4.8913,4.8913,4.8913,4.8913,4.8913,4.8913,4.8913,4.8913,4.8913,4.8913,4.8913,4.8913,4.8913,4.8913,4.8913,4.8913,4.8913,4.8913,4.8972,4.9282,4.9663,4.9692,4.7363,4.6893,4.6769,4.4127,4.5442,4.7359,4.4965,4.6527,4.9102,4.969,5.1894,5.3992,5.3992,5.3711,5.3449,5.3429,5.3047,5.2734,5.2695,5.2363,5.1953,5.1475,5.1397,5.1397,5.1397,5.1397,5.1758,5.2578,5.2695,5.2871,5.3371,5.341,5.341,5.339,5.2578,5.2266,5.2656,5.2305,5.209,5.2109,5.2519,5.2734,5.2734,5.2734,5.2949,5.341,5.293,5.2734,5.2754,5.2734,5.2715,3.9531,0.0,0.0,0.0,0.0,0.0,4.6133,4.6992,4.8027,5.0703,5.1426,5.207,5.3613,5.3711,5.3516,5.3437,5.3418,5.3281,5.2871,5.3066,5.3105,5.2676,5.2773,5.2715,5.2305,5.2148,5.1894,5.1416,5.1377,5.126,5.0996,5.0273,4.9824,4.9707,4.9277,4.9089,4.9089,4.8972,4.8913,4.8913,4.8913,4.8913,4.8913,4.8913,4.8913,4.8913,4.8913,4.8913,4.8913,4.8913,4.8913,4.8913,4.8913,4.8913,4.8913,4.8913,4.8913,4.8675,4.7234,4.6959,4.6864,4.4661,4.4175,4.4279,4.3521,4.3891,4.4159,4.1885,4.3431,4.6423,4.9437,5.2345,5.4512,5.4512,5.4414,5.4238,5.3906,5.375,5.3379,5.2441,5.2168,5.2051,5.1914,5.1641,5.1543,5.1855,5.1914,5.1992,5.2226,5.2519,5.2871,5.3371,5.341,5.3273,5.291,5.2676,5.2461,5.2266,5.2148,5.2363,5.3038,5.3175,5.3234,5.3234,5.3496,5.3574,5.341,5.3292,5.334,5.3602,5.334,5.3008,0.0,0.0,0.0,4.1797,0.0,0.0,4.457,4.4883,4.5433,4.8242,4.9101,4.9902,5.1748,5.208,5.207,5.2168,5.2031,5.2012,5.2305,5.2402,5.2363,5.2109,5.2129,5.207,5.1836,5.1816,5.1699,5.1397,5.1377,5.1172,5.0586,4.9902,4.9433,4.9258,4.9031,4.8913,4.8913,4.8913,4.8913,4.8913,4.8913,4.8913,4.8913,4.8913,4.8913,4.8913,4.8913,4.8913,4.8913,4.8913,4.8913,4.8913,4.8913,4.8913,4.8933,4.9062,4.8335,4.7149,4.6195,4.527,4.4085,4.1824,4.1319,4.14,4.0271,4.0733,4.1182,3.9019,4.1643,4.592,4.9476,5.2627,5.4902,5.4726,5.4687,5.457,5.4121,5.3972,5.3641,5.2558,5.2344,5.2226,5.1875,5.1601,5.1475,5.1777,5.1816,5.1933,5.2305,5.2558,5.2949,5.3574,5.3633,5.3535,5.3281,5.3086,5.2871,5.2686,5.2617,5.2882,5.339,5.3535,5.3633,5.3633,5.4082,5.418,5.3957,5.373,5.3769,5.3972,5.3769,5.3496,0.0,0.0,0.0,0.0,4.1484,0.0,4.4687,4.4219,4.3613,4.6016,4.7109,4.8086,4.9551,4.9863,5.0117,5.0772,5.0781,5.1094,5.2324,5.2168,5.1933,5.1875,5.1562,5.1319,5.1319,5.1358,5.1377,5.1377,5.1299,5.0937,5.0156,4.9687,4.9277,4.8913,4.8913,4.8913,4.8913,4.8913,4.8913,4.8913,4.8913,4.8755,4.8478,4.8755,4.8755,4.8459,4.8755,4.8913,4.8913,4.8913,4.8913,4.8913,4.8913,4.8709,4.8517,4.8877,4.7094,4.4619,4.5031,4.3688,4.1353,3.8977,3.8707,3.8767,3.6006,3.713,3.9004,3.7466,4.136,4.6798,5.006,5.3077,5.5156,5.4824,5.4707,5.457,5.4121,5.3972,5.3719,5.2891,5.2715,5.2461,5.165,5.1494,5.1475,5.1514,5.1621,5.1914,5.2676,5.2832,5.3164,5.3945,5.3972,5.3953,5.3965,5.3594,5.341,5.341,5.341,5.3429,5.3488,5.3808,5.3972,5.3972,5.4414,5.4629,5.4687,5.4238,5.3972,5.3972,5.3972,5.3972,0.0,0.0,0.0,0.0,4.1738,0.0,4.1328,4.1621,4.2383,4.3574,4.3965,4.4785,4.7129,4.7851,4.8027,4.7787,4.886,5.0098,5.1055,5.1113,5.0937,5.0586,5.0781,5.0918,5.0918,5.123,5.1377,5.1377,5.0801,5.0195,4.9687,4.9238,4.8991,4.8913,4.8913,4.8913,4.8913,4.8913,4.8913,4.8913,4.8913,4.7791,4.5849,4.793,4.7744,4.5896,4.7976,4.8913,4.8913,4.8913,4.8913,4.8913,4.8913,4.7605,4.5745,4.5847,4.4187,4.1687,3.9938,3.9209,3.8595,3.6271,3.7239,3.8767,3.6006,3.713,3.9819,4.2235,4.4231,4.6955,5.2815,5.4564,5.4863,5.5117,5.4922,5.457,5.4121,5.3972,5.3719,5.2891,5.2715,5.2656,5.248,5.2187,5.207,5.2402,5.2754,5.3097,5.3253,5.3555,5.3797,5.3953,5.3972,5.3887,5.3516,5.3468,5.341,5.341,5.341,5.3566,5.3887,5.3984,5.3972,5.3972,5.4121,5.4336,5.4687,5.4238,5.3972,5.3972,5.3972,5.3972,0.0,0.0,0.0,4.1738,4.1797,0.0,0.0,4.0996,4.1152,4.2226,4.2266,4.2773,4.4922,4.5332,4.5625,4.6484,4.7344,4.8223,4.9082,4.9941,5.041,5.0195,5.0371,5.0488,5.0488,5.0683,5.0801,5.0801,5.0215,4.9766,4.9484,4.9101,4.8913,4.8913,4.8913,4.8273,4.6962,4.6962,4.6336,4.5049,4.5049,4.437,4.3166,4.4465,4.4323,4.3197,4.4512,4.5049,4.5002,4.5049,4.5049,4.5191,4.6476,4.6149,4.4915,4.3936,4.1811,3.9337,3.8701,3.7637,3.6341,3.534,3.6039,3.6988,3.5612,3.6273,3.8425,4.3257,4.4077,4.5223,5.2978,5.39,5.3201,5.4668,5.4844,5.457,5.4121,5.3848,5.3633,5.3418,5.3008,5.2578,5.2148,5.207,5.2148,5.2363,5.2754,5.3155,5.339,5.3555,5.3789,5.3953,5.3972,5.3945,5.3711,5.3691,5.3691,5.3691,5.3691,5.3789,5.3972,5.3972,5.4187,5.4648,5.4668,5.4883,5.5312,5.4883,5.457,5.4355,5.4355,5.4355,0.0,0.0,0.0,0.0,0.0,4.1777,0.0,0.0,0.0,4.1406,4.1289,4.1484,4.2949,4.2949,4.3281,4.5039,4.5586,4.6016,4.6621,4.8066,4.918,4.9512,4.9492,4.9551,4.993,4.9844,4.9675,4.9337,4.9192,4.878,4.7978,4.8513,4.8663,4.8181,4.8134,4.7148,4.5031,4.4494,4.3262,4.1187,4.1187,4.0898,4.0464,4.0947,4.0947,4.0464,4.0995,4.1139,4.1108,4.1187,4.1187,4.138,4.3452,4.3974,4.3331,4.1799,3.9402,3.6986,3.7936,3.6697,3.4723,3.5017,3.5151,3.5296,3.5809,3.5815,3.6711,4.2183,4.2554,4.3112,5.0929,5.1874,5.1265,5.3276,5.4112,5.4316,5.3867,5.3496,5.334,5.3711,5.3203,5.2519,5.1914,5.209,5.2324,5.2324,5.2695,5.3086,5.3488,5.3546,5.3633,5.3984,5.405,5.416,5.416,5.416,5.416,5.416,5.4031,5.3972,5.3972,5.4121,5.4551,5.541,5.5351,5.5508,5.5885,5.5508,5.5137,5.4805,5.4805,5.4765,0.0,0.0,0.0,0.0,4.4648,4.5192,4.1543,0.0,4.2324,4.0957,0.0,4.0781,4.1348,0.0,0.0,4.1758,4.3027,4.3906,4.3674,4.4433,4.5605,4.7129,4.6973,4.7344,4.8913,4.8652,4.7788,4.632,4.7197,4.6174,4.2324,4.6467,4.7837,4.552,4.5426,4.5314,4.4984,4.2768,4.1476,4.1187,4.1156,3.9948,3.7806,4.0126,3.9932,3.787,4.0174,4.1187,4.1187,4.1187,4.1187,4.1235,4.1524,4.0223,3.8163,3.7946,3.6167,3.3959,3.4351,3.4431,3.4416,3.471,3.499,3.5651,3.8106,3.7304,3.6258,3.9531,4.0642,4.1752,4.5713,4.8333,5.0011,5.0287,5.1977,5.3449,5.2949,5.2812,5.2793,5.2851,5.2773,5.2793,5.3136,5.3234,5.3273,5.3273,5.3594,5.3855,5.3945,5.3945,5.3965,5.3972,5.4375,5.4609,5.4609,5.4609,5.4609,5.4609,5.4238,5.3972,5.3972,5.4394,5.5,5.5787,5.5488,5.5508,5.5885,5.5508,5.5293,5.5234,5.5234,5.5039,0.0,0.0,4.5879,4.4551,4.4629,4.4453,4.2109,4.1621,4.1465,4.0996,0.0,0.0,0.0,0.0,0.0,0.0,4.1777,4.2266,4.2324,4.2226,4.3066,4.5484,4.5215,4.5273,4.6504,4.5535,4.4524,4.3842,4.335,4.2294,4.0463,4.2944,4.3927,4.2816,4.2816,4.2051,4.0561,3.9448,3.8197,3.6657,3.6657,3.608,3.5054,3.6164,3.608,3.5104,3.6228,3.6657,3.6657,3.6657,3.6657,3.6657,3.6657,3.6938,3.7164,3.5813,3.4611,3.3734,3.4028,3.4336,3.4629,3.4923,3.5097,3.5401,3.6569,3.6207,3.6014,3.9258,3.9141,3.9621,4.6268,4.765,4.8141,5.1444,5.282,5.3429,5.3457,5.3066,5.2851,5.3379,5.3262,5.3223,5.3672,5.3535,5.341,5.341,5.373,5.3972,5.3972,5.3972,5.4121,5.4375,5.457,5.4785,5.5019,5.3292,5.2182,5.2182,5.179,5.242,5.4343,5.4824,5.5332,5.5865,5.6015,5.6133,5.6308,5.5879,5.5664,5.5664,5.543,5.5078,4.6133,4.6387,4.6641,4.5488,4.4726,4.3887,4.2558,4.1777,4.1445,4.166,4.1484,0.0,0.0,0.0,4.0898,4.1289,0.0,4.123,4.1269,4.0625,4.1152,4.3828,4.4004,4.3929,4.407,4.2728,4.1483,4.0487,3.9464,3.8526,3.7645,3.9649,4.0554,4.0029,4.0078,3.9205,3.7331,3.6608,3.5302,3.3414,3.3414,3.3414,3.3414,3.3414,3.3414,3.3414,3.3414,3.3414,3.3414,3.3414,3.3414,3.3414,3.3414,3.4571,3.601,3.4359,3.3761,3.3788,3.4002,3.4322,3.471,3.507,3.5191,3.5191,3.5191,3.5191,3.5746,3.8182,3.7561,3.7637,4.4244,4.5157,4.5342,4.9342,5.1233,5.2113,5.2438,5.2495,5.2793,5.3672,5.3574,5.3496,5.3945,5.3769,5.3535,5.3535,5.3828,5.3972,5.3972,5.4141,5.4008,5.3503,5.37,5.3615,5.3088,5.0828,4.9442,4.9336,4.8931,5.023,5.3691,5.4121,5.4465,5.4832,5.5192,5.5345,5.5345,5.4924,5.5104,5.5865,5.5508,5.5078,4.834,4.9043,4.9336,4.6387,4.5688,4.4984,4.2402,4.2754,4.3496,4.3105,4.4004,4.4746,4.4355,4.3574,0.0,0.0,0.0,0.0,0.0,3.9551,3.9902,4.1699,4.3359,4.3668,4.1864,4.1013,3.9106,3.5577,3.6174,3.5297,3.2117,3.6963,3.8996,3.7079,3.7313,3.738,3.7282,3.477,3.3464,3.3414,3.3414,3.3414,3.3414,3.3414,3.3414,3.3414,3.3414,3.3414,3.3414,3.3414,3.3414,3.3414,3.3414,3.3464,3.3514,3.3427,3.3427,3.3427,3.344,3.3828,3.4429,3.5004,3.5191,3.5191,3.5191,3.5191,3.5204,3.5323,3.5738,3.618,3.6464,3.8893,4.1286,4.1093,4.495,4.8675,4.8694,5.0504,5.2363,5.3273,5.3429,5.3496,5.3945,5.3972,5.3953,5.3953,5.3972,5.3972,5.3972,5.4394,5.3574,5.0676,5.1098,5.045,4.7539,4.7176,4.695,4.6532,4.6207,4.7727,5.146,5.1604,5.1802,5.2182,5.2255,5.2255,5.2255,5.182,5.3128,5.5865,5.5508,5.5078,4.9941,5.0449,5.041,4.7969,4.7129,4.625,4.3652,4.3633,4.3965,4.3263,4.4121,4.4707,4.3711,0.0,0.0,0.0,0.0,0.0,0.0,3.9062,3.9101,3.998,4.1367,4.1294,3.8806,3.7138,3.5177,3.2707,3.1627,3.0794,3.0258,3.2905,3.4216,3.3746,3.4213,3.4512,3.472,3.385,3.3414,3.3414,3.3414,3.3414,3.3414,3.3414,3.3414,3.3414,3.3414,3.3414,3.3414,3.3414,3.3414,3.3414,3.3414,3.3414,3.3414,3.3414,3.3414,3.3467,3.3868,3.4269,3.4683,3.507,3.5191,3.5191,3.5191,3.5324,3.5485,3.5485,3.5765,3.6545,3.8422,3.9713,4.1058,4.284,4.4542,4.5856,4.6112,4.6734,4.7423,4.8053,4.8158,4.8245,4.8333,4.8351,4.9642,5.3442,5.3972,5.3384,5.1679,5.1618,5.077,4.8335,4.8353,4.8223,4.7484,4.5376,4.3996,4.3585,4.5295,4.6985,4.8434,5.2286,5.369,5.2109,5.4066,5.5076,5.5076,5.4371,5.4542,5.5508,5.4785,5.4531,5.0625,5.1113,5.1211,4.9375,4.8476,4.7525,4.5332,4.5195,4.5332,4.459,4.5351,4.5898,0.0,0.0,0.0,0.0,0.0,0.0,0.0,3.875,3.8708,3.8945,3.9375,3.8641,3.6103,3.401,3.1857,2.9523,2.8331,2.8018,2.87,3.0194,3.1276,3.177,3.2559,3.312,3.3414,3.3414,3.3414,3.3414,3.3414,3.3414,3.3414,3.3414,3.3414,3.3414,3.3414,3.3414,3.3414,3.3414,3.3414,3.3414,3.3414,3.3414,3.3414,3.3414,3.348,3.3654,3.4148,3.4509,3.4803,3.5097,3.5191,3.5191,3.5191,3.5324,3.5538,3.5845,3.6006,3.6531,3.8586,3.9027,3.9422,4.1293,4.2309,4.3008,4.3539,4.428,4.493,4.5398,4.5518,4.5518,4.5518,4.5518,4.6754,5.0441,5.1037,5.0524,4.8912,4.8908,4.8124,4.5646,4.5456,4.5162,4.4347,4.232,4.1043,4.09,4.3625,4.5794,4.7131,5.1947,5.4066,5.3012,5.4311,5.48,5.4321,5.3063,5.2474,5.2531,5.1643,5.1421]},{"header":{"parameterUnit":"m.s-1","parameterCategory":1,"la1":30.6,"la2":29.2853,"lo1":-89.7004,"lo2":-87.6739,"dy":0.0162,"dx":0.0183,"nx":112,"ny":82,"refTime":"2023-11-13T06:00:00:Z","depth":0,"parameterNumber":3,"parameterNumberName":"V-component_of_WINDS"},"data":[0.0,0.0,0.0,0.0,0.0,0.0,0.0,0.0,0.0,0.0,0.0,0.0,0.0,0.0,0.0,0.0,0.0,0.0,0.0,0.0,0.0,0.0,0.0,0.0,0.0,0.0,0.0,0.0,0.0,0.0,0.0,0.0,0.0,0.0,0.0,0.0,0.0,0.0,0.0,0.0,0.0,0.0,0.0,0.0,0.0,0.0,0.0,0.0,0.0,0.0,0.0,0.0,0.0,0.0,0.0,0.0,0.0,0.0,0.0,0.0,0.0,0.0,0.0,0.0,0.0,0.0,0.0,0.0,0.0,0.0,0.0,0.0,0.0,0.0,0.0,0.0,0.0,0.0,0.0,0.0,0.0,0.0,0.0,0.0,0.0,0.0,0.0,0.0,0.0,0.0,3.0261,3.2582,3.5529,3.6634,3.4979,3.4076,3.263,3.0289,0.0,0.0,0.0,0.0,0.0,0.0,0.0,0.0,0.0,0.0,0.0,0.0,0.0,0.0,0.0,0.0,0.0,0.0,0.0,0.0,0.0,0.0,0.0,0.0,0.0,0.0,0.0,0.0,0.0,0.0,0.0,0.0,0.0,0.0,0.0,0.0,0.0,0.0,0.0,0.0,0.0,0.0,0.0,0.0,0.0,0.0,0.0,0.0,0.0,0.0,0.0,0.0,0.0,0.0,0.0,0.0,0.0,0.0,0.0,0.0,0.0,0.0,0.0,0.0,0.0,0.0,0.0,0.0,0.0,0.0,0.0,0.0,0.0,0.0,0.0,0.0,0.0,0.0,0.0,0.0,0.0,0.0,0.0,0.0,0.0,0.0,0.0,0.0,0.0,0.0,0.0,0.0,0.0,0.0,0.0,0.0,0.0,0.0,0.0,0.0,0.0,0.0,0.0,0.0,3.1288,3.5326,3.701,3.7187,3.5508,3.3574,3.2234,3.1686,0.0,0.0,0.0,0.0,0.0,0.0,0.0,0.0,0.0,0.0,0.0,0.0,0.0,0.0,0.0,0.0,0.0,0.0,0.0,0.0,0.0,0.0,0.0,0.0,0.0,0.0,0.0,0.0,0.0,0.0,0.0,0.0,0.0,0.0,0.0,0.0,0.0,0.0,0.0,0.0,0.0,0.0,0.0,0.0,0.0,0.0,0.0,0.0,0.0,0.0,0.0,0.0,0.0,0.0,0.0,0.0,0.0,0.0,0.0,0.0,0.0,0.0,0.0,0.0,0.0,0.0,0.0,0.0,0.0,0.0,0.0,0.0,0.0,0.0,0.0,0.0,0.0,0.0,0.0,0.0,0.0,0.0,0.0,0.0,0.0,0.0,0.0,0.0,0.0,0.0,0.0,0.0,0.0,0.0,0.0,0.0,0.0,0.0,0.0,0.0,0.0,0.0,0.0,3.2475,3.4536,3.8362,3.953,3.9432,3.8027,3.5457,3.3766,3.3325,3.1676,0.0,0.0,0.0,0.0,0.0,0.0,0.0,0.0,0.0,0.0,0.0,0.0,0.0,0.0,0.0,0.0,0.0,0.0,0.0,0.0,0.0,0.0,0.0,0.0,0.0,0.0,0.0,0.0,0.0,0.0,0.0,0.0,0.0,0.0,0.0,0.0,0.0,0.0,0.0,0.0,0.0,0.0,0.0,0.0,0.0,0.0,0.0,0.0,0.0,0.0,0.0,0.0,0.0,0.0,0.0,0.0,0.0,0.0,0.0,0.0,0.0,0.0,0.0,0.0,0.0,0.0,0.0,0.0,0.0,0.0,0.0,0.0,0.0,0.0,0.0,0.0,0.0,0.0,0.0,0.0,0.0,0.0,0.0,0.0,0.0,0.0,0.0,0.0,0.0,0.0,0.0,0.0,0.0,0.0,0.0,0.0,0.0,0.0,0.0,0.0,0.0,0.0,3.6286,3.8121,4.1117,4.1595,4.1211,3.9996,3.6827,3.4851,3.4762,3.2203,0.0,0.0,0.0,0.0,0.0,0.0,0.0,0.0,0.0,0.0,0.0,0.0,0.0,0.0,0.0,0.0,0.0,0.0,0.0,0.0,0.0,0.0,0.0,0.0,0.0,0.0,0.0,0.0,0.0,0.0,0.0,0.0,0.0,0.0,0.0,0.0,0.0,0.0,0.0,0.0,0.0,0.0,0.0,0.0,0.0,0.0,0.0,0.0,0.0,0.0,0.0,0.0,0.0,0.0,0.0,0.0,0.0,0.0,0.0,0.0,0.0,0.0,0.0,0.0,0.0,0.0,0.0,0.0,0.0,0.0,0.0,0.0,0.0,0.0,0.0,0.0,0.0,0.0,0.0,0.0,0.0,0.0,0.0,0.0,0.0,0.0,0.0,0.0,0.0,0.0,0.0,0.0,0.0,0.0,0.0,0.0,0.0,0.0,0.0,0.0,0.0,0.0,3.9032,4.1171,4.3109,4.2352,4.1211,3.9996,3.5935,3.4112,3.5697,3.1677,0.0,0.0,0.0,0.0,0.0,0.0,0.0,0.0,0.0,0.0,0.0,0.0,0.0,0.0,0.0,0.0,0.0,0.0,0.0,0.0,0.0,0.0,0.0,0.0,0.0,0.0,0.0,0.0,0.0,0.0,0.0,0.0,0.0,0.0,0.0,0.0,0.0,0.0,0.0,0.0,0.0,0.0,0.0,0.0,0.0,0.0,0.0,0.0,0.0,0.0,0.0,0.0,0.0,0.0,0.0,0.0,0.0,0.0,0.0,0.0,0.0,0.0,0.0,0.0,0.0,0.0,0.0,0.0,0.0,0.0,0.0,0.0,0.0,0.0,0.0,0.0,0.0,0.0,0.0,0.0,0.0,0.0,0.0,0.0,0.0,0.0,0.0,0.0,0.0,0.0,0.0,0.0,0.0,0.0,0.0,0.0,0.0,0.0,0.0,0.0,0.0,0.0,3.9724,4.233,4.447,4.4237,4.328,4.1593,3.8404,3.6406,3.6274,0.0,0.0,0.0,0.0,0.0,0.0,0.0,0.0,0.0,0.0,0.0,0.0,0.0,0.0,0.0,0.0,0.0,0.0,0.0,0.0,0.0,0.0,0.0,0.0,0.0,0.0,0.0,0.0,0.0,0.0,0.0,0.0,0.0,0.0,0.0,0.0,0.0,0.0,0.0,0.0,0.0,0.0,0.0,0.0,0.0,0.0,0.0,0.0,0.0,0.0,0.0,0.0,0.0,0.0,0.0,0.0,0.0,0.0,0.0,0.0,0.0,0.0,0.0,0.0,0.0,0.0,0.0,0.0,0.0,0.0,0.0,0.0,0.0,0.0,0.0,0.0,0.0,0.0,0.0,0.0,0.0,0.0,0.0,0.0,0.0,0.0,0.0,0.0,0.0,0.0,0.0,0.0,0.0,0.0,0.0,0.0,0.0,0.0,0.0,0.0,0.0,0.0,3.8257,4.112,4.3759,4.5799,4.5585,4.4586,4.284,3.9487,3.7285,3.6806,0.0,0.0,0.0,0.0,0.0,0.0,0.0,0.0,0.0,0.0,0.0,0.0,0.0,0.0,0.0,0.0,0.0,0.0,0.0,0.0,0.0,0.0,0.0,0.0,0.0,0.0,0.0,0.0,0.0,0.0,0.0,0.0,0.0,0.0,0.0,0.0,0.0,0.0,0.0,0.0,0.0,0.0,0.0,0.0,0.0,0.0,0.0,0.0,0.0,0.0,0.0,0.0,0.0,0.0,0.0,0.0,0.0,0.0,0.0,0.0,0.0,0.0,0.0,0.0,0.0,0.0,0.0,0.0,0.0,0.0,0.0,0.0,0.0,0.0,0.0,0.0,0.0,0.0,0.0,0.0,0.0,0.0,0.0,0.0,0.0,0.0,0.0,0.0,0.0,0.0,0.0,0.0,0.0,0.0,0.0,0.0,0.0,0.0,0.0,0.0,0.0,0.0,4.1134,4.3678,4.5813,4.716,4.6082,4.4736,4.3399,3.8494,3.6058,0.0,0.0,0.0,0.0,0.0,0.0,0.0,0.0,0.0,0.0,0.0,0.0,0.0,0.0,0.0,0.0,0.0,0.0,0.0,0.0,0.0,0.0,0.0,0.0,0.0,0.0,0.0,0.0,0.0,0.0,0.0,0.0,0.0,0.0,0.0,0.0,0.0,0.0,0.0,0.0,0.0,0.0,0.0,0.0,0.0,0.0,0.0,0.0,0.0,0.0,0.0,0.0,0.0,0.0,0.0,0.0,0.0,0.0,0.0,0.0,0.0,0.0,0.0,0.0,0.0,0.0,0.0,0.0,0.0,0.0,0.0,0.0,0.0,0.0,0.0,0.0,0.0,0.0,0.0,0.0,0.0,0.0,0.0,0.0,0.0,0.0,0.0,0.0,0.0,0.0,0.0,0.0,0.0,0.0,0.0,0.0,0.0,0.0,0.0,0.0,0.0,0.0,0.0,4.1194,4.3678,4.5633,4.648,4.5403,4.3688,4.1455,3.8153,3.6148,3.6088,0.0,0.0,0.0,0.0,0.0,0.0,0.0,0.0,0.0,0.0,0.0,0.0,0.0,0.0,0.0,0.0,0.0,0.0,0.0,0.0,0.0,0.0,0.0,0.0,0.0,0.0,0.0,0.0,0.0,0.0,0.0,0.0,0.0,0.0,0.0,0.0,0.0,0.0,0.0,0.0,0.0,0.0,0.0,0.0,0.0,0.0,0.0,0.0,0.0,0.0,0.0,0.0,0.0,0.0,0.0,0.0,0.0,0.0,0.0,0.0,0.0,0.0,0.0,0.0,0.0,0.0,0.0,0.0,0.0,0.0,0.0,0.0,0.0,0.0,0.0,0.0,0.0,0.0,0.0,0.0,0.0,0.0,0.0,0.0,0.0,0.0,0.0,0.0,0.0,0.0,0.0,0.0,0.0,0.0,0.0,0.0,0.0,0.0,0.0,0.0,0.0,0.0,4.1224,4.3678,4.5574,4.6241,4.5104,4.3359,4.0995,3.817,3.6104,3.516,0.0,0.0,0.0,0.0,0.0,0.0,0.0,0.0,0.0,0.0,0.0,0.0,0.0,0.0,0.0,0.0,0.0,0.0,0.0,0.0,0.0,0.0,0.0,0.0,0.0,0.0,0.0,0.0,0.0,0.0,0.0,0.0,0.0,0.0,0.0,0.0,0.0,0.0,0.0,0.0,0.0,0.0,0.0,0.0,0.0,0.0,0.0,0.0,0.0,0.0,0.0,0.0,0.0,0.0,0.0,0.0,0.0,0.0,0.0,0.0,0.0,0.0,0.0,0.0,0.0,0.0,0.0,0.0,0.0,0.0,0.0,0.0,0.0,0.0,0.0,0.0,0.0,0.0,0.0,0.0,0.0,0.0,0.0,0.0,0.0,0.0,0.0,0.0,0.0,0.0,0.0,0.0,0.0,0.0,0.0,0.0,0.0,0.0,0.0,0.0,0.0,0.0,4.1224,4.3678,4.5544,4.6151,4.5014,4.3369,4.1403,3.832,3.5925,3.4578,0.0,0.0,0.0,0.0,0.0,0.0,0.0,0.0,0.0,0.0,0.0,0.0,0.0,0.0,0.0,0.0,0.0,0.0,0.0,0.0,0.0,0.0,0.0,0.0,0.0,0.0,0.0,0.0,0.0,0.0,0.0,0.0,0.0,0.0,0.0,0.0,0.0,0.0,0.0,0.0,0.0,0.0,0.0,0.0,0.0,0.0,0.0,0.0,0.0,0.0,0.0,0.0,0.0,0.0,0.0,0.0,0.0,0.0,0.0,0.0,4.0792,4.1558,0.0,0.0,0.0,0.0,0.0,0.0,0.0,0.0,0.0,0.0,0.0,0.0,0.0,0.0,0.0,0.0,0.0,0.0,0.0,0.0,0.0,0.0,0.0,0.0,0.0,0.0,0.0,0.0,0.0,0.0,0.0,0.0,0.0,0.0,0.0,0.0,0.0,0.0,0.0,0.0,4.1224,4.3678,4.5334,4.5514,4.4296,4.2502,4.0019,3.7793,3.5925,3.4578,3.3889,0.0,0.0,0.0,0.0,0.0,0.0,0.0,0.0,0.0,0.0,0.0,0.0,0.0,0.0,0.0,0.0,0.0,0.0,0.0,0.0,0.0,0.0,0.0,0.0,0.0,0.0,0.0,0.0,0.0,0.0,0.0,0.0,0.0,0.0,0.0,0.0,0.0,0.0,0.0,0.0,0.0,0.0,0.0,0.0,0.0,0.0,0.0,0.0,0.0,0.0,0.0,0.0,0.0,0.0,0.0,0.0,0.0,0.0,0.0,4.4146,4.2873,0.0,0.0,0.0,0.0,0.0,0.0,0.0,0.0,0.0,0.0,0.0,0.0,0.0,0.0,0.0,0.0,0.0,0.0,0.0,0.0,0.0,0.0,0.0,0.0,0.0,0.0,0.0,0.0,0.0,0.0,0.0,0.0,0.0,0.0,0.0,0.0,0.0,0.0,0.0,0.0,4.1673,4.3888,4.5304,4.5304,4.4137,4.2412,4.0079,3.7793,3.5925,3.4578,3.3889,0.0,0.0,0.0,0.0,0.0,0.0,0.0,0.0,0.0,0.0,0.0,0.0,0.0,0.0,0.0,0.0,0.0,0.0,0.0,0.0,0.0,0.0,0.0,0.0,0.0,0.0,0.0,0.0,0.0,0.0,0.0,0.0,0.0,0.0,0.0,0.0,0.0,0.0,0.0,0.0,0.0,0.0,0.0,0.0,0.0,0.0,0.0,0.0,0.0,0.0,0.0,0.0,0.0,5.4037,5.485,5.5718,5.5718,5.5089,5.3778,4.8899,4.547,4.3499,4.5276,0.0,0.0,0.0,0.0,0.0,0.0,0.0,0.0,0.0,0.0,0.0,0.0,0.0,0.0,0.0,0.0,0.0,0.0,0.0,0.0,0.0,0.0,4.1479,4.2353,4.2865,4.2019,3.7915,0.0,0.0,0.0,0.0,0.0,0.0,0.0,0.0,0.0,0.0,0.0,4.2021,4.4127,4.5424,4.5304,4.4257,4.2701,4.0576,3.823,3.6224,3.4757,3.4039,3.3664,0.0,0.0,0.0,0.0,0.0,0.0,0.0,0.0,0.0,0.0,0.0,0.0,0.0,0.0,0.0,0.0,0.0,0.0,0.0,0.0,0.0,0.0,0.0,0.0,0.0,0.0,0.0,0.0,0.0,0.0,0.0,0.0,4.272,4.3898,0.0,0.0,0.0,0.0,0.0,0.0,0.0,0.0,0.0,0.0,0.0,0.0,0.0,5.3348,5.5025,5.6376,5.7158,5.7337,5.859,5.868,5.7726,5.7726,5.7606,5.7367,5.6012,0.0,4.8864,4.602,0.0,0.0,0.0,0.0,0.0,0.0,0.0,0.0,0.0,0.0,0.0,0.0,0.0,0.0,0.0,0.0,0.0,0.0,0.0,0.0,0.0,0.0,4.3587,4.2644,4.2473,4.2342,4.1669,4.1327,4.0726,3.9391,3.8344,3.7597,0.0,0.0,0.0,0.0,0.0,0.0,4.1493,4.4257,4.5942,4.5364,4.4646,4.313,4.0606,3.902,3.7345,3.5489,3.4727,3.4384,3.4384,3.4278,0.0,0.0,0.0,0.0,0.0,0.0,0.0,0.0,0.0,0.0,0.0,0.0,0.0,0.0,0.0,0.0,0.0,0.0,0.0,0.0,0.0,0.0,0.0,0.0,0.0,0.0,0.0,0.0,0.0,4.5484,4.6711,4.5065,4.71,4.8297,0.0,0.0,0.0,0.0,0.0,0.0,0.0,0.0,0.0,5.5034,5.6735,5.8052,5.8949,6.0595,6.1764,6.2541,6.3528,6.3857,6.3647,6.3647,6.3258,6.2482,6.1852,5.955,5.5966,5.1326,4.9618,4.9657,0.0,0.0,0.0,0.0,4.5457,4.608,4.5109,4.4924,4.5153,4.4953,0.0,0.0,0.0,0.0,0.0,0.0,0.0,4.2641,4.2161,4.4007,4.5933,4.5774,4.5984,4.6163,4.5804,4.4885,4.3419,4.0995,4.0636,4.0378,3.9272,3.8153,0.0,0.0,0.0,4.1354,4.2851,4.4925,4.6031,4.5364,4.4706,4.3369,4.1145,3.9738,3.8272,3.6686,3.5609,3.507,3.507,3.4697,3.4817,0.0,0.0,0.0,0.0,0.0,0.0,0.0,0.0,0.0,0.0,0.0,0.0,0.0,0.0,0.0,0.0,0.0,0.0,0.0,0.0,0.0,0.0,0.0,0.0,0.0,0.0,0.0,0.0,4.8057,4.9613,4.6651,4.9673,5.1199,0.0,0.0,0.0,0.0,0.0,0.0,5.5628,5.7573,5.9009,5.985,6.1644,6.2869,6.3378,6.4814,6.6191,6.7508,6.8016,6.8526,6.9005,6.8826,6.8106,6.6969,6.5921,6.4396,6.2211,5.6705,5.3653,5.2306,5.0511,4.9912,4.997,4.9169,4.9392,5.0038,4.9834,4.98,4.9629,4.8633,4.7279,4.5636,4.3282,0.0,0.0,0.0,0.0,4.4672,4.4974,4.6424,4.7967,4.8626,4.9307,4.9666,4.9134,4.8267,4.654,4.308,4.2761,4.2651,4.1365,3.9768,0.0,4.0685,4.1324,4.2282,4.4057,4.5613,4.63,4.5633,4.4975,4.3778,4.1822,4.0427,3.9002,3.7494,3.6357,3.5669,3.5519,3.5011,3.4997,3.5489,0.0,0.0,0.0,0.0,0.0,0.0,0.0,0.0,0.0,0.0,0.0,0.0,0.0,0.0,0.0,0.0,0.0,0.0,0.0,0.0,0.0,0.0,0.0,0.0,0.0,0.0,0.0,0.0,0.0,4.9097,5.2007,0.0,0.0,0.0,0.0,5.479,5.6649,5.8324,5.9755,6.1731,6.3348,6.4605,6.5981,6.7597,6.9544,6.9664,7.032,7.1577,7.1637,7.1667,7.1667,7.1038,7.041,6.9694,6.7717,6.6819,6.6221,6.0296,5.7094,5.5803,5.4431,5.4281,5.47,5.3394,5.3729,5.4506,5.1972,5.1082,5.1105,5.1056,4.9703,4.8117,4.7983,4.6256,0.0,0.0,4.5242,4.5578,4.61,4.7684,4.9366,4.9949,5.0607,5.1086,5.1056,5.0996,4.977,4.5873,4.3648,4.2601,4.307,0.0,4.2171,4.2291,4.3858,4.4855,4.4377,4.6052,4.701,4.633,4.5663,4.4457,4.253,4.1134,3.9499,3.7524,3.6806,3.6148,3.5519,3.5459,3.5459,3.5519,3.5519,0.0,0.0,0.0,0.0,0.0,0.0,0.0,0.0,0.0,0.0,0.0,0.0,0.0,0.0,0.0,0.0,0.0,0.0,0.0,0.0,0.0,0.0,0.0,0.0,0.0,0.0,0.0,0.0,5.5538,5.8501,0.0,5.7756,5.7603,5.8378,6.0174,6.2091,6.4156,6.6371,6.8345,7.0021,7.1338,7.1816,7.2624,7.3791,7.3376,7.3406,7.3855,7.3855,7.3582,7.3163,7.2924,7.1996,7.053,6.9812,6.8794,6.7449,6.4874,6.2061,5.9099,5.6496,5.5653,5.5833,5.5718,5.6286,5.6978,5.6466,5.5991,5.5154,5.2163,5.0182,4.8768,4.7908,4.7346,4.7118,4.77,4.8209,4.8784,4.9828,5.0631,5.1439,5.2522,5.2636,5.2725,5.3593,5.3084,5.2187,5.1229,4.8386,4.6133,4.5912,4.4616,4.3928,4.4796,4.5514,4.6172,4.68,4.7489,4.7698,4.704,4.5963,4.4517,4.256,4.1164,3.9529,3.7507,3.6836,3.6178,3.5519,3.5519,3.5519,3.5519,3.5519,3.5908,0.0,0.0,0.0,0.0,0.0,0.0,0.0,0.0,0.0,0.0,0.0,0.0,0.0,0.0,0.0,0.0,0.0,0.0,0.0,0.0,0.0,0.0,0.0,0.0,0.0,5.6735,6.0116,6.1014,6.3827,6.4994,6.3258,6.3109,6.3917,6.5922,6.7897,6.9961,7.2176,7.3732,7.4869,7.5527,7.5527,7.5766,7.6215,7.5766,7.5437,7.5228,7.5228,7.4869,7.421,7.4001,7.3163,7.1876,7.1188,7.0171,6.8916,6.7808,6.5772,6.3139,6.0266,5.9159,5.9189,5.9368,5.9727,6.0059,5.9847,5.9042,5.7547,5.4256,5.2187,5.0833,5.0152,5.0122,5.0421,5.1103,5.1588,5.2073,5.2995,5.3204,5.3443,5.4341,5.4371,5.4456,5.5354,5.5025,5.4665,5.5089,5.2157,4.9464,4.9015,4.7668,4.6929,4.7826,4.7766,4.7945,4.8835,4.8566,4.8139,4.7668,4.6441,4.4855,4.29,4.1893,4.0229,3.7584,3.7225,3.6656,3.5549,3.5729,3.5848,3.5848,3.5848,3.6237,3.7105,0.0,0.0,0.0,0.0,0.0,0.0,0.0,0.0,0.0,0.0,0.0,0.0,0.0,0.0,0.0,0.0,0.0,0.0,0.0,0.0,0.0,0.0,0.0,5.5359,5.9994,6.3767,6.5144,6.7657,6.8764,6.7478,6.8555,7.0111,7.1996,7.4005,7.5647,7.6868,7.7592,7.7652,7.6988,7.6928,7.6898,7.6898,7.6838,7.6509,7.5946,7.5916,7.5557,7.4933,7.424,7.3911,7.3791,7.1846,7.0979,7.0799,6.8886,6.8107,6.7898,6.5802,6.5024,6.4904,6.4246,6.3977,6.3707,6.1792,5.985,5.8115,5.7423,5.5927,5.4521,5.5119,5.488,5.4491,5.5149,5.5299,5.5299,5.5299,5.5299,5.5299,5.5299,5.5803,5.6222,5.6282,5.6731,5.7094,5.7124,5.4551,5.2336,5.2306,5.1738,5.1295,5.1265,5.0697,0.0,5.0255,4.9134,4.8349,4.8379,4.7138,4.5553,4.3629,4.3309,4.1575,3.7674,3.7973,3.7464,3.5579,3.6118,3.6464,3.6464,3.6523,3.6523,3.6523,0.0,0.0,0.0,0.0,0.0,0.0,0.0,0.0,0.0,0.0,0.0,0.0,0.0,0.0,0.0,0.0,0.0,0.0,0.0,0.0,0.0,5.8228,6.0743,6.0922,6.4635,6.8555,7.1787,7.4061,7.5437,7.5527,7.6335,7.7053,7.7592,7.9028,8.0082,8.0405,8.0584,8.0823,8.1123,7.9746,7.8962,7.8962,7.8011,7.7203,7.6539,7.6125,7.5796,7.5587,7.4929,7.436,7.3851,7.3313,7.2804,7.2235,7.0709,7.0081,6.9812,6.6879,6.5413,6.4904,6.4246,6.3707,6.3227,6.2181,6.1463,6.0805,5.9638,5.889,5.8411,5.8112,5.7902,5.7782,5.7992,5.8022,5.8022,5.8022,5.7663,5.7453,5.7902,5.7423,5.7124,5.8082,5.7663,5.7244,5.7726,5.6705,5.5448,5.4521,5.3832,5.3204,5.2725,5.2067,5.1648,5.1648,5.0092,4.9187,4.962,4.8095,4.6411,4.4915,4.303,4.0846,3.8272,3.6985,3.6058,3.5519,3.5669,3.5759,3.5759,3.6686,3.7165,0.0,0.0,0.0,0.0,0.0,0.0,0.0,0.0,0.0,0.0,0.0,0.0,0.0,0.0,0.0,0.0,0.0,0.0,0.0,0.0,0.0,0.0,6.3528,6.7029,6.8974,7.0769,7.3253,7.6933,7.8609,7.9716,8.0411,8.0823,8.1153,8.1385,8.217,8.2589,8.2589,8.235,8.2417,8.2776,8.1123,8.0225,8.0225,7.9178,7.819,7.7197,7.6874,7.6425,7.5886,7.5497,7.4929,7.43,7.4001,7.3672,7.3223,7.1876,7.1308,7.1038,0.0,0.0,0.0,0.0,6.4006,6.3407,6.272,6.2331,6.1972,6.1194,6.0745,6.0446,6.0057,5.9937,5.9937,5.9937,5.9937,5.9937,5.9937,5.9668,5.9431,5.9847,5.9338,5.9009,5.9787,5.9338,5.889,5.9281,5.883,0.0,5.7714,5.6605,5.5639,5.5268,5.4144,5.3378,5.3378,5.0999,4.9426,4.9793,4.8327,4.6651,4.5035,4.3479,0.0,0.0,0.0,3.7015,3.6716,3.6716,0.0,0.0,0.0,3.7674,3.7387,3.8464,0.0,0.0,3.8225,3.8225,0.0,0.0,0.0,0.0,0.0,0.0,0.0,0.0,0.0,0.0,0.0,0.0,0.0,0.0,0.0,0.0,6.9213,7.3283,7.7951,7.7682,7.8071,8.0913,8.1901,8.2627,8.3285,8.3435,8.3675,8.4106,8.4136,8.4106,8.4017,8.3367,0.0,0.0,0.0,8.1063,8.1123,8.0405,7.9357,7.8041,7.7951,7.7293,7.6125,7.5976,7.5587,7.4993,7.43,7.4001,7.3911,7.2624,7.2026,7.1697,6.9752,6.8585,6.7778,6.5832,6.4695,6.4036,6.3408,0.0,0.0,6.2211,6.1822,6.1343,6.1343,6.1343,6.1371,6.1509,6.1565,6.1593,6.1758,6.1725,6.1637,6.1473,6.1385,6.1325,6.1325,6.1216,6.1188,6.1519,6.0894,6.0523,6.1237,5.9545,5.8138,5.8214,5.6435,5.5085,5.5023,5.179,4.9486,4.9396,4.8267,0.0,4.4805,4.4416,4.2761,3.9098,3.914,3.899,3.8302,3.829,3.829,3.829,3.8422,3.8212,3.7644,3.8362,3.908,3.972,3.9571,3.9601,0.0,0.0,0.0,0.0,0.0,0.0,0.0,0.0,0.0,0.0,0.0,0.0,0.0,0.0,0.0,7.1308,7.4599,7.81,8.2739,8.3636,8.3846,8.3936,8.5013,8.6,8.6689,8.7227,8.7377,8.6958,8.6928,8.6689,8.615,8.4983,8.4833,8.592,8.3645,8.2649,8.3119,8.1991,8.0734,7.9381,7.8878,0.0,7.7412,7.6365,7.5826,7.5677,7.4988,7.4723,7.4663,7.3821,7.2864,7.1697,6.9752,6.8585,6.7838,6.634,6.5383,6.4695,6.4066,6.3408,6.2928,6.2928,6.2838,6.2718,6.2718,6.2718,0.0,6.4003,6.4334,6.4576,6.5718,6.5621,6.4951,6.3795,6.3125,6.2694,6.2694,6.1871,6.1764,6.3977,6.2898,6.2038,6.3295,6.0843,5.8896,5.9448,5.7417,5.5612,5.5054,5.2557,5.0607,5.0069,4.9344,4.8319,4.686,4.5224,4.3539,4.1752,3.9727,3.8302,3.7614,3.7584,3.7584,3.7584,3.8644,3.9122,3.9002,4.0217,4.1164,4.1792,4.0696,4.0786,0.0,0.0,0.0,0.0,0.0,0.0,0.0,0.0,0.0,0.0,0.0,6.1283,6.3617,0.0,7.2355,7.6664,7.9836,8.2798,8.5791,8.7048,8.7197,8.5851,8.6868,8.7826,8.8155,8.8484,8.8544,8.8215,8.8185,8.7915,8.7227,8.624,8.6,8.6698,8.4773,8.3726,8.3688,8.2769,8.1452,7.977,7.9477,7.8789,7.7801,7.7143,7.6514,7.5886,7.5557,7.5198,7.4843,7.3821,7.2804,7.1757,7.047,6.9542,6.8856,6.7478,6.658,6.5922,6.5233,6.4366,6.3528,6.3528,6.3807,6.4097,6.4097,6.4596,6.5274,6.5968,6.6154,6.6312,6.701,6.6933,6.6524,6.5827,6.5387,6.5134,6.5134,6.4647,6.4568,6.5937,6.4774,6.4,6.5319,6.3241,6.1335,6.1296,5.9097,5.7078,5.6036,5.3162,5.0936,5.0255,4.9374,4.8409,4.7399,4.5134,4.3419,4.247,4.0834,3.9757,3.9409,3.9409,3.9409,3.9409,4.0385,4.0894,4.0894,4.2192,4.303,4.3349,4.3,4.303,0.0,0.0,0.0,0.0,0.0,0.0,0.0,5.9249,6.0358,6.2271,6.4395,6.7029,7.0649,7.445,7.813,8.1422,8.4265,8.6539,8.7885,8.9033,8.9123,8.7507,8.8334,8.9052,8.9052,8.9052,8.9052,8.9052,8.8933,8.8634,8.8125,8.7317,8.6868,8.6868,8.5581,8.4654,8.4077,8.3337,8.208,8.0375,8.0135,7.9387,7.819,7.7921,7.7263,7.6275,7.6006,7.5527,7.4813,7.3582,7.2774,7.2206,7.1398,7.0799,7.0233,6.8886,6.7898,6.7089,6.643,6.5502,6.4593,6.4444,6.4986,6.5673,6.5548,6.6312,6.7241,6.7521,6.7572,6.7648,6.7932,6.8007,6.7932,6.7648,6.7572,6.7572,6.7572,6.7368,6.7343,6.7907,6.6748,6.6064,6.7225,6.5844,6.431,6.3406,6.0867,5.8636,5.7375,5.3913,5.1265,5.0488,4.9374,4.8297,4.7369,4.5194,4.3549,4.283,4.2271,4.1893,4.1773,4.1773,4.1773,4.1773,4.2421,4.275,4.275,4.4118,4.4961,4.5253,4.5991,4.5829,5.7782,5.6885,5.6641,6.0296,6.0086,5.9907,0.0,6.5114,6.64,6.7807,7.062,7.3462,7.5612,7.8819,8.2238,8.5531,8.6838,8.7945,8.9303,8.9602,8.9632,8.9393,8.998,9.0388,9.0388,9.0388,9.0388,9.0388,8.989,8.9572,8.9482,8.8274,8.7586,8.7586,8.6299,8.5551,8.5492,8.4235,8.3217,8.2447,8.1242,8.0315,7.953,7.834,7.7741,7.7532,7.6395,7.5527,7.4843,7.4091,7.3732,7.3552,7.2265,7.176,7.1517,7.0263,6.8975,6.7808,6.7119,6.6877,6.6712,6.61,6.6838,6.7814,6.7149,6.7061,6.7445,6.865,6.8967,6.9265,7.0505,7.0837,7.0528,6.9265,6.8967,6.8967,6.8967,6.8024,6.7932,7.0366,6.9191,6.8021,6.8729,6.8073,6.696,6.5576,6.2169,5.9543,5.8764,5.5332,5.2486,5.1206,5.0428,4.9262,4.7459,4.648,4.5433,4.4167,4.4018,4.3698,4.313,4.31,4.31,4.31,4.3758,4.4107,4.4107,4.5793,4.7243,4.851,4.945,4.9005,5.491,5.7094,5.9638,5.9757,6.1463,6.3977,6.7178,6.9213,7.1038,7.3133,7.6185,7.9088,8.1063,8.3816,8.6509,8.8634,8.9531,9.019,9.0728,9.0818,9.0249,8.8693,8.9441,9.0219,9.0567,9.0597,9.0597,9.0597,9.0399,9.007,8.9722,8.9183,8.8663,8.8274,8.7347,8.6659,8.627,8.5342,8.4354,8.3307,8.238,8.1392,8.0345,7.9417,7.8549,7.7741,7.6455,7.5736,7.5377,7.433,7.3881,7.3762,7.2415,7.2437,7.3027,7.1216,7.0234,6.9823,6.9548,6.9259,6.9011,6.8699,6.9312,7.0091,6.9798,6.9961,7.0334,7.0921,7.0737,7.0551,7.1143,7.1289,7.1143,7.0551,7.0402,7.0402,7.0402,6.9973,6.9926,7.1075,7.0231,6.9412,6.9667,6.8707,6.7692,6.7049,6.3636,6.0578,5.9085,5.6234,5.3533,5.1415,5.0936,4.9979,4.8057,4.7638,4.689,4.5553,4.5463,4.5164,4.4496,4.4446,4.4971,4.6007,4.6701,4.7515,4.8536,4.9675,5.0505,5.1127,5.1969,5.2298,5.5179,5.8291,6.1702,6.1225,6.4126,6.7926,7.1158,7.3552,7.5826,7.8424,8.1212,8.3726,8.5731,8.7646,8.9382,9.0657,9.1255,9.1626,9.1626,9.1147,8.998,8.7676,8.7796,8.8364,8.9161,8.995,9.0388,9.0597,9.0597,9.0388,8.995,8.995,8.9621,8.8993,8.8334,8.7646,8.6958,8.612,8.5132,8.3957,8.3158,8.2118,8.0764,7.9926,7.8908,7.7741,7.6634,7.6066,7.5826,7.4659,7.4425,7.471,7.3565,7.4083,7.5246,7.3473,7.2521,7.2148,7.2148,7.202,7.1863,7.1669,7.2062,7.2636,7.2413,7.2505,7.2699,7.2699,7.2326,7.1853,7.1684,7.1594,7.1526,7.1357,7.1289,7.1289,7.1289,7.1289,7.1289,7.1289,7.0872,7.0432,7.0251,6.9113,6.8166,6.7929,6.4992,6.1999,5.9771,5.682,5.4102,5.1977,5.1415,5.0607,4.9224,4.8798,4.8147,4.7189,4.713,4.692,4.6411,4.6689,4.7455,4.8777,4.9808,5.0825,5.1886,5.3075,5.3666,5.3666,5.4697,5.5817,6.1283,6.1463,6.2332,6.7418,6.9273,7.1038,7.5552,7.8669,8.1302,8.3936,8.5581,8.7177,8.9183,8.9632,9.0111,9.1386,9.1596,9.1626,9.1626,8.998,8.8274,8.6868,8.5043,8.4376,8.5731,8.8185,8.995,9.0567,9.0597,9.0597,9.0567,9.0567,9.0309,8.9692,8.8993,8.8334,8.7676,8.6359,8.5342,8.4654,8.3405,8.2118,8.0764,7.9417,7.846,7.7771,7.7048,7.642,7.5856,7.5138,7.5799,7.7132,7.642,7.7183,7.8555,7.7851,7.6283,7.4491,7.4491,7.4987,7.5536,7.4818,7.5047,7.5459,7.4725,7.4028,7.3466,7.3466,7.3466,7.3263,7.2563,7.236,7.2191,7.1458,7.1289,7.1289,7.1289,7.1289,7.1289,7.1289,7.1289,7.1041,7.0297,6.9553,6.8808,6.803,6.6124,6.387,6.129,5.7023,5.3952,5.3228,5.1977,5.1176,5.1116,4.9995,4.9247,4.9187,4.9187,4.9187,4.9157,5.0183,5.0774,5.0816,5.2624,5.3238,5.2597,5.5058,5.6268,5.6321,5.802,5.9667,6.2032,6.4485,6.7717,7.0829,7.3732,7.6933,8.1093,8.3786,8.5641,8.6509,8.6329,8.597,8.5761,8.609,8.6958,8.8723,9.0489,9.1776,9.2194,9.2075,9.0552,8.6815,8.6381,8.6371,8.6464,8.6808,8.7856,8.983,8.998,9.019,9.0567,9.0597,9.0507,9.0309,8.9681,8.9063,8.8364,8.7467,8.6689,8.6,8.3824,8.2118,8.0764,7.9417,7.8669,7.84,7.7257,7.6659,7.639,7.5318,7.5863,7.7228,7.6578,7.7956,8.0239,7.9549,7.9507,7.9494,7.7462,7.7298,7.7866,7.7128,7.7024,7.7164,7.6927,7.6318,7.5743,7.5743,7.5033,7.4187,7.3916,7.351,7.3094,7.28,7.2394,7.2022,7.2022,7.165,7.1289,7.1289,7.1289,7.1222,7.0973,7.0331,6.9108,6.6968,6.4548,6.2184,6.0026,5.7264,5.5089,5.3982,5.3473,5.2641,5.1295,5.1199,5.084,4.9949,5.0331,5.0902,5.172,5.1633,5.2755,5.5235,5.5422,5.6165,5.76,5.8428,5.9118,5.9674,6.0758,6.1806,6.4635,6.8226,7.2355,7.5048,7.834,8.1751,8.5043,8.6778,8.7496,8.6778,8.5402,8.3816,8.226,8.1893,8.2709,8.5192,8.7018,8.8843,9.0908,9.0549,8.9078,8.6312,8.5739,8.5735,8.6081,8.601,8.7183,9.0083,8.995,8.995,9.0567,9.0597,9.0597,9.0597,9.001,8.9393,8.8693,8.8035,8.7107,8.594,8.3585,8.1878,8.0764,7.9656,7.9028,7.8729,7.7377,7.7134,7.7573,7.6274,7.7061,7.9001,7.8588,8.0024,8.2289,8.1878,8.2349,8.2852,8.0341,7.9835,8.0209,7.9735,7.9228,7.8813,7.8813,7.8077,7.7299,7.7299,7.6589,7.5743,7.5506,7.4864,7.4221,7.395,7.3308,7.2732,7.2462,7.2022,7.1616,7.1357,7.1289,7.1289,7.1289,7.0466,6.9108,6.699,6.4594,6.2162,5.9768,5.7725,5.6192,5.5329,5.482,5.4042,5.2755,5.2815,5.2546,5.1684,5.2691,5.356,5.4053,5.4457,5.5801,5.8216,5.8448,5.9337,6.0926,6.1467,6.1839,6.211,6.3091,6.3835,6.9243,7.2777,7.625,8.0135,8.3038,8.5402,8.7287,8.7616,8.6958,8.4893,8.2769,8.0644,7.8609,7.7382,7.7771,8.1093,8.1901,8.3726,8.8304,8.621,8.4624,8.5819,8.3743,8.2934,8.4894,8.5934,8.789,9.123,9.0394,8.9984,9.0567,9.0721,9.0733,9.0733,9.0298,8.9719,8.9088,8.8246,8.6777,8.4684,8.2739,8.1482,8.0823,8.0209,7.9592,7.8903,7.763,7.7973,7.9308,7.7978,7.931,8.2202,8.2202,8.3166,8.4614,8.4614,8.4614,8.4411,8.3016,8.2509,8.2475,8.2382,8.146,8.031,8.031,7.9295,7.817,7.817,7.8111,7.7874,7.7198,7.642,7.5642,7.4897,7.4153,7.3409,7.2665,7.2462,7.2191,7.1515,7.1323,7.1289,7.1289,7.0128,6.8876,6.8098,6.6246,6.3784,6.0621,5.8466,5.7202,5.712,5.6017,5.5319,5.5365,5.48,5.4465,5.448,5.6234,5.7011,5.6357,5.8518,5.9767,5.9862,6.1568,6.2448,6.2536,6.3971,6.4343,6.3714,6.5121,6.5852,7.3881,7.7861,8.1519,8.4483,8.6449,8.7676,8.7706,8.6539,8.4624,8.1654,7.7532,7.3672,7.1221,7.2864,7.5707,7.9028,8.3696,8.8185,9.1835,9.1596,9.0713,8.9838,8.8513,8.8313,8.9812,8.8395,8.8882,9.2558,9.1198,9.0317,9.059,9.2043,9.2863,9.2863,9.4142,9.4505,9.3849,9.0722,8.7692,8.4684,8.3217,8.2208,8.1556,8.168,8.1643,8.1436,8.084,8.0838,8.1157,7.9729,8.0346,8.2202,8.2202,8.3166,8.4614,8.4614,8.4614,8.4546,8.4174,8.3693,8.3118,8.2577,8.2171,8.1832,8.1832,8.119,8.0471,8.0471,7.9667,7.8788,7.8585,7.7976,7.7232,7.6487,7.5709,7.4931,7.4221,7.3172,7.2326,7.2157,7.1684,7.1289,7.1289,7.0534,6.9654,6.891,6.7046,6.4704,6.1894,6.0247,5.8767,5.7255,5.6795,5.6812,5.7316,5.7636,5.8038,5.8497,5.9448,6.0321,6.1018,6.1119,6.1853,6.3295,6.3255,6.3497,6.4038,6.4952,6.5595,6.598,6.6914,6.7658,7.825,8.1938,8.5022,8.7087,8.7915,8.7766,8.594,8.3995,8.1063,7.5707,7.1787,6.8314,6.5143,6.7747,7.1607,7.5168,8.0853,8.6359,9.0818,9.1446,9.1521,9.1729,9.1288,9.1413,9.249,9.1402,9.1405,9.3281,9.2152,9.1676,9.2327,9.3981,9.4913,9.4913,9.6014,9.6127,9.5103,9.1139,8.8496,8.7149,8.5285,8.4314,8.4165,8.406,8.3847,8.3536,8.2748,8.2769,8.3319,8.1893,8.2283,8.3716,8.3382,8.3811,8.4614,8.4614,8.4614,8.4614,8.4614,8.4309,8.393,8.3498,8.3152,8.2881,8.2881,8.2374,8.1697,8.1418,8.0682,8.0006,7.9667,7.9058,7.8382,7.7976,7.7266,7.642,7.5337,7.4187,7.3071,7.2124,7.1582,7.1289,7.1289,7.0703,7.0082,6.9654,6.8294,6.6597,6.4491,6.2053,6.0282,5.9734,5.9226,5.9276,6.0229,6.0949,6.1485,6.1833,6.3015,6.3829,6.4177,6.4329,6.492,6.6013,6.5662,6.5831,6.6576,6.6981,6.7387,6.7827,6.8571,6.8977,8.2387,8.5261,8.7387,8.8514,8.8125,8.6539,8.3196,8.0375,7.6395,6.8886,6.5981,6.3737,6.0234,6.2899,6.7089,7.1547,7.6664,8.229,8.8574,8.9382,9.0279,9.2823,9.3062,9.3242,9.39,9.4295,9.434,9.3999,9.3716,9.3903,9.4667,9.6253,9.718,9.7371,9.731,9.6456,9.4921,9.1163,8.9595,9.0267,8.7796,8.6896,8.7293,8.6722,8.6113,8.5471,8.4212,8.4463,8.5626,8.4329,8.4628,8.5858,8.508,8.4749,8.4749,8.4647,8.4614,8.4614,8.4614,8.4614,8.4614,8.4614,8.4167,8.3659,8.3659,8.3152,8.2408,8.1765,8.152,8.1257,8.0547,7.987,7.9363,7.9135,7.8619,7.7739,7.6318,7.527,7.3961,7.1864,7.1357,7.1289,7.1289,7.077,7.0297,7.0217,6.9654,6.8796,6.7548,6.411,6.2173,6.3188,6.236,6.226,6.3525,6.4216,6.4675,6.4843,6.6424,6.7079,6.6461,6.7477,6.8064,6.8064,6.8064,6.8402,6.9113,6.9214,6.9248,6.9248,6.9992,6.9992,8.5761,8.7975,8.9243,8.9482,8.7766,8.5043,8.1212,7.5856,7.0201,6.5024,6.1104,5.8261,5.709,6.0563,6.5982,7.3226,7.834,8.4295,9.2434,9.3092,9.3511,9.5636,9.5396,9.5336,9.6039,9.5655,9.5578,9.6039,9.7519,9.751,9.5601,9.8306,10.0395,10.1386,10.0915,9.9386,9.6911,9.4444,9.2237,9.0267,8.8648,8.7948,8.8031,8.8146,8.8093,8.7957,8.7362,8.7306,8.7464,8.6622,8.6423,8.6636,8.5858,8.5587,8.552,8.485,8.4614,8.4614,8.4614,8.4614,8.4614,8.4614,8.4512,8.4411,8.4411,8.3896,8.3287,8.3152,8.2678,8.2035,8.1291,8.1012,8.0615,7.9397,7.9,7.8686,7.7773,7.6014,7.4153,7.2529,7.1718,7.1289,7.1289,7.1188,7.0906,7.0297,7.0116,6.9689,6.885,6.7145,6.5721,6.4929,6.4633,6.4995,6.6298,6.6513,6.7063,6.8171,6.8583,6.8727,6.857,6.8767,6.8876,6.8876,6.8876,6.8977,6.9113,6.9688,6.9992,7.0026,7.077,7.1041,8.7736,8.9441,9.001,8.9363,8.6389,8.217,7.6485,7.062,6.4814,5.9126,5.6432,5.4995,5.4695,5.9006,6.4246,6.9423,7.442,8.0554,8.8813,9.0279,9.2135,9.6533,9.7401,9.819,9.9635,9.9187,9.9245,10.041,10.1989,10.1584,9.8411,10.0703,10.2424,10.3111,10.2027,10.0628,9.888,9.6498,9.4552,9.3133,9.1501,9.0815,9.0987,9.0701,9.0397,8.9959,8.9407,8.8937,8.8497,8.7786,8.7482,8.7347,8.623,8.5817,8.5689,8.4884,8.4614,8.4614,8.4614,8.4614,8.4614,8.4614,8.4614,8.4614,8.4614,8.4343,8.3998,8.3625,8.3253,8.2813,8.2069,8.1562,8.1114,8.0412,7.9667,7.8923,7.8145,7.6487,7.4864,7.3781,7.2631,7.1887,7.1887,7.1526,7.1176,7.0838,7.077,7.0635,7.0297,6.967,6.8757,6.7361,6.6948,6.7296,6.8604,6.9085,6.958,7.0185,7.0241,7.0241,7.0241,7.0241,7.0241,7.0241,7.0241,7.0241,7.0263,7.0601,7.077,7.077,7.112,7.1289,8.8965,9.013,9.0208,8.8663,8.4564,7.9088,7.2086,6.5981,6.0174,5.4396,5.2869,5.2725,5.3294,5.7363,6.1852,6.5592,7.0051,7.6006,8.4504,8.7107,9.0636,9.7431,9.8973,10.0564,10.3422,10.2586,10.2608,10.429,10.5424,10.4916,10.2118,10.3083,10.382,10.3585,10.2196,10.1014,10.0204,9.7849,9.6447,9.6041,9.438,9.3675,9.3808,9.303,9.2252,9.1508,9.0763,9.0019,8.9275,8.87,8.8361,8.8091,8.6771,8.6264,8.6163,8.5215,8.485,8.4817,8.4647,8.4614,8.4614,8.4614,8.4614,8.4614,8.4614,8.4614,8.4478,8.3896,8.3727,8.3558,8.2847,8.2205,8.1689,8.1384,8.0276,7.9126,7.8382,7.7164,7.5912,7.5033,7.3781,7.2834,7.2665,7.2157,7.1785,7.1785,7.1785,7.1695,7.1582,7.1684,7.1278,6.9958,6.9252,6.9303,7.0365,7.0973,7.1289,7.1289,7.1289,7.1289,7.1289,7.1424,7.1458,7.1289,7.1481,7.1458,7.1289,7.1289,7.1289,7.1289,7.1289,7.1289,8.954,9.013,8.9999,8.7496,8.2469,7.6604,7.056,6.3199,5.6795,5.3827,5.1768,5.1236,5.3683,5.5059,5.8261,6.5682,6.8794,7.3881,8.4235,8.7885,9.2289,9.972,9.9952,10.1399,10.629,10.4323,10.3515,10.5705,10.5902,10.6012,10.6323,10.5211,10.4295,10.3585,10.2196,10.1014,10.0204,9.8625,9.7477,9.6815,9.5923,9.5214,9.4586,9.3808,9.3064,9.2257,9.1541,9.0763,9.0087,9.0053,8.9613,8.8931,8.8091,8.7786,8.7617,8.6196,8.5716,8.5587,8.485,8.4614,8.4614,8.4614,8.4614,8.4614,8.4614,8.4614,8.458,8.4512,8.4512,8.4309,8.3592,8.3355,8.2949,8.1621,8.0682,7.9904,7.916,7.8348,7.7333,7.5879,7.4965,7.4187,7.351,7.3364,7.3297,7.3297,7.3297,7.3037,7.2394,7.2868,7.2969,7.2191,7.1436,7.1041,7.1188,7.1255,7.1289,7.1289,7.1289,7.1289,7.1289,7.1954,7.1988,7.1289,7.1954,7.1988,7.1289,7.1289,7.1289,7.1289,7.1289,7.1289,8.7785,8.9262,8.9412,8.6748,8.1332,7.4899,6.8105,6.1074,5.5089,5.2013,5.0481,5.0451,5.3114,5.4132,5.6564,6.253,6.4168,6.7809,7.68,7.9659,8.4833,9.5485,9.7434,10.1025,10.9,10.8594,10.8506,10.9906,10.8726,10.7998,10.8286,10.602,10.4598,10.4328,10.2806,10.169,10.0912,9.9863,9.8747,9.7529,9.6345,9.5398,9.4687,9.3943,9.3165,9.2358,9.2116,9.1541,9.0831,9.0391,9.0019,8.9647,8.8463,8.7989,8.7888,8.6839,8.6163,8.5723,8.5418,8.5012,8.4614,8.4614,8.4614,8.4614,8.4614,8.4614,8.4614,8.4614,8.4614,8.4512,8.4242,8.3524,8.2577,8.1554,8.0716,8.0107,7.9837,7.9194,7.8483,7.7874,7.6792,7.5879,7.5608,7.5134,7.4796,7.4796,7.4458,7.4052,7.3781,7.3578,7.3544,7.3713,7.3071,7.2428,7.1988,7.1954,7.1785,7.1323,7.1289,7.1492,7.1954,7.2225,7.2462,7.2631,7.2902,7.2902,7.2631,7.2631,7.2631,7.2631,7.2631,7.2631,8.6137,8.8354,8.9047,8.6084,8.0525,7.3831,6.6402,5.9787,5.4311,5.1146,5.0002,5.0324,5.2749,5.3743,5.5656,6.0144,6.1525,6.4615,7.1965,7.4842,8.0207,9.1014,9.3671,9.852,10.8512,11.0807,11.1903,11.2512,11.0723,10.9403,10.92,10.6798,10.5208,10.47,10.328,10.2096,10.1418,10.0608,9.9593,9.8307,9.7056,9.6074,9.533,9.4586,9.3943,9.3373,9.2962,9.2455,9.1913,9.1169,9.0594,9.0121,8.9072,8.8531,8.8226,8.7516,8.6907,8.6366,8.5953,8.5418,8.4918,8.4681,8.4614,8.4614,8.4614,8.4614,8.4614,8.4614,8.4614,8.4614,8.4614,8.3667,8.2543,8.1799,8.1054,8.0445,8.0242,7.9803,7.9363,7.916,7.828,7.7468,7.7266,7.6758,7.6386,7.6386,7.5946,7.554,7.5303,7.4999,7.4931,7.527,7.4999,7.4322,7.3138,7.2834,7.2496,7.1988,7.1954,7.2191,7.2699,7.3138,7.351,7.3815,7.4255,7.4255,7.3815,7.4018,7.394,7.3534,7.3974,7.4018,8.5017,8.7647,8.9023,8.5396,7.9993,7.3478,6.5769,5.9428,5.4431,5.1744,5.0667,5.0817,5.2839,5.3743,5.5505,5.9475,6.2343,6.614,7.209,7.6431,8.1348,8.7613,8.8914,9.3376,10.3797,10.9505,11.2515,11.2517,11.1095,10.9978,10.92,10.7678,10.6189,10.4701,10.328,10.2096,10.1418,10.0608,9.9829,9.9085,9.8341,9.7597,9.6849,9.6108,9.577,9.5669,9.4214,9.3601,9.3503,9.2725,9.1513,9.0222,9.0188,8.9715,8.8998,8.826,8.7989,8.7753,8.6298,8.579,8.5655,8.485,8.4614,8.4614,8.4614,8.4614,8.4614,8.4614,8.4614,8.4614,8.4614,8.4065,8.3287,8.2577,8.1832,8.1114,8.0344,8.0175,7.9972,7.9236,7.9092,7.8855,7.8111,7.8,7.8,7.8,7.7967,7.7705,7.6961,7.7502,7.7696,7.6961,7.7502,7.7029,7.4796,7.3916,7.35,7.35,7.35,7.35,7.35,7.4897,7.5337,7.4603,7.6082,7.6115,7.4593,7.5337,7.4931,7.3534,7.4999,7.5303,7.5715,7.7395,7.7759,7.5569,7.1963,6.7396,6.1363,5.7483,5.4311,5.1176,5.0345,5.0667,5.2217,5.3054,5.5258,6.0645,6.2586,6.5397,7.1083,7.5969,8.2216,9.0942,10.11,10.8703,11.2003,11.2888,11.2989,11.2482,11.0723,10.92,10.8422,10.7001,10.5682,10.4701,10.382,10.2908,10.2198,10.0912,10.0069,9.9829,9.807,9.6853,9.6142,9.5905,9.5229,9.4282,9.4349,9.4079,9.3499,9.2184,9.1372,9.0865,8.9816,8.9337,8.9066,8.8835,8.8429,8.7854,8.6907,8.623,8.5682,8.485,8.4614,8.4614,8.4614,8.4614,8.4614,8.4614,8.4614,8.4614,8.4614,8.4065,8.3422,8.3219,8.2577,8.2002,8.1765,8.1697,8.1629,8.1426,8.1359,8.1122,8.0378,8.0648,8.0851,8.031,7.9828,7.9431,7.9194,7.8483,7.8077,7.8382,7.8145,7.7502,7.6284,7.5946,7.5574,7.5033,7.4999,7.5236,7.5811,7.6284,7.6657,7.6927,7.7401,7.7401,7.6927,7.7164,7.7029,7.6613,7.7029,7.686,6.873,7.1232,7.1874,7.0296,6.7643,6.4179,5.9234,5.6406,5.4012,5.1176,5.0916,5.1401,5.2102,5.3429,5.5715,5.9644,6.1789,6.4554,6.9091,7.5096,8.2665,9.2479,10.3798,11.1027,11.1602,11.2109,11.2279,11.2111,11.0317,10.8794,10.7982,10.69,10.5716,10.4701,10.399,10.3212,10.2502,10.1014,10.0204,10.017,9.824,9.692,9.621,9.5939,9.5296,9.4417,9.4315,9.418,0.0,9.2658,9.1812,9.1203,9.029,8.9607,8.91,8.91,8.8829,8.8294,8.7583,8.7008,8.6433,8.5418,8.485,8.4614,8.4614,8.4614,8.4614,8.4614,8.4614,8.4614,8.4614,8.4242,8.3862,8.3558,8.3152,8.2746,8.2475,8.2408,8.2408,8.2408,8.2408,8.2272,8.1799,8.2103,8.2238,8.1765,8.1325,8.1021,8.1021,7.9972,7.9532,8.0276,7.9701,7.916,7.8991,7.7942,7.7096,7.6589,7.6555,7.6792,7.7299,7.757,7.7942,7.8416,7.8686,7.8686,7.8416,7.8145,7.8305,7.8822,7.8271,7.7908,0.0,6.7809,6.9615,6.8041,6.5727,6.2791,5.8603,5.5782,0.0,5.1594,5.198,5.2586,5.2371,5.4504,5.6585,5.7282,6.0428,6.3881,6.6889,7.4836,8.3793,9.3284,9.9559,10.3618,10.4903,10.8185,11.0587,11.1196,10.9877,10.8794,10.8016,10.7204,10.6223,10.4701,10.399,10.3212,10.2502,10.0982,10.0303,10.017,9.8781,9.7664,9.6883,9.6176,9.5804,9.5635,9.4248,9.4045,9.4552,9.374,9.259,9.1271,9.1169,9.029,8.91,8.91,8.91,8.8998,8.826,8.7989,8.7753,8.6291,8.5283,8.4681,8.4614,8.4614,8.4614,8.4614,8.4614,8.4614,8.4614,8.4614,8.4411,8.3727,8.3592,8.3389,8.2712,8.2577,8.2577,8.2577,8.2577,8.2543,8.2509,8.2543,8.2543,8.2509,8.2475,8.2475,8.2475,8.1832,8.1629,8.234,8.1799,8.1663,8.234,7.9904,7.8305,7.8305,7.8305,7.8305,7.8305,7.8957,7.9304,7.9236,7.987,7.9904,7.9261,7.8551,7.8923,8.0242,7.8855,7.8551,5.428,0.0,5.8065,5.7518,5.7003,5.6123,0.0,5.3114,5.2396,5.1385,5.0621,5.0879,5.3283,5.4189,5.5806,5.9554,6.1678,6.4664,6.9731,8.2345,9.3785,10.1185,10.6426,10.8997,10.8185,10.9505,11.0114,10.9708,10.8794,10.7982,10.7204,10.6494,10.5614,10.4701,10.399,10.3212,10.2502,10.1589,10.0811,10.017,9.9288,9.8138,9.6917,9.6748,9.6007,9.4958,9.4586,9.4214,9.374,9.2387,9.1609,9.1169,9.0053,8.9404,8.91,8.91,8.91,8.8998,8.826,8.7989,8.7753,8.6291,8.5655,8.5384,8.4783,8.4614,8.4614,8.4614,8.4614,8.4614,8.4614,8.4614,8.4546,8.4377,8.4343,8.4275,8.4106,8.4072,8.4072,8.4072,8.4072,8.3903,8.3355,8.3727,8.387,8.3321,8.3253,8.3253,8.3253,8.2611,8.2205,8.2408,8.2238,8.2205,8.2408,8.1765,8.1359,8.1359,8.1359,8.1359,8.1359,8.1528,8.1359,8.0784,8.0412,8.0378,8.0784,8.0606,8.0708,8.1046,8.0708,8.031,5.1206,5.2671,5.41,5.3682,5.3893,5.3952,5.2875,5.1947,5.1265,5.1206,5.0819,5.1076,5.2942,5.4083,5.584,5.9194,6.1547,6.6252,7.5774,8.6325,9.5944,10.379,10.7103,10.9099,10.9606,10.9403,10.9099,10.8693,10.7915,10.7204,10.6392,10.5682,10.5005,10.4193,10.3483,10.2908,10.2502,10.1419,10.0576,10.017,9.8781,9.7495,9.6409,9.6409,9.5567,9.4214,9.4552,9.4282,9.3533,9.2286,9.1609,9.1169,9.0053,8.9376,8.91,8.91,8.91,8.9066,8.8632,8.8057,8.738,8.6569,8.5824,8.5182,8.4715,8.4614,8.4614,8.4614,8.4614,8.4614,8.4614,8.4614,8.4614,8.4614,8.4614,8.4614,8.4614,8.4614,8.4614,8.4614,8.4614,8.4478,8.4065,8.4343,8.4444,8.4065,8.3998,8.3998,8.3998,8.3355,8.305,8.3362,8.3118,8.305,8.3362,8.3396,8.3126,8.2415,8.2408,8.2408,8.2408,8.2408,8.2205,8.1799,8.1426,8.1393,8.1799,8.1799,8.1799,8.1799,8.1799,8.1596,5.1565,5.303,5.4251,5.3144,5.3473,5.3832,5.3054,5.1475,5.0398,5.1056,5.1432,5.1935,5.2933,5.4946,5.7204,5.9377,6.3016,6.9942,8.2756,8.8843,9.5116,10.3521,10.5377,10.69,10.9403,10.8489,10.7779,10.7779,10.7103,10.6494,10.5817,10.5005,10.4193,10.3585,10.2908,10.2402,10.2299,10.0982,10.0303,10.0001,9.8138,9.6785,9.5939,9.5838,9.506,9.3774,9.4315,9.418,9.3533,9.2624,9.188,9.1203,9.0357,8.9647,8.91,8.91,8.91,8.91,8.91,8.8192,8.7076,8.6941,8.5933,8.4749,8.4647,8.4681,8.4783,8.4783,8.4681,8.4614,8.4614,8.4614,8.4614,8.4614,8.4614,8.4614,8.4614,8.4614,8.4614,8.4614,8.4614,8.4614,8.4614,8.4614,8.4614,8.4614,8.4614,8.4614,8.4614,8.4065,8.393,8.4512,8.4065,8.393,8.4546,8.4614,8.4072,8.2787,8.2746,8.2746,8.2746,8.2644,8.2577,8.2577,8.2475,8.2475,8.2577,8.2577,8.2577,8.2577,8.2577,8.2509,5.3294,5.479,5.5204,5.2247,5.2426,5.3025,5.1798,5.0817,5.0398,5.1056,5.0806,5.1818,5.6354,5.897,6.1831,6.6121,7.2483,7.9595,8.7355,9.2815,9.7955,10.3212,10.5513,10.6697,10.6494,10.6798,10.7103,10.7103,10.6392,10.5919,10.5817,10.4498,10.3686,10.3585,10.2908,10.2198,10.1621,10.1284,10.0605,9.9254,9.8916,9.8037,9.6714,9.6074,9.533,9.4518,9.3977,9.3673,9.3499,9.2049,9.1406,9.1169,8.9782,8.9201,8.91,8.91,8.91,8.91,8.91,8.8531,8.7719,8.711,8.6332,8.5486,8.4783,8.508,8.5621,8.5621,8.5148,8.4614,8.4614,8.4614,8.4614,8.4614,8.4614,8.4614,8.4614,8.4614,8.4614,8.4614,8.4614,8.4614,8.4614,8.4614,8.4614,8.4614,8.4614,8.4614,8.4614,8.4512,8.4478,8.458,8.4512,8.4478,8.458,8.4614,8.4512,8.4275,8.4242,8.4242,8.4242,8.3659,8.3321,8.3321,8.2712,8.2712,8.3321,8.3321,8.3321,8.3321,8.3321,8.3016,5.2312,5.3832,5.473,5.3234,5.4256,5.5073,5.2658,5.2096,5.257,5.4433,5.43,5.5157,5.9507,6.2436,6.6598,7.3828,8.043,8.613,9.0392,9.4425,9.8409,10.2502,10.4295,10.5614,10.69,10.69,10.6697,10.6291,10.5986,10.5479,10.4701,10.399,10.3212,10.2401,10.2096,10.1318,10.0199,10.0199,9.9796,9.9085,9.7867,9.6954,9.6277,9.5533,9.4789,9.4079,9.377,9.3334,9.2827,9.1338,9.0729,9.0594,8.9512,8.91,8.91,8.91,8.91,8.91,8.91,8.8361,8.7414,8.7482,8.6738,8.5817,8.5824,8.5824,8.5885,8.6264,8.5824,8.5249,8.5249,8.4945,8.4614,8.4614,8.4614,8.4614,8.4614,8.4614,8.4614,8.4614,8.4614,8.4614,8.4614,8.4614,8.4614,8.4614,8.4614,8.4614,8.4614,8.4614,8.4614,8.4614,8.4614,8.4614,8.4614,8.4614,8.4614,8.4614,8.4614,8.4614,8.4614,8.4275,8.4072,8.4072,8.3768,8.3734,8.4072,8.4072,8.4072,8.4072,8.4072,8.3903,5.2013,5.3453,5.4767,5.4326,5.5601,5.6499,5.4766,5.4554,5.558,5.8587,5.904,5.9955,6.332,6.759,7.3255,8.1285,8.729,9.1677,9.3914,9.6683,9.9728,10.3111,10.399,10.531,10.7813,10.7306,10.6595,10.5885,10.5614,10.5005,10.3686,10.3415,10.2705,10.1386,10.1418,10.0707,9.9119,9.8916,9.8848,9.8815,9.7123,9.6142,9.577,9.5229,9.4451,9.3601,9.3402,9.2962,9.229,9.0831,9.0222,9.0121,8.9376,8.91,8.91,8.91,8.91,8.91,8.91,8.8226,8.7245,8.782,8.711,8.6163,8.6738,8.6636,8.6433,8.7008,8.6738,8.6291,8.6095,8.5486,8.4884,8.4884,8.4884,8.4817,8.4647,8.4614,8.4614,8.4614,8.4614,8.4614,8.4614,8.4614,8.4614,8.4614,8.4614,8.4614,8.4614,8.4614,8.4614,8.4614,8.4614,8.4614,8.4614,8.4614,8.4614,8.4614,8.4614,8.4614,8.4614,8.4614,8.4614,8.4614,8.4614,8.4614,8.4614,8.4614,8.4614,8.4614,8.4614,8.4614,5.4401,5.5828,5.6368,5.4638,5.4331,5.5185,5.8004,5.8408,5.9061,6.2314,6.403,6.5812,6.8573,7.6291,8.3643,8.7811,9.2899,9.7089,9.9325,10.159,10.399,10.6291,10.6595,10.7001,10.7881,10.7306,10.6595,10.5885,10.5174,10.4396,10.3618,10.2976,10.2198,10.1386,10.1418,10.0707,9.9119,9.8409,9.807,9.807,9.7935,9.7123,9.5804,9.5736,9.4958,9.3567,9.2827,9.2459,9.229,9.0831,9.0222,9.0121,8.9376,8.91,8.91,8.91,8.91,8.91,8.91,8.8564,8.7922,8.7989,8.7482,8.6839,8.6907,8.7347,8.7854,8.7922,8.7888,8.7685,8.7008,8.6264,8.5689,8.5689,8.5689,8.5486,8.4749,8.4614,8.4614,8.4614,8.4614,8.4614,8.4614,8.4614,8.4614,8.4614,8.4614,8.4614,8.4614,8.4614,8.4614,8.4614,8.4614,8.4614,8.4614,8.4614,8.4614,8.4614,8.4614,8.4614,8.4614,8.4614,8.4614,8.4614,8.4614,8.4614,8.4614,8.4614,8.4614,8.4614,8.4614,8.4614,5.3114,5.4562,5.5921,5.5965,5.6971,5.8087,5.8772,6.146,6.4746,6.8175,7.0855,7.3763,7.7556,8.2679,8.7685,9.1913,9.6176,9.9762,10.1995,10.3516,10.4802,10.6088,10.6595,10.6798,10.6596,10.6392,10.5716,10.4498,10.4193,10.3686,10.2976,10.2198,10.1487,10.0709,10.0202,9.9457,9.8442,9.7664,9.7292,9.7292,9.6379,9.5669,9.5093,9.462,9.3842,9.2827,9.2049,9.1711,9.1609,9.0121,8.9782,9.0121,8.9376,8.91,8.91,8.91,8.91,8.91,8.91,8.8598,8.8091,8.8531,8.8192,8.7685,8.8125,8.8125,8.8091,8.8531,8.8023,8.738,8.755,8.7042,8.6501,8.6501,8.6501,8.6264,8.552,8.5351,8.5215,8.4681,8.4614,8.4614,8.4614,8.4614,8.4614,8.4614,8.4614,8.4614,8.4614,8.4614,8.4614,8.4614,8.4614,8.4614,8.4614,8.4614,8.4614,8.4614,8.4614,8.4614,8.4614,8.4614,8.4614,8.4614,8.4614,8.4614,8.4614,8.4614,8.4614,8.4614,8.4614,8.4614,5.2552,5.4026,5.5847,5.6864,5.9616,6.2274,6.2993,6.6487,7.0839,7.5207,7.8237,8.0987,8.4031,8.7008,9.0222,9.3774,9.7867,10.1386,10.3585,10.4226,10.4701,10.5716,10.602,10.5986,10.5513,10.5479,10.4904,10.3686,10.3585,10.328,10.247,10.1792,10.1014,10.0204,9.9254,9.8409,9.7664,9.6683,9.621,9.6176,9.4958,9.4485,9.4687,9.418,9.3368,9.2358,9.1609,9.1169,9.0865,8.9613,8.9376,8.9816,8.9275,8.91,8.91,8.91,8.91,8.91,8.91,8.8767,8.8429,8.8965,8.8761,8.8429,8.8965,8.8734,8.8429,8.8965,8.8361,8.7719,8.8226,8.7786,8.7245,8.7245,8.7245,8.7042,8.6298,8.6129,8.5993,8.5425,8.5324,8.5324,8.5324,8.5324,8.5324,8.5324,8.5148,8.4979,8.4979,8.4749,8.4614,8.4614,8.4614,8.4614,8.4614,8.4614,8.4614,8.4614,8.4614,8.4614,8.4614,8.4614,8.4614,8.4614,8.4614,8.4614,8.4614,8.4614,8.4614,8.4614,8.4614,8.4614,5.3333,5.4831,5.6626,5.7144,6.18,6.7362,7.1733,7.3998,7.7046,8.335,8.5895,8.6947,8.6947,8.9376,9.1846,9.3368,9.8,10.2196,10.4395,10.4125,10.4092,10.5614,10.5107,10.47,10.47,10.47,10.4429,10.3618,10.3585,10.328,10.2502,10.1792,10.1014,10.0204,9.8781,9.7631,9.6917,9.5432,9.4687,9.4687,9.3909,9.3977,9.4687,9.4687,9.3846,9.2358,9.1609,9.0865,9.0154,8.941,8.9134,8.91,8.91,8.91,8.91,8.91,8.91,8.91,8.91,8.91,8.91,8.91,8.91,8.91,8.91,8.91,8.91,8.91,8.91,8.91,8.91,8.8531,8.8023,8.8023,8.8023,8.782,8.7076,8.6913,8.6907,8.6907,8.6907,8.6907,8.6907,8.6907,8.6907,8.6907,8.6264,8.5817,8.5817,8.5114,8.4614,8.4614,8.4614,8.4614,8.4614,8.4614,8.4614,8.4614,8.4614,8.4614,8.4614,8.4614,8.4614,8.4614,8.4614,8.4614,8.4614,8.4614,8.4614,8.4614,8.4614,8.4614,5.5221,5.5929,5.7707,6.1852,6.6022,7.0949,7.8015,7.9222,8.0988,8.854,9.0881,9.1609,9.1609,9.3571,9.5364,9.5868,9.9015,10.2027,10.3686,10.372,10.4023,10.4904,10.4802,10.4531,10.399,10.3889,10.3585,10.2908,10.2806,10.2502,10.1824,10.1014,10.0202,9.9457,9.8003,9.7089,9.6917,9.489,9.3909,9.3909,9.259,9.2658,9.3909,9.3909,9.3064,9.1609,9.1372,9.0865,9.0188,8.9951,8.9579,8.91,8.91,8.91,8.91,8.91,8.91,8.91,8.91,8.91,8.91,8.91,8.91,8.91,8.91,8.91,8.91,8.91,8.91,8.91,8.91,8.8965,8.8767,8.8767,8.8767,8.8564,8.782,8.7685,8.7516,8.7008,8.6907,8.6907,8.6907,8.6907,8.6907,8.6907,8.6704,8.6399,8.5885,8.6027,8.5797,8.4715,8.5114,8.5452,8.5452,8.5452,8.5655,8.6196,8.623,8.573,8.4647,8.4614,8.4614,8.4614,8.4614,8.4614,8.4614,8.4614,8.4614,8.4614,8.4614,8.4614,5.6255,5.7323,5.9648,6.5529,7.028,7.575,8.451,8.6722,8.8688,9.4741,9.5635,9.533,9.533,9.6176,9.7018,9.7292,9.9593,10.1893,10.3382,10.3314,10.3415,10.4226,10.399,10.3719,10.3212,10.3179,10.2874,10.2096,10.2096,10.169,10.098,9.9931,9.9119,9.8679,9.6954,9.5872,9.5597,9.3943,9.2962,9.2658,9.1744,9.1778,9.2721,9.2721,9.2015,9.0865,9.0527,9.0154,8.9748,8.9748,8.9478,8.91,8.91,8.91,8.91,8.91,8.91,8.91,8.91,8.91,8.91,8.91,8.91,8.91,8.91,8.91,8.91,8.91,8.91,8.91,8.91,8.91,8.91,8.91,8.91,8.8998,8.8531,8.8429,8.8294,8.7854,8.7786,8.7786,8.7786,8.7786,8.7786,8.7786,8.7516,8.7076,8.6332,8.6636,8.6541,8.5594,8.596,8.623,8.623,8.623,8.6433,8.6873,8.6636,8.6196,8.5527,8.5222,8.4945,8.4614,8.4614,8.4614,8.4614,8.4614,8.4614,8.4614,8.4945,8.4911,5.7082,5.9174,6.2366,6.8993,7.5326,8.22,9.091,9.5195,9.8067,10.0707,9.9694,9.8409,9.8341,9.78,9.7597,9.8206,10.01,10.2027,10.328,10.2908,10.2673,10.3415,10.2908,10.2502,10.2502,10.2368,10.2096,10.1485,10.1284,10.0912,10.0102,9.8781,9.7969,9.7901,9.577,9.4282,9.3634,9.2692,9.1851,9.1203,9.1135,9.1102,9.1102,9.1237,9.0899,9.0154,8.941,8.91,8.91,8.91,8.91,8.91,8.91,8.9066,8.8998,8.8998,8.8965,8.8903,8.8998,8.8998,8.9032,8.91,8.91,8.91,8.91,8.91,8.91,8.91,8.91,8.91,8.91,8.91,8.91,8.91,8.91,8.91,8.91,8.91,8.91,8.91,8.91,8.91,8.91,8.91,8.91,8.91,8.8531,8.782,8.711,8.7076,8.7076,8.6913,8.6974,8.7008,8.7008,8.7008,8.7042,8.711,8.6467,8.6366,8.6974,8.623,8.5452,8.4715,8.4783,8.4783,8.4715,8.4783,8.4817,8.4817,8.5554,8.5452,6.093,6.2674,6.5905,7.6224,8.5464,9.287,9.6082,9.8679,10.0301,9.9694,10.0608,10.1386,10.0808,10.1014,10.1183,10.0709,10.1589,10.2401,10.2705,10.2603,10.2603,10.2705,10.2603,10.2502,10.2502,10.1995,10.1621,10.1386,10.0811,10.0069,9.939,9.8476,9.7732,9.7123,9.4992,9.374,9.3601,9.1643,9.0594,9.0425,8.985,8.9574,8.9607,9.0763,9.0899,9.0154,8.941,8.91,8.91,8.91,8.91,8.91,8.91,8.8734,8.8226,8.8226,8.7854,8.7448,8.8023,8.8226,8.8328,8.8903,8.91,8.91,8.91,8.91,8.91,8.91,8.91,8.91,8.91,8.91,8.91,8.91,8.91,8.91,8.91,8.91,8.91,8.91,8.91,8.91,8.91,8.91,8.91,8.91,8.8937,8.8598,8.7854,8.826,8.8158,8.7042,8.7414,8.7753,8.7753,8.7753,8.8023,8.8564,8.8491,8.8192,8.7786,8.6501,8.5723,8.5554,8.6129,8.6129,8.552,8.6129,8.6433,8.6433,8.6602,8.6264,6.3103,6.6321,7.1485,8.3192,9.1508,9.7258,9.8747,10.0506,10.169,10.0912,10.169,10.2401,10.1995,10.2231,10.2401,10.1995,10.2231,10.2502,10.2502,10.2502,10.2502,10.2502,10.2502,10.2401,10.1995,10.1589,10.1113,10.0402,9.9897,9.9187,9.8104,9.736,9.6447,9.536,9.3808,9.2692,9.1981,9.0797,9.0019,8.9681,8.9275,8.91,8.9134,8.9912,9.0019,8.9647,8.9241,8.8897,8.8564,8.8564,8.8564,8.8564,8.8564,8.8531,8.8463,8.8125,8.7989,8.7955,8.7989,8.8226,8.8564,8.8998,8.91,8.91,8.91,8.91,8.91,8.91,8.91,8.91,8.91,8.9342,8.9545,8.9201,8.91,8.91,8.91,8.91,8.91,8.91,8.91,8.91,8.91,8.91,8.91,8.91,8.91,8.8965,8.8564,8.8863,8.8829,8.8023,8.8294,8.8531,8.8531,8.8531,8.8666,8.91,8.8767,8.8564,8.8531,8.7448,8.667,8.6332,8.6704,8.6704,8.6332,8.6704,8.6907,8.6907,8.7279,8.6839,6.4298,7.0289,7.8179,8.8835,9.4958,9.8713,9.9899,10.1419,10.2502,10.2502,10.2502,10.2502,10.2299,10.2401,10.2401,10.2098,10.2299,10.2502,10.2299,10.2401,10.2502,10.2502,10.2401,10.2096,10.1519,10.098,10.0301,9.9018,9.8679,9.8003,9.6781,9.5872,9.4857,9.3634,9.259,9.1411,9.0222,9.0087,8.9647,8.8903,8.8903,8.8903,8.8903,8.9066,8.91,8.91,8.8998,8.8564,8.7989,8.7854,8.782,8.782,8.782,8.8091,8.8491,8.7989,8.8125,8.8491,8.8125,8.8395,8.8931,8.9066,8.91,8.91,8.91,8.91,8.9134,8.9241,8.9275,8.9309,8.9472,8.9918,9.0222,8.9444,8.9275,8.9241,8.9134,8.91,8.91,8.91,8.91,8.91,8.91,8.91,8.9168,8.9241,8.9275,8.9275,8.9275,8.9275,8.9269,8.9134,8.91,8.91,8.91,8.91,8.91,8.91,8.8531,8.8463,8.9066,8.8497,8.7888,8.7279,8.7279,8.7211,8.711,8.7211,8.7279,8.7313,8.7922,8.7448,6.4677,7.4877,8.5452,9.0899,9.6112,9.9933,10.0202,10.1419,10.2502,10.2502,10.2502,10.2299,10.1722,10.2096,10.2096,10.0711,10.159,10.2299,10.1589,10.2096,10.2502,10.2502,10.1893,10.1487,10.1386,9.9593,9.8375,9.8172,9.6954,9.6142,9.5939,9.462,9.3804,9.3634,9.1575,9.0425,9.0222,8.9579,8.8869,8.8158,8.8158,8.8158,8.8158,8.8829,8.91,8.9066,8.8395,8.8091,8.7955,8.7313,8.7076,8.7076,8.7076,8.6704,8.6298,8.6839,8.6704,8.6427,8.7583,8.8057,8.826,8.8869,8.91,8.91,8.91,8.91,8.9235,8.9884,9.0053,9.0222,9.0831,9.1068,9.0966,9.0222,9.0053,8.9884,8.9269,8.91,8.91,8.91,8.91,8.91,8.91,8.91,8.9309,8.9951,9.0053,9.0053,9.0053,9.0053,8.9816,8.9168,8.91,8.91,8.91,8.91,8.91,8.91,8.9032,8.8998,8.91,8.9032,8.8931,8.8829,8.8829,8.8497,8.7854,8.8497,8.8829,8.8829,8.8931,8.8497,7.1325,7.8539,8.5587,9.2556,9.6345,9.8679,9.9899,10.1115,10.1792,10.1318,10.1185,10.1185,10.1418,10.1284,10.0982,10.0305,10.0811,10.1115,10.0811,10.1014,10.1185,10.1185,10.0912,10.0405,9.9559,9.8578,9.7664,9.6819,9.577,9.4992,9.4586,9.3503,9.2556,9.1711,9.0729,8.9816,8.897,8.8632,8.8091,8.738,8.738,8.738,8.738,8.7719,8.7854,8.7888,8.8395,8.7888,8.6771,8.6873,8.667,8.6264,8.6264,8.6332,8.6467,8.6771,8.6974,8.711,8.7786,8.826,8.8666,8.8998,8.91,8.91,8.91,8.91,8.9241,8.9985,9.0222,9.0391,9.1102,9.1609,9.1744,9.1,9.0831,9.0628,8.9884,8.9376,8.91,8.91,8.91,8.91,8.91,8.91,8.9235,8.9512,8.9951,9.0222,9.0222,9.056,9.0696,9.0357,8.9951,8.9715,8.9715,8.9342,8.91,8.91,8.91,8.91,8.91,8.91,8.91,8.91,8.91,8.8965,8.8598,8.8965,8.91,8.91,8.91,8.87,7.4627,7.8889,8.2983,9.1203,9.4654,9.6646,9.8882,10.0303,10.0912,10.0305,10.0204,10.0305,10.0709,10.0506,10.0069,9.9697,9.9933,10.01,9.9663,9.9933,10.0102,9.9933,9.973,9.9153,9.7867,9.7225,9.6345,9.5026,9.4248,9.3605,9.303,9.2286,9.131,9.0256,9.0019,8.9309,8.8023,8.7617,8.7245,8.6907,8.6704,8.6636,8.6636,8.6839,8.6704,8.6372,8.7685,8.734,8.5851,8.6163,8.5993,8.5486,8.5486,8.5824,8.6338,8.6569,8.6974,8.7482,8.7854,8.8361,8.8863,8.9066,8.91,8.91,8.91,8.9235,8.9512,9.029,9.0628,9.0932,9.1677,9.2286,9.2522,9.1778,9.1575,9.1338,9.0391,8.9613,8.9168,8.9342,8.9235,8.91,8.91,8.91,8.9168,8.9342,8.985,9.029,9.0459,9.0966,9.1237,9.1034,9.0527,9.0222,9.0222,8.9512,8.9201,8.9342,8.9173,8.91,8.91,8.91,8.91,8.91,8.91,8.91,8.91,8.91,8.91,8.91,8.91,8.8829,6.9553,7.3849,7.8653,8.4802,9.0081,9.4345,9.6578,9.8713,10.0303,10.0204,10.0204,9.9999,9.9322,9.9762,9.973,9.8341,9.9288,9.9697,9.8307,9.9291,9.9965,9.9221,9.8544,9.78,9.7052,9.5056,9.347,9.2629,9.1913,9.144,9.1406,9.0729,9.029,9.0222,8.9512,8.8767,8.7989,8.6602,8.623,8.6907,8.6196,8.5885,8.5885,8.6602,8.6102,8.4749,8.5621,8.5919,8.575,8.5046,8.4681,8.4647,8.4647,8.4681,8.4817,8.5587,8.5885,8.6095,8.7516,8.8023,8.8158,8.8869,8.91,8.91,8.91,8.9579,9.029,9.1034,9.1744,9.2459,9.3267,9.3533,9.3334,9.2527,9.2324,9.1952,9.0527,8.9613,8.9337,9.0019,8.9579,8.91,8.91,8.91,8.9342,9.0053,9.0188,9.0459,9.1135,9.1271,9.1034,9.0324,9.0222,9.0222,9.0222,8.9512,8.9376,9.0121,8.9478,8.91,8.91,8.91,8.91,8.91,8.91,8.91,8.91,8.91,8.91,8.91,8.91,8.91,7.0026,7.2766,7.6386,8.3355,8.7211,9.0121,9.33,9.577,9.7394,9.7394,9.7766,9.8003,9.7732,9.7901,9.7901,9.736,9.7326,9.7022,9.6041,9.6751,9.7089,9.6379,9.648,9.6108,9.492,9.4074,9.3064,9.1778,9.1,9.0594,9.0594,8.9884,8.9275,8.8801,8.8531,8.7786,8.6602,8.5554,8.5155,8.5425,8.5155,8.5046,8.5046,8.529,8.5121,8.4614,8.4884,8.5046,8.5046,8.5283,8.508,8.4614,8.4614,8.4614,8.4681,8.5486,8.5817,8.602,8.7482,8.7989,8.8125,8.8863,8.91,8.91,8.91,8.9275,8.994,9.1974,9.2763,9.3251,9.4488,9.4831,9.4401,9.2789,9.2392,9.2257,9.1715,9.029,8.9201,8.9444,8.9303,8.91,8.91,8.91,8.9201,8.9444,8.9918,9.029,9.056,9.1,9.1372,9.158,9.1203,9.0899,9.0899,9.0222,8.9715,8.9512,8.9269,8.9309,8.9782,8.9816,8.9816,8.9816,9.0256,9.029,8.9816,8.9816,9.0053,9.0493,9.0019,8.9816,6.9226,7.0703,7.3477,8.1257,8.3389,8.5046,9.0729,9.2827,9.3842,9.4857,9.5838,9.6514,9.6514,9.6139,9.5969,9.6477,9.6108,9.5533,9.4823,9.5127,9.5161,9.4417,9.4518,9.418,9.2928,9.259,9.1913,9.0662,9.0121,8.9816,8.9816,8.9106,8.8395,8.7651,8.738,8.6771,8.5817,8.5012,8.4614,8.4614,8.4614,8.4614,8.4614,8.4614,8.4614,8.4614,8.4614,8.4614,8.4647,8.5182,8.508,8.4614,8.4614,8.4614,8.4647,8.5215,8.5384,8.5587,8.6839,8.7414,8.7835,8.9001,8.9547,8.9799,9.0243,9.0234,9.0659,9.3234,9.3808,9.3959,9.5188,9.5179,9.4498,9.3128,9.2595,9.2392,9.2392,9.1068,8.9816,8.9816,8.9613,8.9376,8.9168,8.91,8.91,8.91,8.9512,9.0019,9.0527,9.1,9.1575,9.2324,9.1981,9.1677,9.1677,9.0763,9.0087,8.985,8.9613,8.9681,9.0188,9.0459,9.056,9.056,9.1034,9.1169,9.0938,9.0696,9.0831,9.1271,9.0797,9.056,0.0,0.0,0.0,7.7942,7.8348,7.9261,8.87,8.9782,8.9709,9.2788,9.4518,9.5567,9.5669,9.4518,9.404,9.5432,9.5669,9.5398,9.4687,9.4586,9.4349,9.3601,9.2827,9.2054,9.1338,9.0628,8.9884,8.9168,8.91,8.91,8.9066,8.8328,8.7617,8.6907,8.6163,8.5784,8.5784,8.4986,8.4614,8.4614,8.4614,8.4614,8.4614,8.4614,8.4614,8.4614,8.4614,8.4614,8.4614,8.4614,8.4614,8.4614,8.4614,8.4614,8.4614,8.4614,8.4614,8.4715,8.5574,8.6345,8.7274,8.9312,9.0441,9.1296,9.2515,9.2529,9.2573,9.4669,9.4869,9.4575,9.5326,9.459,9.3634,9.3634,9.303,9.2459,9.2426,9.188,9.1338,9.1271,9.0696,8.9985,8.9269,8.9134,8.9134,8.9134,8.9134,8.9647,9.1068,9.1271,9.1575,9.2324,9.2392,9.2392,9.2358,9.1068,9.0527,9.1203,9.0594,9.0222,9.0256,9.0966,9.1338,9.1338,9.1338,9.1711,9.2392,9.1677,9.1338,9.1372,9.1338,9.1305,6.847,0.0,0.0,0.0,0.0,0.0,7.9904,8.1393,8.3186,8.782,8.9072,9.0188,9.2861,9.303,9.2692,9.2556,9.2522,9.2286,9.1575,9.1913,9.1981,9.1237,9.1406,9.1305,9.0594,9.0324,8.9884,8.9168,8.91,8.8897,8.8328,8.7076,8.6298,8.6095,8.5351,8.4918,8.4918,8.4715,8.4614,8.4614,8.4614,8.4614,8.4614,8.4614,8.4614,8.4614,8.4614,8.4614,8.4614,8.4614,8.4614,8.4614,8.4614,8.4614,8.4614,8.4614,8.4614,8.4841,8.6543,8.7624,8.8604,9.0563,9.1712,9.2442,9.2802,9.28,9.3235,9.59,9.5854,9.5181,9.6117,9.5412,9.4417,9.4417,9.4248,9.3943,9.3368,9.3098,9.2455,9.0831,9.0357,9.0154,8.9918,8.9444,8.9275,8.9816,8.9918,9.0053,9.0459,9.0966,9.1575,9.2324,9.2392,9.2155,9.1643,9.1237,9.0865,9.0527,9.0324,9.0696,9.1749,9.1986,9.2087,9.2087,9.2658,9.2793,9.2392,9.2189,9.2387,9.2958,9.2387,9.1812,0.0,0.0,0.0,7.2394,0.0,0.0,7.7198,7.7739,7.8594,8.3558,8.5046,8.6433,8.9517,9.0092,9.0188,9.0357,9.0121,9.0087,9.0594,9.0763,9.0696,9.0256,9.029,9.0188,8.9782,8.9748,8.9545,8.9134,8.91,8.8632,8.7617,8.6433,8.5621,8.5317,8.4817,8.4614,8.4614,8.4614,8.4614,8.4614,8.4614,8.4614,8.4614,8.4614,8.4614,8.4614,8.4614,8.4614,8.4614,8.4614,8.4614,8.4614,8.4614,8.4614,8.4647,8.4979,8.5215,8.5609,8.7455,8.8728,8.9889,9.1907,9.3077,9.381,9.43,9.4101,9.4289,9.7186,9.7367,9.668,9.6711,9.5926,9.5093,9.4789,9.4721,9.4518,9.374,9.3601,9.3025,9.1034,9.0662,9.0459,8.985,8.9376,8.9269,8.9681,8.9748,8.9951,9.0594,9.1034,9.1711,9.2793,9.2895,9.2725,9.2286,9.1947,9.1575,9.1141,9.1135,9.1479,9.2358,9.2725,9.2895,9.2895,9.3673,9.3842,9.3339,9.3064,9.3131,9.3601,9.3131,9.2658,0.0,0.0,0.0,0.0,7.1853,0.0,7.7401,7.6589,7.554,7.9701,8.1596,8.3287,8.5824,8.6366,8.6805,8.8051,8.7955,8.8497,9.0628,9.0357,8.9951,8.985,8.9309,8.8998,8.8998,8.9066,8.91,8.91,8.8965,8.8226,8.6873,8.6061,8.5351,8.4614,8.4614,8.4614,8.4614,8.4614,8.4614,8.4614,8.4614,8.466,8.4819,8.466,8.466,8.4785,8.466,8.4614,8.4614,8.4614,8.4614,8.4614,8.4614,8.4686,8.4887,8.5625,8.6174,8.6867,8.8499,8.9822,9.1135,9.3235,9.4319,9.5055,9.6301,9.579,9.5338,9.7921,9.8632,9.8252,9.6938,9.6124,9.5533,9.4958,9.4755,9.4518,9.374,9.3601,9.3161,9.1609,9.1305,9.0865,8.9574,8.9303,8.9269,8.9337,8.941,8.9918,9.1237,9.1508,9.2083,9.3436,9.3601,9.3567,9.347,9.2827,9.2392,9.2392,9.2392,9.2426,9.2527,9.3199,9.3601,9.3601,9.4248,9.462,9.4721,9.3943,9.3601,9.3601,9.3601,9.3601,0.0,0.0,0.0,0.0,7.2293,0.0,7.1582,7.209,7.3409,7.5473,7.6149,7.757,8.1629,8.2881,8.3186,8.2873,8.4735,8.6771,8.8429,8.8531,8.8226,8.7617,8.7955,8.8192,8.8192,8.8734,8.91,8.91,8.7989,8.6941,8.6061,8.5283,8.4749,8.4614,8.4614,8.4614,8.4614,8.4614,8.4614,8.4614,8.4614,8.5118,8.6003,8.504,8.5144,8.5978,8.5014,8.4614,8.4614,8.4614,8.4614,8.4614,8.4614,8.5222,8.6147,8.6225,8.6956,8.8139,9.0099,9.1398,9.2463,9.4488,9.4993,9.5055,9.6301,9.579,9.4958,9.5704,9.6777,9.7484,9.6268,9.5468,9.5026,9.5466,9.5127,9.4518,9.374,9.3601,9.3161,9.1609,9.1305,9.1203,9.0899,9.0391,9.0188,9.0763,9.1372,9.1851,9.2121,9.2759,9.3296,9.3567,9.3601,9.3334,9.2692,9.2493,9.2392,9.2392,9.2392,9.2662,9.3334,9.3503,9.3601,9.3601,9.374,9.4112,9.4721,9.3943,9.3601,9.3601,9.3601,9.3601,0.0,0.0,0.0,7.2293,7.2394,0.0,0.0,7.1007,7.1278,7.3138,7.3206,7.4086,7.7807,7.8517,7.9025,8.0513,8.2002,8.3524,8.5012,8.6501,8.7313,8.6941,8.7245,8.7448,8.7448,8.7786,8.7989,8.7989,8.6974,8.6196,8.5817,8.5046,8.4614,8.4614,8.4614,8.489,8.5489,8.5489,8.5786,8.6424,8.6424,8.6731,8.7293,8.6682,8.6755,8.7234,8.6658,8.6424,8.6449,8.6424,8.6424,8.635,8.571,8.5887,8.6626,8.8001,8.903,9.0065,9.2292,9.3447,9.421,9.5632,9.5913,9.5887,9.6531,9.6535,9.6161,9.5332,9.6719,9.7955,9.5822,9.5755,9.61,9.5408,9.4992,9.4518,9.374,9.3267,9.2895,9.2522,9.1812,9.1068,9.0324,9.0188,9.0324,9.0696,9.1372,9.1952,9.2358,9.2759,9.3165,9.3567,9.3601,9.3436,9.303,9.2996,9.2996,9.2996,9.2996,9.3165,9.3601,9.3601,9.3973,9.4654,9.4687,9.506,9.5804,9.506,9.4518,9.4146,9.4146,9.4146,0.0,0.0,0.0,0.0,0.0,7.2451,0.0,0.0,0.0,7.1718,7.1515,7.1853,7.439,7.439,7.4965,7.801,7.8957,7.9701,8.075,8.3253,8.5182,8.5757,8.5723,8.5824,8.6372,8.6332,8.6474,8.6982,8.585,8.5456,8.6222,8.5203,8.4713,8.4943,8.4969,8.5387,8.639,8.6623,8.7246,8.8201,8.8201,8.8335,8.8535,8.8313,8.8313,8.8535,8.829,8.8223,8.8281,8.8201,8.8201,8.8111,8.7151,8.6889,8.7386,8.9639,9.0889,9.1688,9.3748,9.4826,9.5401,9.6208,9.6575,9.6647,9.6416,9.7081,9.7539,9.5727,9.7143,9.8562,9.591,9.6291,9.6926,9.5254,9.4556,9.4079,9.33,9.2658,9.2387,9.303,9.215,9.0966,8.9918,9.0222,9.0628,9.0628,9.1271,9.1947,9.2527,9.2629,9.2895,9.3503,9.3736,9.3808,9.3808,9.3808,9.3808,9.3808,9.3702,9.3601,9.3601,9.374,9.4485,9.5973,9.5872,9.6142,9.6917,9.6142,9.5499,9.4924,9.4924,9.4857,0.0,0.0,0.0,0.0,7.7333,7.8373,7.2045,0.0,7.3308,7.0939,0.0,7.0635,7.1616,0.0,0.0,7.2236,7.4525,7.6048,7.555,7.6961,7.8991,8.1629,8.1359,8.2002,8.4614,8.4268,8.4896,8.7345,8.46,8.4273,8.7748,8.5804,8.5092,8.6177,8.6227,8.6242,8.6414,8.7445,8.8065,8.8201,8.8259,8.8812,8.9745,8.8689,8.8776,8.976,8.8667,8.8201,8.8201,8.8201,8.8201,8.8178,8.8043,8.8645,8.9636,8.994,9.0796,9.1895,9.2957,9.3802,9.4556,9.5364,9.6135,9.6475,9.5363,9.6393,9.7625,9.6177,9.7069,9.8212,9.7339,9.6415,9.5688,9.5454,9.401,9.2459,9.1711,9.1474,9.144,9.1541,9.1406,9.144,9.1918,9.2087,9.2155,9.2155,9.2827,9.3398,9.3436,9.3436,9.347,9.3601,9.418,9.4586,9.4586,9.4586,9.4586,9.4586,9.3943,9.3601,9.3601,9.4214,9.5263,9.6748,9.6108,9.6142,9.6917,9.6142,9.577,9.5669,9.5669,9.533,0.0,0.0,7.9464,7.7164,7.7299,7.6995,7.3026,7.209,7.1819,7.1007,0.0,0.0,0.0,0.0,0.0,0.0,7.236,7.3206,7.3308,7.3138,7.4593,7.888,7.8314,7.8416,8.0547,8.1412,8.2325,8.3441,8.3609,8.4367,8.6038,8.6487,8.6913,8.7422,8.7422,8.7792,8.8491,8.8992,8.9579,9.0304,9.0304,9.0578,9.1022,9.0503,9.0578,9.1003,9.0519,9.0304,9.0304,9.0304,9.0304,9.0304,9.0304,9.0148,9.0139,9.1356,9.211,9.2684,9.3492,9.4336,9.5144,9.5951,9.6428,9.6608,9.6047,9.6518,9.7132,9.671,9.7642,9.8375,9.673,9.6493,9.6293,9.4747,9.3359,9.2426,9.259,9.1913,9.1541,9.2455,9.2252,9.2184,9.2962,9.2725,9.2392,9.2392,9.3064,9.3601,9.3601,9.3601,9.374,9.418,9.4518,9.489,9.5296,9.5648,9.5858,9.5858,9.5137,9.4568,9.4244,9.4958,9.5838,9.6883,9.7022,9.7225,9.7529,9.6785,9.6413,9.6413,9.6007,9.5398,7.9904,8.0344,8.0784,7.8788,7.7468,7.6014,7.3713,7.2451,7.1785,7.2157,7.1853,0.0,0.0,0.0,7.0838,7.1515,0.0,7.1323,7.1481,7.0364,7.1278,7.5912,7.6217,7.6665,7.8292,7.921,8.0221,8.1427,8.2275,8.345,8.5177,8.6502,8.7591,8.8346,8.8582,8.91,8.9986,9.0324,9.0926,9.1803,9.1803,9.1803,9.1803,9.1803,9.1803,9.1803,9.1803,9.1803,9.1803,9.1803,9.1803,9.1803,9.1803,9.1249,9.069,9.2204,9.2758,9.2831,9.3418,9.4299,9.5364,9.6355,9.6685,9.6685,9.6685,9.6685,9.6731,9.693,9.801,9.8692,9.6943,9.7254,9.7513,9.5419,9.375,9.2816,9.3395,9.2196,9.144,9.2962,9.2793,9.2658,9.3436,9.3131,9.2725,9.2725,9.3233,9.3601,9.3601,9.3774,9.4256,9.5171,9.5643,9.6228,9.7143,9.764,9.7825,9.7616,9.6814,9.6234,9.5872,9.6393,9.7006,9.7785,9.83,9.8572,9.8572,9.7823,9.7273,9.6883,9.6142,9.5398,8.3727,8.4945,8.5452,8.0344,7.9034,7.7816,7.3443,7.4052,7.5337,7.4661,7.6217,7.7502,7.6826,7.5473,0.0,0.0,0.0,0.0,0.0,6.8504,6.9113,7.2225,7.51,7.7577,7.9361,7.8264,7.9191,8.3562,8.0187,8.0576,8.662,8.5518,8.5941,8.8694,8.9528,8.9965,9.0006,9.1173,9.1785,9.1803,9.1803,9.1803,9.1803,9.1803,9.1803,9.1803,9.1803,9.1803,9.1803,9.1803,9.1803,9.1803,9.1803,9.1785,9.1767,9.184,9.184,9.184,9.1877,9.2941,9.4593,9.6171,9.6685,9.6685,9.6685,9.6685,9.6722,9.672,9.7858,9.9069,9.9006,9.9211,9.9213,9.8447,9.5713,9.3256,9.3291,9.17,9.0696,9.2155,9.2426,9.2658,9.3436,9.3601,9.3567,9.3567,9.3601,9.3601,9.3601,9.4214,9.5176,9.6574,9.8028,9.9416,10.0797,10.0881,10.0685,9.9931,9.9092,9.8673,9.8853,9.8866,9.9247,9.9974,9.998,9.998,9.998,9.9282,9.8233,9.6883,9.6142,9.5398,8.6501,8.738,8.7313,8.3084,8.1629,8.0107,7.5608,7.5574,7.6149,7.484,7.642,7.7435,7.5709,0.0,0.0,0.0,0.0,0.0,0.0,6.7658,6.7726,6.9248,7.165,7.3266,7.3466,7.3581,7.4797,7.7523,7.7548,7.9058,8.2851,8.5027,8.6863,8.8344,8.9713,9.0644,9.1192,9.1602,9.1803,9.1803,9.1803,9.1803,9.1803,9.1803,9.1803,9.1803,9.1803,9.1803,9.1803,9.1803,9.1803,9.1803,9.1803,9.1803,9.1803,9.1803,9.1803,9.195,9.3051,9.4153,9.529,9.6355,9.6685,9.6685,9.6685,9.7052,9.7493,9.7493,9.8264,9.8893,9.8011,9.7832,9.7615,9.6504,9.5386,9.4674,9.5201,9.4767,9.4599,9.5594,9.5803,9.5847,9.6152,9.6187,9.5616,9.386,9.3601,9.4117,9.5553,9.5941,9.701,9.9376,10.0106,10.0818,10.1686,10.2217,10.2096,10.1294,10.0113,9.9763,10.0414,9.8595,9.8372,10.01,9.919,9.8723,9.8723,9.7461,9.6648,9.6142,9.489,9.4451,8.7685,8.8531,8.87,8.552,8.3964,8.2212,7.8517,7.828,7.8517,7.7232,7.8551,7.9498,0.0,0.0,0.0,0.0,0.0,0.0,0.0,6.7117,6.696,6.7455,6.9594,7.0984,7.0952,7.1806,7.2616,7.3301,7.5024,7.6848,7.872,8.2957,8.593,8.7288,8.9454,9.0996,9.1803,9.1803,9.1803,9.1803,9.1803,9.1803,9.1803,9.1803,9.1803,9.1803,9.1803,9.1803,9.1803,9.1803,9.1803,9.1803,9.1803,9.1803,9.1803,9.1803,9.1987,9.2464,9.3822,9.4813,9.5621,9.6428,9.6685,9.6685,9.6685,9.7052,9.764,9.8484,9.8924,9.9023,9.8744,9.8445,9.8034,9.7134,9.644,9.6173,9.7219,9.6884,9.6627,9.7357,9.7474,9.7474,9.7474,9.7474,9.693,9.5241,9.5233,9.5904,9.7304,9.7961,9.9218,10.1626,10.1796,10.2183,10.322,10.3604,10.3696,10.3501,10.2,10.1216,10.1506,9.926,9.919,10.17,9.9769,9.9501,10.1096,9.8756,9.7787,9.8022,9.6238,9.5825]}]]